<?xml version='1.0' encoding='UTF-8'?>
<gpx version="1.1" creator="https://www.komoot.de" xmlns="http://www.topografix.com/GPX/1/1" xmlns:xsi="http://www.w3.org/2001/XMLSchema-instance" xsi:schemaLocation="http://www.topografix.com/GPX/1/1 http://www.topografix.com/GPX/1/1/gpx.xsd">
  <metadata>
    <name>60_1000OmumpfSaalStaff</name>
    <author>
      <link href="https://www.komoot.de">
        <text>komoot</text>
        <type>text/html</type>
      </link>
    </author>
  </metadata>
  <trk>
    <name>60_1000OmumpfSaalStaff</name>
    <trkseg>
      <trkpt lat="47.541271" lon="7.870906">
        <ele>340.677787</ele>
        <time>2021-11-15T22:07:52.675Z</time>
      </trkpt>
      <trkpt lat="47.541410" lon="7.870791">
        <ele>340.677787</ele>
        <time>2021-11-15T22:07:55.055Z</time>
      </trkpt>
      <trkpt lat="47.541576" lon="7.870664">
        <ele>340.677787</ele>
        <time>2021-11-15T22:07:59.198Z</time>
      </trkpt>
      <trkpt lat="47.541796" lon="7.871042">
        <ele>340.677787</ele>
        <time>2021-11-15T22:08:06.393Z</time>
      </trkpt>
      <trkpt lat="47.541953" lon="7.871286">
        <ele>340.715055</ele>
        <time>2021-11-15T22:08:11.124Z</time>
      </trkpt>
      <trkpt lat="47.542039" lon="7.871556">
        <ele>341.386552</ele>
        <time>2021-11-15T22:08:15.838Z</time>
      </trkpt>
      <trkpt lat="47.542067" lon="7.871664">
        <ele>341.646767</ele>
        <time>2021-11-15T22:08:17.260Z</time>
      </trkpt>
      <trkpt lat="47.542091" lon="7.871721">
        <ele>341.797867</ele>
        <time>2021-11-15T22:08:17.820Z</time>
      </trkpt>
      <trkpt lat="47.542218" lon="7.871866">
        <ele>342.332119</ele>
        <time>2021-11-15T22:08:21.342Z</time>
      </trkpt>
      <trkpt lat="47.542394" lon="7.872341">
        <ele>343.550851</ele>
        <time>2021-11-15T22:08:31.057Z</time>
      </trkpt>
      <trkpt lat="47.542436" lon="7.872494">
        <ele>343.922344</ele>
        <time>2021-11-15T22:08:35.911Z</time>
      </trkpt>
      <trkpt lat="47.542351" lon="7.872540">
        <ele>344.223865</ele>
        <time>2021-11-15T22:08:37.363Z</time>
      </trkpt>
      <trkpt lat="47.542351" lon="7.872540">
        <ele>344.223865</ele>
        <time>2021-11-15T22:08:37.369Z</time>
      </trkpt>
      <trkpt lat="47.542351" lon="7.872540">
        <ele>344.223865</ele>
        <time>2021-11-15T22:08:37.451Z</time>
      </trkpt>
      <trkpt lat="47.542436" lon="7.872494">
        <ele>344.525386</ele>
        <time>2021-11-15T22:08:39.945Z</time>
      </trkpt>
      <trkpt lat="47.542537" lon="7.872430">
        <ele>344.891406</ele>
        <time>2021-11-15T22:08:42.929Z</time>
      </trkpt>
      <trkpt lat="47.542714" lon="7.872334">
        <ele>345.519442</ele>
        <time>2021-11-15T22:08:49.292Z</time>
      </trkpt>
      <trkpt lat="47.542814" lon="7.872280">
        <ele>345.874082</ele>
        <time>2021-11-15T22:08:52.500Z</time>
      </trkpt>
      <trkpt lat="47.542919" lon="7.872226">
        <ele>346.244417</ele>
        <time>2021-11-15T22:08:57.078Z</time>
      </trkpt>
      <trkpt lat="47.543013" lon="7.872182">
        <ele>346.572882</ele>
        <time>2021-11-15T22:09:00.040Z</time>
      </trkpt>
      <trkpt lat="47.543233" lon="7.872082">
        <ele>347.863271</ele>
        <time>2021-11-15T22:09:07.543Z</time>
      </trkpt>
      <trkpt lat="47.543251" lon="7.872152">
        <ele>348.163640</ele>
        <time>2021-11-15T22:09:11.155Z</time>
      </trkpt>
      <trkpt lat="47.543332" lon="7.872237">
        <ele>348.753292</ele>
        <time>2021-11-15T22:09:13.573Z</time>
      </trkpt>
      <trkpt lat="47.544390" lon="7.872423">
        <ele>355.082214</ele>
        <time>2021-11-15T22:09:54.183Z</time>
      </trkpt>
      <trkpt lat="47.544883" lon="7.872555">
        <ele>358.155365</ele>
        <time>2021-11-15T22:10:16.592Z</time>
      </trkpt>
      <trkpt lat="47.545131" lon="7.872664">
        <ele>359.904358</ele>
        <time>2021-11-15T22:10:27.596Z</time>
      </trkpt>
      <trkpt lat="47.545375" lon="7.872836">
        <ele>361.731305</ele>
        <time>2021-11-15T22:10:38.537Z</time>
      </trkpt>
      <trkpt lat="47.545478" lon="7.872968">
        <ele>362.652107</ele>
        <time>2021-11-15T22:10:45.344Z</time>
      </trkpt>
      <trkpt lat="47.545515" lon="7.873015">
        <ele>362.981637</ele>
        <time>2021-11-15T22:10:47.301Z</time>
      </trkpt>
      <trkpt lat="47.545746" lon="7.873302">
        <ele>365.019984</ele>
        <time>2021-11-15T22:11:00.500Z</time>
      </trkpt>
      <trkpt lat="47.545934" lon="7.873549">
        <ele>366.718912</ele>
        <time>2021-11-15T22:11:10.601Z</time>
      </trkpt>
      <trkpt lat="47.546077" lon="7.873763">
        <ele>368.093178</ele>
        <time>2021-11-15T22:11:19.797Z</time>
      </trkpt>
      <trkpt lat="47.546135" lon="7.873859">
        <ele>368.681162</ele>
        <time>2021-11-15T22:11:23.036Z</time>
      </trkpt>
      <trkpt lat="47.546309" lon="7.874154">
        <ele>370.136073</ele>
        <time>2021-11-15T22:11:34.151Z</time>
      </trkpt>
      <trkpt lat="47.547126" lon="7.875801">
        <ele>376.204894</ele>
        <time>2021-11-15T22:12:19.912Z</time>
      </trkpt>
      <trkpt lat="47.547574" lon="7.876801">
        <ele>377.428308</ele>
        <time>2021-11-15T22:12:38.907Z</time>
      </trkpt>
      <trkpt lat="47.547992" lon="7.877974">
        <ele>377.428764</ele>
        <time>2021-11-15T22:12:51.708Z</time>
      </trkpt>
      <trkpt lat="47.548234" lon="7.878638">
        <ele>376.893060</ele>
        <time>2021-11-15T22:12:57.020Z</time>
      </trkpt>
      <trkpt lat="47.548422" lon="7.878959">
        <ele>375.779749</ele>
        <time>2021-11-15T22:12:59.863Z</time>
      </trkpt>
      <trkpt lat="47.548718" lon="7.879258">
        <ele>374.389351</ele>
        <time>2021-11-15T22:13:03.401Z</time>
      </trkpt>
      <trkpt lat="47.549140" lon="7.879391">
        <ele>372.714901</ele>
        <time>2021-11-15T22:13:07.588Z</time>
      </trkpt>
      <trkpt lat="47.549318" lon="7.879398">
        <ele>372.023831</ele>
        <time>2021-11-15T22:13:09.215Z</time>
      </trkpt>
      <trkpt lat="47.549327" lon="7.879547">
        <ele>371.631960</ele>
        <time>2021-11-15T22:13:10.201Z</time>
      </trkpt>
      <trkpt lat="47.549726" lon="7.880786">
        <ele>368.099177</ele>
        <time>2021-11-15T22:13:19.136Z</time>
      </trkpt>
      <trkpt lat="47.549927" lon="7.881490">
        <ele>366.149377</ele>
        <time>2021-11-15T22:13:24.168Z</time>
      </trkpt>
      <trkpt lat="47.550234" lon="7.883221">
        <ele>361.448686</ele>
        <time>2021-11-15T22:13:36.569Z</time>
      </trkpt>
      <trkpt lat="47.550332" lon="7.884727">
        <ele>357.336548</ele>
        <time>2021-11-15T22:13:46.413Z</time>
      </trkpt>
      <trkpt lat="47.550391" lon="7.885109">
        <ele>356.222347</ele>
        <time>2021-11-15T22:13:48.945Z</time>
      </trkpt>
      <trkpt lat="47.550548" lon="7.885799">
        <ele>353.531127</ele>
        <time>2021-11-15T22:13:53.550Z</time>
      </trkpt>
      <trkpt lat="47.550677" lon="7.886476">
        <ele>350.931175</ele>
        <time>2021-11-15T22:13:57.980Z</time>
      </trkpt>
      <trkpt lat="47.550758" lon="7.887295">
        <ele>347.871884</ele>
        <time>2021-11-15T22:14:03.122Z</time>
      </trkpt>
      <trkpt lat="47.550789" lon="7.887816">
        <ele>345.850546</ele>
        <time>2021-11-15T22:14:06.354Z</time>
      </trkpt>
      <trkpt lat="47.550831" lon="7.888611">
        <ele>342.483490</ele>
        <time>2021-11-15T22:14:11.310Z</time>
      </trkpt>
      <trkpt lat="47.550833" lon="7.889069">
        <ele>340.549603</ele>
        <time>2021-11-15T22:14:14.120Z</time>
      </trkpt>
      <trkpt lat="47.550915" lon="7.890600">
        <ele>334.356269</ele>
        <time>2021-11-15T22:14:23.513Z</time>
      </trkpt>
      <trkpt lat="47.550904" lon="7.891725">
        <ele>330.720693</ele>
        <time>2021-11-15T22:14:30.517Z</time>
      </trkpt>
      <trkpt lat="47.550892" lon="7.893176">
        <ele>326.492570</ele>
        <time>2021-11-15T22:14:40.129Z</time>
      </trkpt>
      <trkpt lat="47.550908" lon="7.894308">
        <ele>325.374554</ele>
        <time>2021-11-15T22:14:49.334Z</time>
      </trkpt>
      <trkpt lat="47.550878" lon="7.895158">
        <ele>324.534091</ele>
        <time>2021-11-15T22:14:56.519Z</time>
      </trkpt>
      <trkpt lat="47.550838" lon="7.895509">
        <ele>324.182597</ele>
        <time>2021-11-15T22:14:59.683Z</time>
      </trkpt>
      <trkpt lat="47.550660" lon="7.896255">
        <ele>323.039520</ele>
        <time>2021-11-15T22:15:06.172Z</time>
      </trkpt>
      <trkpt lat="47.550639" lon="7.896345">
        <ele>322.894154</ele>
        <time>2021-11-15T22:15:07.359Z</time>
      </trkpt>
      <trkpt lat="47.550648" lon="7.896481">
        <ele>322.685550</ele>
        <time>2021-11-15T22:15:08.314Z</time>
      </trkpt>
      <trkpt lat="47.550819" lon="7.898109">
        <ele>320.170450</ele>
        <time>2021-11-15T22:15:20.062Z</time>
      </trkpt>
      <trkpt lat="47.550801" lon="7.900244">
        <ele>314.270643</ele>
        <time>2021-11-15T22:15:33.899Z</time>
      </trkpt>
      <trkpt lat="47.550769" lon="7.901362">
        <ele>311.392736</ele>
        <time>2021-11-15T22:15:41.171Z</time>
      </trkpt>
      <trkpt lat="47.550757" lon="7.901591">
        <ele>310.883406</ele>
        <time>2021-11-15T22:15:43.307Z</time>
      </trkpt>
      <trkpt lat="47.550688" lon="7.902451">
        <ele>308.962948</ele>
        <time>2021-11-15T22:15:51.741Z</time>
      </trkpt>
      <trkpt lat="47.550498" lon="7.903445">
        <ele>306.672081</ele>
        <time>2021-11-15T22:16:02.158Z</time>
      </trkpt>
      <trkpt lat="47.550302" lon="7.904164">
        <ele>306.011231</ele>
        <time>2021-11-15T22:16:10.505Z</time>
      </trkpt>
      <trkpt lat="47.550025" lon="7.904774">
        <ele>305.470588</ele>
        <time>2021-11-15T22:16:18.989Z</time>
      </trkpt>
      <trkpt lat="47.549868" lon="7.905010">
        <ele>305.226913</ele>
        <time>2021-11-15T22:16:22.995Z</time>
      </trkpt>
      <trkpt lat="47.549867" lon="7.905155">
        <ele>305.120280</ele>
        <time>2021-11-15T22:16:24.724Z</time>
      </trkpt>
      <trkpt lat="47.549793" lon="7.905202">
        <ele>305.032560</ele>
        <time>2021-11-15T22:16:26.255Z</time>
      </trkpt>
      <trkpt lat="47.549674" lon="7.905336">
        <ele>304.869712</ele>
        <time>2021-11-15T22:16:29.048Z</time>
      </trkpt>
      <trkpt lat="47.549519" lon="7.906378">
        <ele>304.906840</ele>
        <time>2021-11-15T22:16:43.385Z</time>
      </trkpt>
      <trkpt lat="47.549039" lon="7.907742">
        <ele>305.665932</ele>
        <time>2021-11-15T22:17:07.692Z</time>
      </trkpt>
      <trkpt lat="47.548638" lon="7.908599">
        <ele>306.345125</ele>
        <time>2021-11-15T22:17:26.833Z</time>
      </trkpt>
      <trkpt lat="47.548279" lon="7.909060">
        <ele>306.890523</ele>
        <time>2021-11-15T22:17:39.065Z</time>
      </trkpt>
      <trkpt lat="47.548222" lon="7.909154">
        <ele>306.988438</ele>
        <time>2021-11-15T22:17:41.610Z</time>
      </trkpt>
      <trkpt lat="47.547859" lon="7.909845">
        <ele>307.666934</ele>
        <time>2021-11-15T22:17:55.485Z</time>
      </trkpt>
      <trkpt lat="47.547648" lon="7.910267">
        <ele>308.115158</ele>
        <time>2021-11-15T22:18:03.565Z</time>
      </trkpt>
      <trkpt lat="47.547348" lon="7.911011">
        <ele>309.023341</ele>
        <time>2021-11-15T22:18:13.084Z</time>
      </trkpt>
      <trkpt lat="47.546526" lon="7.912513">
        <ele>312.405407</ele>
        <time>2021-11-15T22:18:40.091Z</time>
      </trkpt>
      <trkpt lat="47.546113" lon="7.913536">
        <ele>319.289846</ele>
        <time>2021-11-15T22:19:16.180Z</time>
      </trkpt>
      <trkpt lat="47.546064" lon="7.913662">
        <ele>320.129693</ele>
        <time>2021-11-15T22:19:25.023Z</time>
      </trkpt>
      <trkpt lat="47.545846" lon="7.913439">
        <ele>322.396419</ele>
        <time>2021-11-15T22:19:38.964Z</time>
      </trkpt>
      <trkpt lat="47.545803" lon="7.913417">
        <ele>322.785663</ele>
        <time>2021-11-15T22:19:43.824Z</time>
      </trkpt>
      <trkpt lat="47.545760" lon="7.913396">
        <ele>323.173061</ele>
        <time>2021-11-15T22:19:48.960Z</time>
      </trkpt>
      <trkpt lat="47.545512" lon="7.913459">
        <ele>325.325998</ele>
        <time>2021-11-15T22:20:02.598Z</time>
      </trkpt>
      <trkpt lat="47.545283" lon="7.913975">
        <ele>328.576588</ele>
        <time>2021-11-15T22:20:33.140Z</time>
      </trkpt>
      <trkpt lat="47.544842" lon="7.914607">
        <ele>333.224008</ele>
        <time>2021-11-15T22:21:13.040Z</time>
      </trkpt>
      <trkpt lat="47.544667" lon="7.914777">
        <ele>334.809074</ele>
        <time>2021-11-15T22:21:29.876Z</time>
      </trkpt>
      <trkpt lat="47.544535" lon="7.914938">
        <ele>336.104148</ele>
        <time>2021-11-15T22:21:34.167Z</time>
      </trkpt>
      <trkpt lat="47.544436" lon="7.915136">
        <ele>337.363954</ele>
        <time>2021-11-15T22:21:40.059Z</time>
      </trkpt>
      <trkpt lat="47.544381" lon="7.915381">
        <ele>338.684050</ele>
        <time>2021-11-15T22:21:42.631Z</time>
      </trkpt>
      <trkpt lat="47.544170" lon="7.916929">
        <ele>337.679567</ele>
        <time>2021-11-15T22:21:59.625Z</time>
      </trkpt>
      <trkpt lat="47.544062" lon="7.917335">
        <ele>337.015280</ele>
        <time>2021-11-15T22:22:03.650Z</time>
      </trkpt>
      <trkpt lat="47.544023" lon="7.917429">
        <ele>336.847321</ele>
        <time>2021-11-15T22:22:04.671Z</time>
      </trkpt>
      <trkpt lat="47.543882" lon="7.917804">
        <ele>336.193896</ele>
        <time>2021-11-15T22:22:08.772Z</time>
      </trkpt>
      <trkpt lat="47.543788" lon="7.917949">
        <ele>335.887865</ele>
        <time>2021-11-15T22:22:10.726Z</time>
      </trkpt>
      <trkpt lat="47.543490" lon="7.918167">
        <ele>336.469301</ele>
        <time>2021-11-15T22:22:15.678Z</time>
      </trkpt>
      <trkpt lat="47.543011" lon="7.918178">
        <ele>337.920442</ele>
        <time>2021-11-15T22:22:26.397Z</time>
      </trkpt>
      <trkpt lat="47.542951" lon="7.918203">
        <ele>338.109244</ele>
        <time>2021-11-15T22:22:29.074Z</time>
      </trkpt>
      <trkpt lat="47.542901" lon="7.918253">
        <ele>338.291980</ele>
        <time>2021-11-15T22:22:30.615Z</time>
      </trkpt>
      <trkpt lat="47.542847" lon="7.918520">
        <ele>338.861919</ele>
        <time>2021-11-15T22:22:37.235Z</time>
      </trkpt>
      <trkpt lat="47.542897" lon="7.919138">
        <ele>340.134648</ele>
        <time>2021-11-15T22:22:57.095Z</time>
      </trkpt>
      <trkpt lat="47.542830" lon="7.919388">
        <ele>340.684662</ele>
        <time>2021-11-15T22:23:06.504Z</time>
      </trkpt>
      <trkpt lat="47.542762" lon="7.919488">
        <ele>340.974905</ele>
        <time>2021-11-15T22:23:10.783Z</time>
      </trkpt>
      <trkpt lat="47.542663" lon="7.919567">
        <ele>341.479312</ele>
        <time>2021-11-15T22:23:23.639Z</time>
      </trkpt>
      <trkpt lat="47.542445" lon="7.919627">
        <ele>342.835078</ele>
        <time>2021-11-15T22:23:47.846Z</time>
      </trkpt>
      <trkpt lat="47.541893" lon="7.920117">
        <ele>346.769850</ele>
        <time>2021-11-15T22:24:56.724Z</time>
      </trkpt>
      <trkpt lat="47.541270" lon="7.921054">
        <ele>352.174334</ele>
        <time>2021-11-15T22:26:28.417Z</time>
      </trkpt>
      <trkpt lat="47.540576" lon="7.921805">
        <ele>354.675604</ele>
        <time>2021-11-15T22:27:46.195Z</time>
      </trkpt>
      <trkpt lat="47.540468" lon="7.922009">
        <ele>355.184943</ele>
        <time>2021-11-15T22:28:01.737Z</time>
      </trkpt>
      <trkpt lat="47.540426" lon="7.922257">
        <ele>355.687277</ele>
        <time>2021-11-15T22:28:16.652Z</time>
      </trkpt>
      <trkpt lat="47.540276" lon="7.922517">
        <ele>356.359216</ele>
        <time>2021-11-15T22:28:36.701Z</time>
      </trkpt>
      <trkpt lat="47.539357" lon="7.923066">
        <ele>360.113530</ele>
        <time>2021-11-15T22:30:05.218Z</time>
      </trkpt>
      <trkpt lat="47.538729" lon="7.923323">
        <ele>362.898934</ele>
        <time>2021-11-15T22:31:08.128Z</time>
      </trkpt>
      <trkpt lat="47.538673" lon="7.923346">
        <ele>363.147378</ele>
        <time>2021-11-15T22:31:14.300Z</time>
      </trkpt>
      <trkpt lat="47.538225" lon="7.923716">
        <ele>365.331198</ele>
        <time>2021-11-15T22:32:09.567Z</time>
      </trkpt>
      <trkpt lat="47.537704" lon="7.924286">
        <ele>368.005104</ele>
        <time>2021-11-15T22:33:15.815Z</time>
      </trkpt>
      <trkpt lat="47.537368" lon="7.924418">
        <ele>369.440169</ele>
        <time>2021-11-15T22:33:50.016Z</time>
      </trkpt>
      <trkpt lat="47.537009" lon="7.924729">
        <ele>371.157084</ele>
        <time>2021-11-15T22:34:29.364Z</time>
      </trkpt>
      <trkpt lat="47.536706" lon="7.925193">
        <ele>372.358651</ele>
        <time>2021-11-15T22:34:41.094Z</time>
      </trkpt>
      <trkpt lat="47.536480" lon="7.925533">
        <ele>371.939023</ele>
        <time>2021-11-15T22:34:47.617Z</time>
      </trkpt>
      <trkpt lat="47.535703" lon="7.925981">
        <ele>370.852855</ele>
        <time>2021-11-15T22:35:00.590Z</time>
      </trkpt>
      <trkpt lat="47.535496" lon="7.926292">
        <ele>370.468763</ele>
        <time>2021-11-15T22:35:04.716Z</time>
      </trkpt>
      <trkpt lat="47.535366" lon="7.926580">
        <ele>370.164073</ele>
        <time>2021-11-15T22:35:08.112Z</time>
      </trkpt>
      <trkpt lat="47.535237" lon="7.926835">
        <ele>370.154921</ele>
        <time>2021-11-15T22:35:11.750Z</time>
      </trkpt>
      <trkpt lat="47.534394" lon="7.928043">
        <ele>370.132644</ele>
        <time>2021-11-15T22:35:34.979Z</time>
      </trkpt>
      <trkpt lat="47.534319" lon="7.928138">
        <ele>370.130769</ele>
        <time>2021-11-15T22:35:37.390Z</time>
      </trkpt>
      <trkpt lat="47.534250" lon="7.928183">
        <ele>370.129337</ele>
        <time>2021-11-15T22:35:39.548Z</time>
      </trkpt>
      <trkpt lat="47.534226" lon="7.928203">
        <ele>370.128814</ele>
        <time>2021-11-15T22:35:40.470Z</time>
      </trkpt>
      <trkpt lat="47.534168" lon="7.928273">
        <ele>370.127394</ele>
        <time>2021-11-15T22:35:43.003Z</time>
      </trkpt>
      <trkpt lat="47.533454" lon="7.928933">
        <ele>371.322605</ele>
        <time>2021-11-15T22:36:07.121Z</time>
      </trkpt>
      <trkpt lat="47.533316" lon="7.929060">
        <ele>371.599215</ele>
        <time>2021-11-15T22:36:10.292Z</time>
      </trkpt>
      <trkpt lat="47.532796" lon="7.929524">
        <ele>372.632786</ele>
        <time>2021-11-15T22:36:23.161Z</time>
      </trkpt>
      <trkpt lat="47.532584" lon="7.929704">
        <ele>373.048824</ele>
        <time>2021-11-15T22:36:30.132Z</time>
      </trkpt>
      <trkpt lat="47.532610" lon="7.929877">
        <ele>373.191779</ele>
        <time>2021-11-15T22:36:31.379Z</time>
      </trkpt>
      <trkpt lat="47.532726" lon="7.930299">
        <ele>373.229750</ele>
        <time>2021-11-15T22:36:38.707Z</time>
      </trkpt>
      <trkpt lat="47.532726" lon="7.930392">
        <ele>373.237500</ele>
        <time>2021-11-15T22:36:39.302Z</time>
      </trkpt>
      <trkpt lat="47.532599" lon="7.930581">
        <ele>373.259722</ele>
        <time>2021-11-15T22:36:44.401Z</time>
      </trkpt>
      <trkpt lat="47.532261" lon="7.931393">
        <ele>373.339218</ele>
        <time>2021-11-15T22:36:52.578Z</time>
      </trkpt>
      <trkpt lat="47.532237" lon="7.931571">
        <ele>373.354345</ele>
        <time>2021-11-15T22:36:55.512Z</time>
      </trkpt>
      <trkpt lat="47.532170" lon="7.931998">
        <ele>373.390879</ele>
        <time>2021-11-15T22:36:58.804Z</time>
      </trkpt>
      <trkpt lat="47.531984" lon="7.932581">
        <ele>373.359627</ele>
        <time>2021-11-15T22:37:04.510Z</time>
      </trkpt>
      <trkpt lat="47.531985" lon="7.932692">
        <ele>373.346780</ele>
        <time>2021-11-15T22:37:05.379Z</time>
      </trkpt>
      <trkpt lat="47.531984" lon="7.932824">
        <ele>373.331503</ele>
        <time>2021-11-15T22:37:06.531Z</time>
      </trkpt>
      <trkpt lat="47.531931" lon="7.933297">
        <ele>373.276015</ele>
        <time>2021-11-15T22:37:11.279Z</time>
      </trkpt>
      <trkpt lat="47.531622" lon="7.934065">
        <ele>373.172551</ele>
        <time>2021-11-15T22:37:20.423Z</time>
      </trkpt>
      <trkpt lat="47.531503" lon="7.934360">
        <ele>373.132782</ele>
        <time>2021-11-15T22:37:23.692Z</time>
      </trkpt>
      <trkpt lat="47.531505" lon="7.934420">
        <ele>373.125830</ele>
        <time>2021-11-15T22:37:24.373Z</time>
      </trkpt>
      <trkpt lat="47.531519" lon="7.934461">
        <ele>373.120512</ele>
        <time>2021-11-15T22:37:24.817Z</time>
      </trkpt>
      <trkpt lat="47.531561" lon="7.934562">
        <ele>373.106785</ele>
        <time>2021-11-15T22:37:25.824Z</time>
      </trkpt>
      <trkpt lat="47.531638" lon="7.934766">
        <ele>373.219827</ele>
        <time>2021-11-15T22:37:28.053Z</time>
      </trkpt>
      <trkpt lat="47.531548" lon="7.934833">
        <ele>373.317719</ele>
        <time>2021-11-15T22:37:29.745Z</time>
      </trkpt>
      <trkpt lat="47.531129" lon="7.935142">
        <ele>373.772600</ele>
        <time>2021-11-15T22:37:37.786Z</time>
      </trkpt>
      <trkpt lat="47.530759" lon="7.935410">
        <ele>374.172873</ele>
        <time>2021-11-15T22:37:45.806Z</time>
      </trkpt>
      <trkpt lat="47.530404" lon="7.935710">
        <ele>374.570081</ele>
        <time>2021-11-15T22:37:54.303Z</time>
      </trkpt>
      <trkpt lat="47.530062" lon="7.936223">
        <ele>375.166299</ele>
        <time>2021-11-15T22:38:04.762Z</time>
      </trkpt>
      <trkpt lat="47.530009" lon="7.936303">
        <ele>375.286431</ele>
        <time>2021-11-15T22:38:06.595Z</time>
      </trkpt>
      <trkpt lat="47.529827" lon="7.936525">
        <ele>375.660725</ele>
        <time>2021-11-15T22:38:11.398Z</time>
      </trkpt>
      <trkpt lat="47.529626" lon="7.936730">
        <ele>376.048145</ele>
        <time>2021-11-15T22:38:16.343Z</time>
      </trkpt>
      <trkpt lat="47.529468" lon="7.936891">
        <ele>376.352597</ele>
        <time>2021-11-15T22:38:19.949Z</time>
      </trkpt>
      <trkpt lat="47.529273" lon="7.937297">
        <ele>376.886644</ele>
        <time>2021-11-15T22:38:26.435Z</time>
      </trkpt>
      <trkpt lat="47.529185" lon="7.937741">
        <ele>377.382637</ele>
        <time>2021-11-15T22:38:32.939Z</time>
      </trkpt>
      <trkpt lat="47.529106" lon="7.937991">
        <ele>377.678501</ele>
        <time>2021-11-15T22:38:37.724Z</time>
      </trkpt>
      <trkpt lat="47.528958" lon="7.938333">
        <ele>378.422177</ele>
        <time>2021-11-15T22:38:44.391Z</time>
      </trkpt>
      <trkpt lat="47.528822" lon="7.938652">
        <ele>379.130663</ele>
        <time>2021-11-15T22:38:50.444Z</time>
      </trkpt>
      <trkpt lat="47.528658" lon="7.939111">
        <ele>380.105886</ele>
        <time>2021-11-15T22:38:59.712Z</time>
      </trkpt>
      <trkpt lat="47.528467" lon="7.939644">
        <ele>381.239067</ele>
        <time>2021-11-15T22:39:10.784Z</time>
      </trkpt>
      <trkpt lat="47.528286" lon="7.940193">
        <ele>382.386406</ele>
        <time>2021-11-15T22:39:22.109Z</time>
      </trkpt>
      <trkpt lat="47.528232" lon="7.940349">
        <ele>382.718147</ele>
        <time>2021-11-15T22:39:25.199Z</time>
      </trkpt>
      <trkpt lat="47.528193" lon="7.940482">
        <ele>383.065423</ele>
        <time>2021-11-15T22:39:27.719Z</time>
      </trkpt>
      <trkpt lat="47.528074" lon="7.940914">
        <ele>384.182855</ele>
        <time>2021-11-15T22:39:36.766Z</time>
      </trkpt>
      <trkpt lat="47.527738" lon="7.942144">
        <ele>387.360679</ele>
        <time>2021-11-15T22:40:03.100Z</time>
      </trkpt>
      <trkpt lat="47.527562" lon="7.942799">
        <ele>389.049077</ele>
        <time>2021-11-15T22:40:16.640Z</time>
      </trkpt>
      <trkpt lat="47.527379" lon="7.943358">
        <ele>391.164585</ele>
        <time>2021-11-15T22:40:29.003Z</time>
      </trkpt>
      <trkpt lat="47.527098" lon="7.943983">
        <ele>393.740966</ele>
        <time>2021-11-15T22:40:47.332Z</time>
      </trkpt>
      <trkpt lat="47.526465" lon="7.944912">
        <ele>398.268373</ele>
        <time>2021-11-15T22:41:21.244Z</time>
      </trkpt>
      <trkpt lat="47.526210" lon="7.945167">
        <ele>399.793394</ele>
        <time>2021-11-15T22:41:33.012Z</time>
      </trkpt>
      <trkpt lat="47.526080" lon="7.945282">
        <ele>400.543916</ele>
        <time>2021-11-15T22:41:38.669Z</time>
      </trkpt>
      <trkpt lat="47.525932" lon="7.945400">
        <ele>401.377006</ele>
        <time>2021-11-15T22:41:44.717Z</time>
      </trkpt>
      <trkpt lat="47.525755" lon="7.945530">
        <ele>402.356241</ele>
        <time>2021-11-15T22:41:52.007Z</time>
      </trkpt>
      <trkpt lat="47.525003" lon="7.946035">
        <ele>406.448713</ele>
        <time>2021-11-15T22:42:20.383Z</time>
      </trkpt>
      <trkpt lat="47.524540" lon="7.946546">
        <ele>408.643590</ele>
        <time>2021-11-15T22:42:36.825Z</time>
      </trkpt>
      <trkpt lat="47.524015" lon="7.947474">
        <ele>411.449876</ele>
        <time>2021-11-15T22:42:56.939Z</time>
      </trkpt>
      <trkpt lat="47.522871" lon="7.949842">
        <ele>419.775970</ele>
        <time>2021-11-15T22:43:59.996Z</time>
      </trkpt>
      <trkpt lat="47.522583" lon="7.950558">
        <ele>422.353007</ele>
        <time>2021-11-15T22:44:18.501Z</time>
      </trkpt>
      <trkpt lat="47.522551" lon="7.950637">
        <ele>422.642641</ele>
        <time>2021-11-15T22:44:23.877Z</time>
      </trkpt>
      <trkpt lat="47.522166" lon="7.951598">
        <ele>426.155747</ele>
        <time>2021-11-15T22:44:50.090Z</time>
      </trkpt>
      <trkpt lat="47.521947" lon="7.952039">
        <ele>427.876813</ele>
        <time>2021-11-15T22:45:02.770Z</time>
      </trkpt>
      <trkpt lat="47.521866" lon="7.952202">
        <ele>428.513095</ele>
        <time>2021-11-15T22:45:06.003Z</time>
      </trkpt>
      <trkpt lat="47.520960" lon="7.953410">
        <ele>433.745627</ele>
        <time>2021-11-15T22:45:40.663Z</time>
      </trkpt>
      <trkpt lat="47.520196" lon="7.954168">
        <ele>437.567723</ele>
        <time>2021-11-15T22:46:12.441Z</time>
      </trkpt>
      <trkpt lat="47.519633" lon="7.954614">
        <ele>439.973801</ele>
        <time>2021-11-15T22:46:34.631Z</time>
      </trkpt>
      <trkpt lat="47.519421" lon="7.954816">
        <ele>440.923784</ele>
        <time>2021-11-15T22:46:43.541Z</time>
      </trkpt>
      <trkpt lat="47.518957" lon="7.955430">
        <ele>443.268740</ele>
        <time>2021-11-15T22:47:02.240Z</time>
      </trkpt>
      <trkpt lat="47.518757" lon="7.955695">
        <ele>444.141927</ele>
        <time>2021-11-15T22:47:08.263Z</time>
      </trkpt>
      <trkpt lat="47.518060" lon="7.957077">
        <ele>443.835756</ele>
        <time>2021-11-15T22:47:24.036Z</time>
      </trkpt>
      <trkpt lat="47.517852" lon="7.957582">
        <ele>443.730758</ele>
        <time>2021-11-15T22:47:28.621Z</time>
      </trkpt>
      <trkpt lat="47.517628" lon="7.958176">
        <ele>443.594567</ele>
        <time>2021-11-15T22:47:34.020Z</time>
      </trkpt>
      <trkpt lat="47.517484" lon="7.958473">
        <ele>443.514985</ele>
        <time>2021-11-15T22:47:36.934Z</time>
      </trkpt>
      <trkpt lat="47.517422" lon="7.958602">
        <ele>443.480521</ele>
        <time>2021-11-15T22:47:38.266Z</time>
      </trkpt>
      <trkpt lat="47.516682" lon="7.959949">
        <ele>443.102565</ele>
        <time>2021-11-15T22:47:55.351Z</time>
      </trkpt>
      <trkpt lat="47.516286" lon="7.960801">
        <ele>444.178494</ele>
        <time>2021-11-15T22:48:08.945Z</time>
      </trkpt>
      <trkpt lat="47.515417" lon="7.961931">
        <ele>445.994578</ele>
        <time>2021-11-15T22:48:36.902Z</time>
      </trkpt>
      <trkpt lat="47.515199" lon="7.962207">
        <ele>446.412773</ele>
        <time>2021-11-15T22:48:41.377Z</time>
      </trkpt>
      <trkpt lat="47.515187" lon="7.962222">
        <ele>446.435670</ele>
        <time>2021-11-15T22:48:43.033Z</time>
      </trkpt>
      <trkpt lat="47.514883" lon="7.962671">
        <ele>447.061718</ele>
        <time>2021-11-15T22:48:50.951Z</time>
      </trkpt>
      <trkpt lat="47.514842" lon="7.962822">
        <ele>447.221976</ele>
        <time>2021-11-15T22:48:52.348Z</time>
      </trkpt>
      <trkpt lat="47.514838" lon="7.962840">
        <ele>447.240636</ele>
        <time>2021-11-15T22:48:52.488Z</time>
      </trkpt>
      <trkpt lat="47.514838" lon="7.963162">
        <ele>447.557716</ele>
        <time>2021-11-15T22:48:57.781Z</time>
      </trkpt>
      <trkpt lat="47.514830" lon="7.963311">
        <ele>447.704902</ele>
        <time>2021-11-15T22:48:59.432Z</time>
      </trkpt>
      <trkpt lat="47.514809" lon="7.963450">
        <ele>447.845161</ele>
        <time>2021-11-15T22:49:00.734Z</time>
      </trkpt>
      <trkpt lat="47.514722" lon="7.963775">
        <ele>448.189416</ele>
        <time>2021-11-15T22:49:07.052Z</time>
      </trkpt>
      <trkpt lat="47.514703" lon="7.963873">
        <ele>448.289816</ele>
        <time>2021-11-15T22:49:07.921Z</time>
      </trkpt>
      <trkpt lat="47.514699" lon="7.963986">
        <ele>448.401243</ele>
        <time>2021-11-15T22:49:09.272Z</time>
      </trkpt>
      <trkpt lat="47.514665" lon="7.964238">
        <ele>448.727550</ele>
        <time>2021-11-15T22:49:14.598Z</time>
      </trkpt>
      <trkpt lat="47.514616" lon="7.964407">
        <ele>449.039818</ele>
        <time>2021-11-15T22:49:16.522Z</time>
      </trkpt>
      <trkpt lat="47.514429" lon="7.964841">
        <ele>449.913891</ele>
        <time>2021-11-15T22:49:23.650Z</time>
      </trkpt>
      <trkpt lat="47.514345" lon="7.964927">
        <ele>450.170628</ele>
        <time>2021-11-15T22:49:25.573Z</time>
      </trkpt>
      <trkpt lat="47.514266" lon="7.964968">
        <ele>450.381075</ele>
        <time>2021-11-15T22:49:27.559Z</time>
      </trkpt>
      <trkpt lat="47.514153" lon="7.964997">
        <ele>450.669383</ele>
        <time>2021-11-15T22:49:30.476Z</time>
      </trkpt>
      <trkpt lat="47.513988" lon="7.964994">
        <ele>451.084210</ele>
        <time>2021-11-15T22:49:33.917Z</time>
      </trkpt>
      <trkpt lat="47.513857" lon="7.965014">
        <ele>451.415278</ele>
        <time>2021-11-15T22:49:37.448Z</time>
      </trkpt>
      <trkpt lat="47.513799" lon="7.965061">
        <ele>451.581496</ele>
        <time>2021-11-15T22:49:39.263Z</time>
      </trkpt>
      <trkpt lat="47.513691" lon="7.965208">
        <ele>451.950293</ele>
        <time>2021-11-15T22:49:42.683Z</time>
      </trkpt>
      <trkpt lat="47.513617" lon="7.965308">
        <ele>452.202160</ele>
        <time>2021-11-15T22:49:45.270Z</time>
      </trkpt>
      <trkpt lat="47.513496" lon="7.965435">
        <ele>452.575023</ele>
        <time>2021-11-15T22:49:49.381Z</time>
      </trkpt>
      <trkpt lat="47.513552" lon="7.965694">
        <ele>453.036773</ele>
        <time>2021-11-15T22:49:54.702Z</time>
      </trkpt>
      <trkpt lat="47.513574" lon="7.965795">
        <ele>453.378432</ele>
        <time>2021-11-15T22:49:57.229Z</time>
      </trkpt>
      <trkpt lat="47.513607" lon="7.966067">
        <ele>454.380557</ele>
        <time>2021-11-15T22:50:03.014Z</time>
      </trkpt>
      <trkpt lat="47.513677" lon="7.966493">
        <ele>455.970395</ele>
        <time>2021-11-15T22:50:13.281Z</time>
      </trkpt>
      <trkpt lat="47.513719" lon="7.966609">
        <ele>456.447667</ele>
        <time>2021-11-15T22:50:16.958Z</time>
      </trkpt>
      <trkpt lat="47.513963" lon="7.966968">
        <ele>458.294518</ele>
        <time>2021-11-15T22:50:30.020Z</time>
      </trkpt>
      <trkpt lat="47.514175" lon="7.967361">
        <ele>460.118369</ele>
        <time>2021-11-15T22:50:42.186Z</time>
      </trkpt>
      <trkpt lat="47.514265" lon="7.967596">
        <ele>461.097989</ele>
        <time>2021-11-15T22:50:48.809Z</time>
      </trkpt>
      <trkpt lat="47.514516" lon="7.968208">
        <ele>464.253240</ele>
        <time>2021-11-15T22:51:07.155Z</time>
      </trkpt>
      <trkpt lat="47.514581" lon="7.968390">
        <ele>465.433172</ele>
        <time>2021-11-15T22:51:14.484Z</time>
      </trkpt>
      <trkpt lat="47.514762" lon="7.968835">
        <ele>468.410320</ele>
        <time>2021-11-15T22:51:31.162Z</time>
      </trkpt>
      <trkpt lat="47.515012" lon="7.969232">
        <ele>471.521143</ele>
        <time>2021-11-15T22:51:49.612Z</time>
      </trkpt>
      <trkpt lat="47.515227" lon="7.969425">
        <ele>473.654670</ele>
        <time>2021-11-15T22:52:02.372Z</time>
      </trkpt>
      <trkpt lat="47.515307" lon="7.969493">
        <ele>474.437430</ele>
        <time>2021-11-15T22:52:07.741Z</time>
      </trkpt>
      <trkpt lat="47.515780" lon="7.969896">
        <ele>478.960949</ele>
        <time>2021-11-15T22:52:36.985Z</time>
      </trkpt>
      <trkpt lat="47.516258" lon="7.970425">
        <ele>483.519187</ele>
        <time>2021-11-15T22:53:08.045Z</time>
      </trkpt>
      <trkpt lat="47.516475" lon="7.970786">
        <ele>486.012257</ele>
        <time>2021-11-15T22:53:25.737Z</time>
      </trkpt>
      <trkpt lat="47.516639" lon="7.971156">
        <ele>488.295313</ele>
        <time>2021-11-15T22:53:40.570Z</time>
      </trkpt>
      <trkpt lat="47.516849" lon="7.971986">
        <ele>491.288622</ele>
        <time>2021-11-15T22:54:01.927Z</time>
      </trkpt>
      <trkpt lat="47.517017" lon="7.972944">
        <ele>489.291747</ele>
        <time>2021-11-15T22:54:09.676Z</time>
      </trkpt>
      <trkpt lat="47.517070" lon="7.973149">
        <ele>488.848888</ele>
        <time>2021-11-15T22:54:11.100Z</time>
      </trkpt>
      <trkpt lat="47.517191" lon="7.973538">
        <ele>487.984839</ele>
        <time>2021-11-15T22:54:13.891Z</time>
      </trkpt>
      <trkpt lat="47.517208" lon="7.973572">
        <ele>487.899491</ele>
        <time>2021-11-15T22:54:14.134Z</time>
      </trkpt>
      <trkpt lat="47.517263" lon="7.973683">
        <ele>487.621741</ele>
        <time>2021-11-15T22:54:14.968Z</time>
      </trkpt>
      <trkpt lat="47.517422" lon="7.973976">
        <ele>486.863431</ele>
        <time>2021-11-15T22:54:17.296Z</time>
      </trkpt>
      <trkpt lat="47.517539" lon="7.974133">
        <ele>486.391747</ele>
        <time>2021-11-15T22:54:18.690Z</time>
      </trkpt>
      <trkpt lat="47.517601" lon="7.974216">
        <ele>485.698537</ele>
        <time>2021-11-15T22:54:19.417Z</time>
      </trkpt>
      <trkpt lat="47.517803" lon="7.974479">
        <ele>483.256057</ele>
        <time>2021-11-15T22:54:21.765Z</time>
      </trkpt>
      <trkpt lat="47.517897" lon="7.974601">
        <ele>482.121021</ele>
        <time>2021-11-15T22:54:22.829Z</time>
      </trkpt>
      <trkpt lat="47.518511" lon="7.975376">
        <ele>474.794887</ele>
        <time>2021-11-15T22:54:29.741Z</time>
      </trkpt>
      <trkpt lat="47.518771" lon="7.975833">
        <ele>471.130476</ele>
        <time>2021-11-15T22:54:33.254Z</time>
      </trkpt>
      <trkpt lat="47.518954" lon="7.976318">
        <ele>468.558585</ele>
        <time>2021-11-15T22:54:36.595Z</time>
      </trkpt>
      <trkpt lat="47.519021" lon="7.976610">
        <ele>467.352933</ele>
        <time>2021-11-15T22:54:38.512Z</time>
      </trkpt>
      <trkpt lat="47.519068" lon="7.976937">
        <ele>466.045906</ele>
        <time>2021-11-15T22:54:40.601Z</time>
      </trkpt>
      <trkpt lat="47.519130" lon="7.977741">
        <ele>462.882277</ele>
        <time>2021-11-15T22:54:45.611Z</time>
      </trkpt>
      <trkpt lat="47.519217" lon="7.979377">
        <ele>459.144048</ele>
        <time>2021-11-15T22:54:56.403Z</time>
      </trkpt>
      <trkpt lat="47.519262" lon="7.980038">
        <ele>458.755445</ele>
        <time>2021-11-15T22:55:01.618Z</time>
      </trkpt>
      <trkpt lat="47.518938" lon="7.980093">
        <ele>458.472979</ele>
        <time>2021-11-15T22:55:38.071Z</time>
      </trkpt>
      <trkpt lat="47.518298" lon="7.980206">
        <ele>458.761179</ele>
        <time>2021-11-15T22:56:54.881Z</time>
      </trkpt>
      <trkpt lat="47.517633" lon="7.980418">
        <ele>461.670713</ele>
        <time>2021-11-15T22:58:22.410Z</time>
      </trkpt>
      <trkpt lat="47.517255" lon="7.980642">
        <ele>463.412181</ele>
        <time>2021-11-15T22:59:17.322Z</time>
      </trkpt>
      <trkpt lat="47.516970" lon="7.981153">
        <ele>465.326586</ele>
        <time>2021-11-15T23:00:16.921Z</time>
      </trkpt>
      <trkpt lat="47.516666" lon="7.982302">
        <ele>468.095396</ele>
        <time>2021-11-15T23:02:01.668Z</time>
      </trkpt>
      <trkpt lat="47.516360" lon="7.983035">
        <ele>469.953873</ele>
        <time>2021-11-15T23:03:12.821Z</time>
      </trkpt>
      <trkpt lat="47.516251" lon="7.983296">
        <ele>470.615696</ele>
        <time>2021-11-15T23:03:37.248Z</time>
      </trkpt>
      <trkpt lat="47.516036" lon="7.983707">
        <ele>471.583172</ele>
        <time>2021-11-15T23:04:19.053Z</time>
      </trkpt>
      <trkpt lat="47.515459" lon="7.984619">
        <ele>472.571881</ele>
        <time>2021-11-15T23:06:04.220Z</time>
      </trkpt>
      <trkpt lat="47.515212" lon="7.985092">
        <ele>473.044931</ele>
        <time>2021-11-15T23:06:49.030Z</time>
      </trkpt>
      <trkpt lat="47.515029" lon="7.985591">
        <ele>473.494189</ele>
        <time>2021-11-15T23:07:30.947Z</time>
      </trkpt>
      <trkpt lat="47.514984" lon="7.985795">
        <ele>473.338576</ele>
        <time>2021-11-15T23:07:47.874Z</time>
      </trkpt>
      <trkpt lat="47.514955" lon="7.985985">
        <ele>472.694560</ele>
        <time>2021-11-15T23:08:01.448Z</time>
      </trkpt>
      <trkpt lat="47.514922" lon="7.986199">
        <ele>471.968828</ele>
        <time>2021-11-15T23:08:16.420Z</time>
      </trkpt>
      <trkpt lat="47.514895" lon="7.986454">
        <ele>471.115452</ele>
        <time>2021-11-15T23:08:34.941Z</time>
      </trkpt>
      <trkpt lat="47.515286" lon="7.986787">
        <ele>468.907388</ele>
        <time>2021-11-15T23:09:18.744Z</time>
      </trkpt>
      <trkpt lat="47.516043" lon="7.987468">
        <ele>464.463938</ele>
        <time>2021-11-15T23:10:41.156Z</time>
      </trkpt>
      <trkpt lat="47.516345" lon="7.987828">
        <ele>461.660172</ele>
        <time>2021-11-15T23:11:15.371Z</time>
      </trkpt>
      <trkpt lat="47.516750" lon="7.989123">
        <ele>454.690130</ele>
        <time>2021-11-15T23:12:44.907Z</time>
      </trkpt>
      <trkpt lat="47.516898" lon="7.989617">
        <ele>452.050689</ele>
        <time>2021-11-15T23:13:18.945Z</time>
      </trkpt>
      <trkpt lat="47.517356" lon="7.990419">
        <ele>449.389916</ele>
        <time>2021-11-15T23:14:25.545Z</time>
      </trkpt>
      <trkpt lat="47.517519" lon="7.990545">
        <ele>448.734518</ele>
        <time>2021-11-15T23:14:42.925Z</time>
      </trkpt>
      <trkpt lat="47.517593" lon="7.990690">
        <ele>448.297019</ele>
        <time>2021-11-15T23:14:55.644Z</time>
      </trkpt>
      <trkpt lat="47.517593" lon="7.990870">
        <ele>447.863718</ele>
        <time>2021-11-15T23:15:08.486Z</time>
      </trkpt>
      <trkpt lat="47.517464" lon="7.991086">
        <ele>447.169616</ele>
        <time>2021-11-15T23:15:27.702Z</time>
      </trkpt>
      <trkpt lat="47.517341" lon="7.991184">
        <ele>446.671760</ele>
        <time>2021-11-15T23:15:44.047Z</time>
      </trkpt>
      <trkpt lat="47.517258" lon="7.991214">
        <ele>446.367232</ele>
        <time>2021-11-15T23:15:52.011Z</time>
      </trkpt>
      <trkpt lat="47.517167" lon="7.991185">
        <ele>446.035449</ele>
        <time>2021-11-15T23:16:01.982Z</time>
      </trkpt>
      <trkpt lat="47.516589" lon="7.990525">
        <ele>447.252233</ele>
        <time>2021-11-15T23:17:26.378Z</time>
      </trkpt>
      <trkpt lat="47.516178" lon="7.990219">
        <ele>448.832192</ele>
        <time>2021-11-15T23:18:25.451Z</time>
      </trkpt>
      <trkpt lat="47.516017" lon="7.990191">
        <ele>449.388938</ele>
        <time>2021-11-15T23:18:46.699Z</time>
      </trkpt>
      <trkpt lat="47.515875" lon="7.990250">
        <ele>449.895466</ele>
        <time>2021-11-15T23:19:06.249Z</time>
      </trkpt>
      <trkpt lat="47.515515" lon="7.990682">
        <ele>451.486942</ele>
        <time>2021-11-15T23:20:08.862Z</time>
      </trkpt>
      <trkpt lat="47.515449" lon="7.990902">
        <ele>451.656378</ele>
        <time>2021-11-15T23:20:32.183Z</time>
      </trkpt>
      <trkpt lat="47.515409" lon="7.991061">
        <ele>451.737257</ele>
        <time>2021-11-15T23:20:45.724Z</time>
      </trkpt>
      <trkpt lat="47.515400" lon="7.991097">
        <ele>451.755555</ele>
        <time>2021-11-15T23:20:49.307Z</time>
      </trkpt>
      <trkpt lat="47.515370" lon="7.991325">
        <ele>451.866281</ele>
        <time>2021-11-15T23:21:10.562Z</time>
      </trkpt>
      <trkpt lat="47.515415" lon="7.992607">
        <ele>452.478209</ele>
        <time>2021-11-15T23:22:51.538Z</time>
      </trkpt>
      <trkpt lat="47.515469" lon="7.993541">
        <ele>451.745709</ele>
        <time>2021-11-15T23:23:54.756Z</time>
      </trkpt>
      <trkpt lat="47.515448" lon="7.993885">
        <ele>449.965358</ele>
        <time>2021-11-15T23:24:16.417Z</time>
      </trkpt>
      <trkpt lat="47.515413" lon="7.994077">
        <ele>448.940293</ele>
        <time>2021-11-15T23:24:28.342Z</time>
      </trkpt>
      <trkpt lat="47.515316" lon="7.994599">
        <ele>446.149696</ele>
        <time>2021-11-15T23:25:01.722Z</time>
      </trkpt>
      <trkpt lat="47.515206" lon="7.995085">
        <ele>443.507712</ele>
        <time>2021-11-15T23:25:33.077Z</time>
      </trkpt>
      <trkpt lat="47.514973" lon="7.996922">
        <ele>433.540543</ele>
        <time>2021-11-15T23:27:25.765Z</time>
      </trkpt>
      <trkpt lat="47.514781" lon="7.998695">
        <ele>423.630925</ele>
        <time>2021-11-15T23:29:17.708Z</time>
      </trkpt>
      <trkpt lat="47.514738" lon="7.999392">
        <ele>419.485725</ele>
        <time>2021-11-15T23:30:00.884Z</time>
      </trkpt>
      <trkpt lat="47.514683" lon="8.000037">
        <ele>415.635354</ele>
        <time>2021-11-15T23:30:40.585Z</time>
      </trkpt>
      <trkpt lat="47.514673" lon="8.000158">
        <ele>414.913380</ele>
        <time>2021-11-15T23:30:41.304Z</time>
      </trkpt>
      <trkpt lat="47.514576" lon="8.000620">
        <ele>412.047998</ele>
        <time>2021-11-15T23:30:44.160Z</time>
      </trkpt>
      <trkpt lat="47.514433" lon="8.001203">
        <ele>408.259749</ele>
        <time>2021-11-15T23:30:47.792Z</time>
      </trkpt>
      <trkpt lat="47.513550" lon="8.003552">
        <ele>387.252664</ele>
        <time>2021-11-15T23:31:03.130Z</time>
      </trkpt>
      <trkpt lat="47.513494" lon="8.003809">
        <ele>385.544281</ele>
        <time>2021-11-15T23:31:04.689Z</time>
      </trkpt>
      <trkpt lat="47.513498" lon="8.004311">
        <ele>382.368239</ele>
        <time>2021-11-15T23:31:07.588Z</time>
      </trkpt>
      <trkpt lat="47.513517" lon="8.004618">
        <ele>380.417917</ele>
        <time>2021-11-15T23:31:09.362Z</time>
      </trkpt>
      <trkpt lat="47.513524" lon="8.004767">
        <ele>379.473016</ele>
        <time>2021-11-15T23:31:10.251Z</time>
      </trkpt>
      <trkpt lat="47.513490" lon="8.005323">
        <ele>375.941186</ele>
        <time>2021-11-15T23:31:13.539Z</time>
      </trkpt>
      <trkpt lat="47.513479" lon="8.005500">
        <ele>374.816694</ele>
        <time>2021-11-15T23:31:14.596Z</time>
      </trkpt>
      <trkpt lat="47.513451" lon="8.005822">
        <ele>372.762800</ele>
        <time>2021-11-15T23:31:16.529Z</time>
      </trkpt>
      <trkpt lat="47.513441" lon="8.005940">
        <ele>372.010438</ele>
        <time>2021-11-15T23:31:17.264Z</time>
      </trkpt>
      <trkpt lat="47.513416" lon="8.006220">
        <ele>370.572436</ele>
        <time>2021-11-15T23:31:18.935Z</time>
      </trkpt>
      <trkpt lat="47.513389" lon="8.006500">
        <ele>369.654835</ele>
        <time>2021-11-15T23:31:21.488Z</time>
      </trkpt>
      <trkpt lat="47.513377" lon="8.006578">
        <ele>369.395302</ele>
        <time>2021-11-15T23:31:22.169Z</time>
      </trkpt>
      <trkpt lat="47.513362" lon="8.006677">
        <ele>369.066139</ele>
        <time>2021-11-15T23:31:23.019Z</time>
      </trkpt>
      <trkpt lat="47.513310" lon="8.006950">
        <ele>368.145912</ele>
        <time>2021-11-15T23:31:25.646Z</time>
      </trkpt>
      <trkpt lat="47.513272" lon="8.007082">
        <ele>367.680394</ele>
        <time>2021-11-15T23:31:27.002Z</time>
      </trkpt>
      <trkpt lat="47.513249" lon="8.007164">
        <ele>367.392337</ele>
        <time>2021-11-15T23:31:27.794Z</time>
      </trkpt>
      <trkpt lat="47.513144" lon="8.007518">
        <ele>366.138005</ele>
        <time>2021-11-15T23:31:31.557Z</time>
      </trkpt>
      <trkpt lat="47.513019" lon="8.007827">
        <ele>364.969475</ele>
        <time>2021-11-15T23:31:34.933Z</time>
      </trkpt>
      <trkpt lat="47.511743" lon="8.011016">
        <ele>356.595830</ele>
        <time>2021-11-15T23:32:10.931Z</time>
      </trkpt>
      <trkpt lat="47.511725" lon="8.011067">
        <ele>356.600021</ele>
        <time>2021-11-15T23:32:11.352Z</time>
      </trkpt>
      <trkpt lat="47.511369" lon="8.012112">
        <ele>356.685262</ele>
        <time>2021-11-15T23:32:23.551Z</time>
      </trkpt>
      <trkpt lat="47.511339" lon="8.012189">
        <ele>356.691737</ele>
        <time>2021-11-15T23:32:24.693Z</time>
      </trkpt>
      <trkpt lat="47.511240" lon="8.012453">
        <ele>356.713729</ele>
        <time>2021-11-15T23:32:29.051Z</time>
      </trkpt>
      <trkpt lat="47.511153" lon="8.012630">
        <ele>356.729672</ele>
        <time>2021-11-15T23:32:31.556Z</time>
      </trkpt>
      <trkpt lat="47.511060" lon="8.012793">
        <ele>356.745212</ele>
        <time>2021-11-15T23:32:35.054Z</time>
      </trkpt>
      <trkpt lat="47.510610" lon="8.013245">
        <ele>356.847592</ele>
        <time>2021-11-15T23:32:46.167Z</time>
      </trkpt>
      <trkpt lat="47.510195" lon="8.013657">
        <ele>356.979622</ele>
        <time>2021-11-15T23:32:56.336Z</time>
      </trkpt>
      <trkpt lat="47.510139" lon="8.013722">
        <ele>356.998425</ele>
        <time>2021-11-15T23:32:57.805Z</time>
      </trkpt>
      <trkpt lat="47.510028" lon="8.013857">
        <ele>357.036383</ele>
        <time>2021-11-15T23:32:59.751Z</time>
      </trkpt>
      <trkpt lat="47.509928" lon="8.014411">
        <ele>357.138731</ele>
        <time>2021-11-15T23:33:05.637Z</time>
      </trkpt>
      <trkpt lat="47.509891" lon="8.014585">
        <ele>357.171289</ele>
        <time>2021-11-15T23:33:07.351Z</time>
      </trkpt>
      <trkpt lat="47.509823" lon="8.014904">
        <ele>357.230992</ele>
        <time>2021-11-15T23:33:09.910Z</time>
      </trkpt>
      <trkpt lat="47.509799" lon="8.014989">
        <ele>357.247435</ele>
        <time>2021-11-15T23:33:10.693Z</time>
      </trkpt>
      <trkpt lat="47.509686" lon="8.015069">
        <ele>357.101160</ele>
        <time>2021-11-15T23:33:12.174Z</time>
      </trkpt>
      <trkpt lat="47.509612" lon="8.015079">
        <ele>357.009261</ele>
        <time>2021-11-15T23:33:12.961Z</time>
      </trkpt>
      <trkpt lat="47.509546" lon="8.015060">
        <ele>356.926107</ele>
        <time>2021-11-15T23:33:13.663Z</time>
      </trkpt>
      <trkpt lat="47.509444" lon="8.014982">
        <ele>356.784125</ele>
        <time>2021-11-15T23:33:15.041Z</time>
      </trkpt>
      <trkpt lat="47.509142" lon="8.014737">
        <ele>356.358228</ele>
        <time>2021-11-15T23:33:18.865Z</time>
      </trkpt>
      <trkpt lat="47.508749" lon="8.014436">
        <ele>355.810998</ele>
        <time>2021-11-15T23:33:24.092Z</time>
      </trkpt>
      <trkpt lat="47.508646" lon="8.014383">
        <ele>355.676138</ele>
        <time>2021-11-15T23:33:25.320Z</time>
      </trkpt>
      <trkpt lat="47.508562" lon="8.014341">
        <ele>355.566487</ele>
        <time>2021-11-15T23:33:26.333Z</time>
      </trkpt>
      <trkpt lat="47.508375" lon="8.014403">
        <ele>355.329488</ele>
        <time>2021-11-15T23:33:28.934Z</time>
      </trkpt>
      <trkpt lat="47.508333" lon="8.014419">
        <ele>355.275853</ele>
        <time>2021-11-15T23:33:29.408Z</time>
      </trkpt>
      <trkpt lat="47.508281" lon="8.014277">
        <ele>355.140916</ele>
        <time>2021-11-15T23:33:30.663Z</time>
      </trkpt>
      <trkpt lat="47.508214" lon="8.014183">
        <ele>355.026755</ele>
        <time>2021-11-15T23:33:31.922Z</time>
      </trkpt>
      <trkpt lat="47.508075" lon="8.014054">
        <ele>354.939392</ele>
        <time>2021-11-15T23:33:33.991Z</time>
      </trkpt>
      <trkpt lat="47.508011" lon="8.013995">
        <ele>354.899839</ele>
        <time>2021-11-15T23:33:34.965Z</time>
      </trkpt>
      <trkpt lat="47.507595" lon="8.013616">
        <ele>354.643584</ele>
        <time>2021-11-15T23:33:41.370Z</time>
      </trkpt>
      <trkpt lat="47.507559" lon="8.013585">
        <ele>354.621735</ele>
        <time>2021-11-15T23:33:41.999Z</time>
      </trkpt>
      <trkpt lat="47.507231" lon="8.013292">
        <ele>354.420762</ele>
        <time>2021-11-15T23:33:47.120Z</time>
      </trkpt>
      <trkpt lat="47.507191" lon="8.013279">
        <ele>354.399277</ele>
        <time>2021-11-15T23:33:47.664Z</time>
      </trkpt>
      <trkpt lat="47.507106" lon="8.013288">
        <ele>354.354571</ele>
        <time>2021-11-15T23:33:48.797Z</time>
      </trkpt>
      <trkpt lat="47.507084" lon="8.013290">
        <ele>354.343008</ele>
        <time>2021-11-15T23:33:49.088Z</time>
      </trkpt>
      <trkpt lat="47.507038" lon="8.013279">
        <ele>354.318563</ele>
        <time>2021-11-15T23:33:49.789Z</time>
      </trkpt>
      <trkpt lat="47.507007" lon="8.013263">
        <ele>354.301340</ele>
        <time>2021-11-15T23:33:50.242Z</time>
      </trkpt>
      <trkpt lat="47.506989" lon="8.013246">
        <ele>354.290139</ele>
        <time>2021-11-15T23:33:50.555Z</time>
      </trkpt>
      <trkpt lat="47.506955" lon="8.013213">
        <ele>354.268810</ele>
        <time>2021-11-15T23:33:51.164Z</time>
      </trkpt>
      <trkpt lat="47.506929" lon="8.013191">
        <ele>354.253099</ele>
        <time>2021-11-15T23:33:51.640Z</time>
      </trkpt>
      <trkpt lat="47.506890" lon="8.013159">
        <ele>354.229707</ele>
        <time>2021-11-15T23:33:52.291Z</time>
      </trkpt>
      <trkpt lat="47.506825" lon="8.013107">
        <ele>354.190946</ele>
        <time>2021-11-15T23:33:53.315Z</time>
      </trkpt>
      <trkpt lat="47.506760" lon="8.013057">
        <ele>354.152517</ele>
        <time>2021-11-15T23:33:54.319Z</time>
      </trkpt>
      <trkpt lat="47.506697" lon="8.013001">
        <ele>354.113966</ele>
        <time>2021-11-15T23:33:55.323Z</time>
      </trkpt>
      <trkpt lat="47.506663" lon="8.012973">
        <ele>354.093555</ele>
        <time>2021-11-15T23:33:55.895Z</time>
      </trkpt>
      <trkpt lat="47.506633" lon="8.012949">
        <ele>354.079997</ele>
        <time>2021-11-15T23:33:56.391Z</time>
      </trkpt>
      <trkpt lat="47.506533" lon="8.012868">
        <ele>354.069610</ele>
        <time>2021-11-15T23:33:57.916Z</time>
      </trkpt>
      <trkpt lat="47.506492" lon="8.012798">
        <ele>354.063907</ele>
        <time>2021-11-15T23:33:58.798Z</time>
      </trkpt>
      <trkpt lat="47.506472" lon="8.012743">
        <ele>354.060062</ele>
        <time>2021-11-15T23:33:59.309Z</time>
      </trkpt>
      <trkpt lat="47.506389" lon="8.012514">
        <ele>354.044065</ele>
        <time>2021-11-15T23:34:01.557Z</time>
      </trkpt>
      <trkpt lat="47.506346" lon="8.012464">
        <ele>354.039082</ele>
        <time>2021-11-15T23:34:02.279Z</time>
      </trkpt>
      <trkpt lat="47.506308" lon="8.012429">
        <ele>354.035004</ele>
        <time>2021-11-15T23:34:02.862Z</time>
      </trkpt>
      <trkpt lat="47.506101" lon="8.012240">
        <ele>354.012842</ele>
        <time>2021-11-15T23:34:05.936Z</time>
      </trkpt>
      <trkpt lat="47.505808" lon="8.011926">
        <ele>353.979880</ele>
        <time>2021-11-15T23:34:10.563Z</time>
      </trkpt>
      <trkpt lat="47.505388" lon="8.011390">
        <ele>353.929348</ele>
        <time>2021-11-15T23:34:19.232Z</time>
      </trkpt>
      <trkpt lat="47.505237" lon="8.011270">
        <ele>353.989812</ele>
        <time>2021-11-15T23:34:22.214Z</time>
      </trkpt>
      <trkpt lat="47.504446" lon="8.010688">
        <ele>355.779274</ele>
        <time>2021-11-15T23:34:41.190Z</time>
      </trkpt>
      <trkpt lat="47.504256" lon="8.010566">
        <ele>356.198834</ele>
        <time>2021-11-15T23:34:46.283Z</time>
      </trkpt>
      <trkpt lat="47.504178" lon="8.010516">
        <ele>356.371029</ele>
        <time>2021-11-15T23:34:48.484Z</time>
      </trkpt>
      <trkpt lat="47.504018" lon="8.010447">
        <ele>356.708638</ele>
        <time>2021-11-15T23:34:53.374Z</time>
      </trkpt>
      <trkpt lat="47.503467" lon="8.010296">
        <ele>357.881581</ele>
        <time>2021-11-15T23:35:07.238Z</time>
      </trkpt>
      <trkpt lat="47.502991" lon="8.010405">
        <ele>358.987436</ele>
        <time>2021-11-15T23:35:19.812Z</time>
      </trkpt>
      <trkpt lat="47.502959" lon="8.010415">
        <ele>359.062525</ele>
        <time>2021-11-15T23:35:21.427Z</time>
      </trkpt>
      <trkpt lat="47.502773" lon="8.009928">
        <ele>359.930228</ele>
        <time>2021-11-15T23:35:31.223Z</time>
      </trkpt>
      <trkpt lat="47.502267" lon="8.008979">
        <ele>361.732522</ele>
        <time>2021-11-15T23:35:48.655Z</time>
      </trkpt>
      <trkpt lat="47.502158" lon="8.008808">
        <ele>361.866313</ele>
        <time>2021-11-15T23:35:51.686Z</time>
      </trkpt>
      <trkpt lat="47.502062" lon="8.008650">
        <ele>361.987242</ele>
        <time>2021-11-15T23:35:55.073Z</time>
      </trkpt>
      <trkpt lat="47.501943" lon="8.008353">
        <ele>362.183747</ele>
        <time>2021-11-15T23:35:59.297Z</time>
      </trkpt>
      <trkpt lat="47.501537" lon="8.007308">
        <ele>362.869760</ele>
        <time>2021-11-15T23:36:13.534Z</time>
      </trkpt>
      <trkpt lat="47.501496" lon="8.007247">
        <ele>362.918728</ele>
        <time>2021-11-15T23:36:14.565Z</time>
      </trkpt>
      <trkpt lat="47.501293" lon="8.006936">
        <ele>363.164826</ele>
        <time>2021-11-15T23:36:19.361Z</time>
      </trkpt>
      <trkpt lat="47.501276" lon="8.006911">
        <ele>363.185012</ele>
        <time>2021-11-15T23:36:19.737Z</time>
      </trkpt>
      <trkpt lat="47.500997" lon="8.006551">
        <ele>363.436600</ele>
        <time>2021-11-15T23:36:25.481Z</time>
      </trkpt>
      <trkpt lat="47.500764" lon="8.006290">
        <ele>363.631891</ele>
        <time>2021-11-15T23:36:29.964Z</time>
      </trkpt>
      <trkpt lat="47.500647" lon="8.006180">
        <ele>363.724529</ele>
        <time>2021-11-15T23:36:33.122Z</time>
      </trkpt>
      <trkpt lat="47.500540" lon="8.006079">
        <ele>363.809346</ele>
        <time>2021-11-15T23:36:34.790Z</time>
      </trkpt>
      <trkpt lat="47.500310" lon="8.005852">
        <ele>363.994104</ele>
        <time>2021-11-15T23:36:39.785Z</time>
      </trkpt>
      <trkpt lat="47.500252" lon="8.005784">
        <ele>364.043556</ele>
        <time>2021-11-15T23:36:40.951Z</time>
      </trkpt>
      <trkpt lat="47.500207" lon="8.005727">
        <ele>364.083140</ele>
        <time>2021-11-15T23:36:41.840Z</time>
      </trkpt>
      <trkpt lat="47.500009" lon="8.005488">
        <ele>364.253898</ele>
        <time>2021-11-15T23:36:46.776Z</time>
      </trkpt>
      <trkpt lat="47.499991" lon="8.005468">
        <ele>364.268940</ele>
        <time>2021-11-15T23:36:47.135Z</time>
      </trkpt>
      <trkpt lat="47.499880" lon="8.005358">
        <ele>364.358219</ele>
        <time>2021-11-15T23:36:49.523Z</time>
      </trkpt>
      <trkpt lat="47.499856" lon="8.005338">
        <ele>364.376627</ele>
        <time>2021-11-15T23:36:50.012Z</time>
      </trkpt>
      <trkpt lat="47.499770" lon="8.005268">
        <ele>364.481862</ele>
        <time>2021-11-15T23:36:52.764Z</time>
      </trkpt>
      <trkpt lat="47.499523" lon="8.005078">
        <ele>364.880567</ele>
        <time>2021-11-15T23:36:57.495Z</time>
      </trkpt>
      <trkpt lat="47.499496" lon="8.005059">
        <ele>364.923388</ele>
        <time>2021-11-15T23:36:58.841Z</time>
      </trkpt>
      <trkpt lat="47.499409" lon="8.005000">
        <ele>365.060456</ele>
        <time>2021-11-15T23:37:00.299Z</time>
      </trkpt>
      <trkpt lat="47.499183" lon="8.004875">
        <ele>365.406022</ele>
        <time>2021-11-15T23:37:04.863Z</time>
      </trkpt>
      <trkpt lat="47.499012" lon="8.004762">
        <ele>365.674249</ele>
        <time>2021-11-15T23:37:08.533Z</time>
      </trkpt>
      <trkpt lat="47.498965" lon="8.004710">
        <ele>365.758296</ele>
        <time>2021-11-15T23:37:09.695Z</time>
      </trkpt>
      <trkpt lat="47.498898" lon="8.004636">
        <ele>365.878034</ele>
        <time>2021-11-15T23:37:11.356Z</time>
      </trkpt>
      <trkpt lat="47.498753" lon="8.004410">
        <ele>366.179633</ele>
        <time>2021-11-15T23:37:15.843Z</time>
      </trkpt>
      <trkpt lat="47.498698" lon="8.004313">
        <ele>366.302175</ele>
        <time>2021-11-15T23:37:17.738Z</time>
      </trkpt>
      <trkpt lat="47.498450" lon="8.003874">
        <ele>366.855932</ele>
        <time>2021-11-15T23:37:26.533Z</time>
      </trkpt>
      <trkpt lat="47.498213" lon="8.003454">
        <ele>367.504567</ele>
        <time>2021-11-15T23:37:34.726Z</time>
      </trkpt>
      <trkpt lat="47.498166" lon="8.003383">
        <ele>367.629273</ele>
        <time>2021-11-15T23:37:36.154Z</time>
      </trkpt>
      <trkpt lat="47.498072" lon="8.003250">
        <ele>367.870750</ele>
        <time>2021-11-15T23:37:38.902Z</time>
      </trkpt>
      <trkpt lat="47.497951" lon="8.003094">
        <ele>368.168728</ele>
        <time>2021-11-15T23:37:42.737Z</time>
      </trkpt>
      <trkpt lat="47.497607" lon="8.002710">
        <ele>368.968821</ele>
        <time>2021-11-15T23:37:52.137Z</time>
      </trkpt>
      <trkpt lat="47.497540" lon="8.002634">
        <ele>369.125572</ele>
        <time>2021-11-15T23:37:53.996Z</time>
      </trkpt>
      <trkpt lat="47.497390" lon="8.002409">
        <ele>369.522146</ele>
        <time>2021-11-15T23:37:58.731Z</time>
      </trkpt>
      <trkpt lat="47.497307" lon="8.002279">
        <ele>369.746548</ele>
        <time>2021-11-15T23:38:01.313Z</time>
      </trkpt>
      <trkpt lat="47.497264" lon="8.002219">
        <ele>369.856285</ele>
        <time>2021-11-15T23:38:02.855Z</time>
      </trkpt>
      <trkpt lat="47.497207" lon="8.002132">
        <ele>370.008329</ele>
        <time>2021-11-15T23:38:04.483Z</time>
      </trkpt>
      <trkpt lat="47.496932" lon="8.001715">
        <ele>370.616074</ele>
        <time>2021-11-15T23:38:13.599Z</time>
      </trkpt>
      <trkpt lat="47.496908" lon="8.001680">
        <ele>370.660073</ele>
        <time>2021-11-15T23:38:14.344Z</time>
      </trkpt>
      <trkpt lat="47.496861" lon="8.001608">
        <ele>370.748407</ele>
        <time>2021-11-15T23:38:15.855Z</time>
      </trkpt>
      <trkpt lat="47.496820" lon="8.001547">
        <ele>370.824325</ele>
        <time>2021-11-15T23:38:17.171Z</time>
      </trkpt>
      <trkpt lat="47.496585" lon="8.001187">
        <ele>371.265994</ele>
        <time>2021-11-15T23:38:24.271Z</time>
      </trkpt>
      <trkpt lat="47.496535" lon="8.001108">
        <ele>371.361503</ele>
        <time>2021-11-15T23:38:25.829Z</time>
      </trkpt>
      <trkpt lat="47.496533" lon="8.001104">
        <ele>371.365894</ele>
        <time>2021-11-15T23:38:25.902Z</time>
      </trkpt>
      <trkpt lat="47.496517" lon="8.001077">
        <ele>371.397582</ele>
        <time>2021-11-15T23:38:26.703Z</time>
      </trkpt>
      <trkpt lat="47.496429" lon="8.000925">
        <ele>371.574196</ele>
        <time>2021-11-15T23:38:29.032Z</time>
      </trkpt>
      <trkpt lat="47.496280" lon="8.000664">
        <ele>371.875682</ele>
        <time>2021-11-15T23:38:33.895Z</time>
      </trkpt>
      <trkpt lat="47.496272" lon="8.000651">
        <ele>371.891196</ele>
        <time>2021-11-15T23:38:34.105Z</time>
      </trkpt>
      <trkpt lat="47.496234" lon="8.000584">
        <ele>371.968380</ele>
        <time>2021-11-15T23:38:34.995Z</time>
      </trkpt>
      <trkpt lat="47.496011" lon="8.000286">
        <ele>372.360734</ele>
        <time>2021-11-15T23:38:40.689Z</time>
      </trkpt>
      <trkpt lat="47.495718" lon="8.000005">
        <ele>372.711908</ele>
        <time>2021-11-15T23:38:46.846Z</time>
      </trkpt>
      <trkpt lat="47.495430" lon="7.999752">
        <ele>372.831150</ele>
        <time>2021-11-15T23:38:52.369Z</time>
      </trkpt>
      <trkpt lat="47.495197" lon="7.999589">
        <ele>372.922908</ele>
        <time>2021-11-15T23:38:56.558Z</time>
      </trkpt>
      <trkpt lat="47.494812" lon="7.999457">
        <ele>373.063614</ele>
        <time>2021-11-15T23:39:02.765Z</time>
      </trkpt>
      <trkpt lat="47.494643" lon="7.999430">
        <ele>373.124135</ele>
        <time>2021-11-15T23:39:05.415Z</time>
      </trkpt>
      <trkpt lat="47.494489" lon="7.999417">
        <ele>373.179054</ele>
        <time>2021-11-15T23:39:07.562Z</time>
      </trkpt>
      <trkpt lat="47.494272" lon="7.999381">
        <ele>373.256799</ele>
        <time>2021-11-15T23:39:10.765Z</time>
      </trkpt>
      <trkpt lat="47.493961" lon="7.999292">
        <ele>373.495410</ele>
        <time>2021-11-15T23:39:15.694Z</time>
      </trkpt>
      <trkpt lat="47.493937" lon="7.999285">
        <ele>373.523499</ele>
        <time>2021-11-15T23:39:16.236Z</time>
      </trkpt>
      <trkpt lat="47.493742" lon="7.999216">
        <ele>373.753732</ele>
        <time>2021-11-15T23:39:19.538Z</time>
      </trkpt>
      <trkpt lat="47.493603" lon="7.999152">
        <ele>373.920894</ele>
        <time>2021-11-15T23:39:22.200Z</time>
      </trkpt>
      <trkpt lat="47.493502" lon="7.999071">
        <ele>374.052808</ele>
        <time>2021-11-15T23:39:24.279Z</time>
      </trkpt>
      <trkpt lat="47.493433" lon="7.998996">
        <ele>374.151115</ele>
        <time>2021-11-15T23:39:25.713Z</time>
      </trkpt>
      <trkpt lat="47.493358" lon="7.998911">
        <ele>374.259590</ele>
        <time>2021-11-15T23:39:27.357Z</time>
      </trkpt>
      <trkpt lat="47.493296" lon="7.998833">
        <ele>374.353032</ele>
        <time>2021-11-15T23:39:29.098Z</time>
      </trkpt>
      <trkpt lat="47.493144" lon="7.998645">
        <ele>374.580504</ele>
        <time>2021-11-15T23:39:32.656Z</time>
      </trkpt>
      <trkpt lat="47.492877" lon="7.998257">
        <ele>375.010194</ele>
        <time>2021-11-15T23:39:41.057Z</time>
      </trkpt>
      <trkpt lat="47.492747" lon="7.998084">
        <ele>375.210950</ele>
        <time>2021-11-15T23:39:45.109Z</time>
      </trkpt>
      <trkpt lat="47.492722" lon="7.998050">
        <ele>375.249938</ele>
        <time>2021-11-15T23:39:45.772Z</time>
      </trkpt>
      <trkpt lat="47.492617" lon="7.997908">
        <ele>375.444995</ele>
        <time>2021-11-15T23:39:49.159Z</time>
      </trkpt>
      <trkpt lat="47.492477" lon="7.997747">
        <ele>375.834084</ele>
        <time>2021-11-15T23:39:53.200Z</time>
      </trkpt>
      <trkpt lat="47.492317" lon="7.997637">
        <ele>376.221251</ele>
        <time>2021-11-15T23:39:57.491Z</time>
      </trkpt>
      <trkpt lat="47.491886" lon="7.997365">
        <ele>377.249512</ele>
        <time>2021-11-15T23:40:08.540Z</time>
      </trkpt>
      <trkpt lat="47.491854" lon="7.997405">
        <ele>377.341435</ele>
        <time>2021-11-15T23:40:09.796Z</time>
      </trkpt>
      <trkpt lat="47.491748" lon="7.997367">
        <ele>377.580786</ele>
        <time>2021-11-15T23:40:12.859Z</time>
      </trkpt>
      <trkpt lat="47.491680" lon="7.997343">
        <ele>377.734201</ele>
        <time>2021-11-15T23:40:15.404Z</time>
      </trkpt>
      <trkpt lat="47.490780" lon="7.996642">
        <ele>379.886270</ele>
        <time>2021-11-15T23:40:44.861Z</time>
      </trkpt>
      <trkpt lat="47.489284" lon="7.995053">
        <ele>383.355816</ele>
        <time>2021-11-15T23:41:35.835Z</time>
      </trkpt>
      <trkpt lat="47.488959" lon="7.994757">
        <ele>384.011769</ele>
        <time>2021-11-15T23:41:46.277Z</time>
      </trkpt>
      <trkpt lat="47.488959" lon="7.994757">
        <ele>384.011769</ele>
        <time>2021-11-15T23:41:47.111Z</time>
      </trkpt>
      <trkpt lat="47.488959" lon="7.994757">
        <ele>384.011769</ele>
        <time>2021-11-15T23:41:47.196Z</time>
      </trkpt>
      <trkpt lat="47.488246" lon="7.994102">
        <ele>385.454264</ele>
        <time>2021-11-15T23:42:09.923Z</time>
      </trkpt>
      <trkpt lat="47.487633" lon="7.993524">
        <ele>386.405430</ele>
        <time>2021-11-15T23:42:28.755Z</time>
      </trkpt>
      <trkpt lat="47.487213" lon="7.993014">
        <ele>387.004318</ele>
        <time>2021-11-15T23:42:42.100Z</time>
      </trkpt>
      <trkpt lat="47.486383" lon="7.991737">
        <ele>388.273799</ele>
        <time>2021-11-15T23:43:10.455Z</time>
      </trkpt>
      <trkpt lat="47.486334" lon="7.991668">
        <ele>388.340359</ele>
        <time>2021-11-15T23:43:12.014Z</time>
      </trkpt>
      <trkpt lat="47.486260" lon="7.991591">
        <ele>388.429377</ele>
        <time>2021-11-15T23:43:14.304Z</time>
      </trkpt>
      <trkpt lat="47.486129" lon="7.991440">
        <ele>388.592778</ele>
        <time>2021-11-15T23:43:18.152Z</time>
      </trkpt>
      <trkpt lat="47.486063" lon="7.991399">
        <ele>388.663214</ele>
        <time>2021-11-15T23:43:19.788Z</time>
      </trkpt>
      <trkpt lat="47.485991" lon="7.991440">
        <ele>388.739129</ele>
        <time>2021-11-15T23:43:21.229Z</time>
      </trkpt>
      <trkpt lat="47.485898" lon="7.991482">
        <ele>388.834811</ele>
        <time>2021-11-15T23:43:23.161Z</time>
      </trkpt>
      <trkpt lat="47.485807" lon="7.991493">
        <ele>388.924656</ele>
        <time>2021-11-15T23:43:24.752Z</time>
      </trkpt>
      <trkpt lat="47.485635" lon="7.991515">
        <ele>389.094540</ele>
        <time>2021-11-15T23:43:27.892Z</time>
      </trkpt>
      <trkpt lat="47.485528" lon="7.991512">
        <ele>389.199851</ele>
        <time>2021-11-15T23:43:30.175Z</time>
      </trkpt>
      <trkpt lat="47.484597" lon="7.991511">
        <ele>390.274213</ele>
        <time>2021-11-15T23:43:48.270Z</time>
      </trkpt>
      <trkpt lat="47.484196" lon="7.991380">
        <ele>390.808505</ele>
        <time>2021-11-15T23:43:56.514Z</time>
      </trkpt>
      <trkpt lat="47.484004" lon="7.991285">
        <ele>391.071905</ele>
        <time>2021-11-15T23:44:00.755Z</time>
      </trkpt>
      <trkpt lat="47.483794" lon="7.991174">
        <ele>391.362038</ele>
        <time>2021-11-15T23:44:05.017Z</time>
      </trkpt>
      <trkpt lat="47.483302" lon="7.991001">
        <ele>392.030043</ele>
        <time>2021-11-15T23:44:15.245Z</time>
      </trkpt>
      <trkpt lat="47.483009" lon="7.990995">
        <ele>392.481028</ele>
        <time>2021-11-15T23:44:21.178Z</time>
      </trkpt>
      <trkpt lat="47.482872" lon="7.991012">
        <ele>392.692619</ele>
        <time>2021-11-15T23:44:24.277Z</time>
      </trkpt>
      <trkpt lat="47.482259" lon="7.991194">
        <ele>393.654862</ele>
        <time>2021-11-15T23:44:37.350Z</time>
      </trkpt>
      <trkpt lat="47.481732" lon="7.991480">
        <ele>394.518775</ele>
        <time>2021-11-15T23:44:49.373Z</time>
      </trkpt>
      <trkpt lat="47.481496" lon="7.991617">
        <ele>394.907114</ele>
        <time>2021-11-15T23:44:54.901Z</time>
      </trkpt>
      <trkpt lat="47.481096" lon="7.991850">
        <ele>395.561831</ele>
        <time>2021-11-15T23:45:03.822Z</time>
      </trkpt>
      <trkpt lat="47.480657" lon="7.991988">
        <ele>396.245361</ele>
        <time>2021-11-15T23:45:13.053Z</time>
      </trkpt>
      <trkpt lat="47.480402" lon="7.991988">
        <ele>396.633732</ele>
        <time>2021-11-15T23:45:18.693Z</time>
      </trkpt>
      <trkpt lat="47.479254" lon="7.991575">
        <ele>398.419894</ele>
        <time>2021-11-15T23:45:42.847Z</time>
      </trkpt>
      <trkpt lat="47.479179" lon="7.991567">
        <ele>398.532842</ele>
        <time>2021-11-15T23:45:44.470Z</time>
      </trkpt>
      <trkpt lat="47.479142" lon="7.991563">
        <ele>398.588567</ele>
        <time>2021-11-15T23:45:45.189Z</time>
      </trkpt>
      <trkpt lat="47.478975" lon="7.991551">
        <ele>398.839709</ele>
        <time>2021-11-15T23:45:48.566Z</time>
      </trkpt>
      <trkpt lat="47.477593" lon="7.991455">
        <ele>401.469482</ele>
        <time>2021-11-15T23:46:17.851Z</time>
      </trkpt>
      <trkpt lat="47.477212" lon="7.991382">
        <ele>402.474659</ele>
        <time>2021-11-15T23:46:26.586Z</time>
      </trkpt>
      <trkpt lat="47.476858" lon="7.991285">
        <ele>403.416620</ele>
        <time>2021-11-15T23:46:35.463Z</time>
      </trkpt>
      <trkpt lat="47.476495" lon="7.991119">
        <ele>404.410710</ele>
        <time>2021-11-15T23:46:46.017Z</time>
      </trkpt>
      <trkpt lat="47.475752" lon="7.990844">
        <ele>408.397540</ele>
        <time>2021-11-15T23:47:11.393Z</time>
      </trkpt>
      <trkpt lat="47.475384" lon="7.990744">
        <ele>410.641672</ele>
        <time>2021-11-15T23:47:25.649Z</time>
      </trkpt>
      <trkpt lat="47.474869" lon="7.990750">
        <ele>413.730663</ele>
        <time>2021-11-15T23:47:47.260Z</time>
      </trkpt>
      <trkpt lat="47.473566" lon="7.991189">
        <ele>422.547900</ele>
        <time>2021-11-15T23:48:49.578Z</time>
      </trkpt>
      <trkpt lat="47.473097" lon="7.991272">
        <ele>425.754768</ele>
        <time>2021-11-15T23:49:08.631Z</time>
      </trkpt>
      <trkpt lat="47.472796" lon="7.991311">
        <ele>427.806161</ele>
        <time>2021-11-15T23:49:19.847Z</time>
      </trkpt>
      <trkpt lat="47.472461" lon="7.991354">
        <ele>428.673593</ele>
        <time>2021-11-15T23:49:30.731Z</time>
      </trkpt>
      <trkpt lat="47.471790" lon="7.991484">
        <ele>430.324389</ele>
        <time>2021-11-15T23:49:48.854Z</time>
      </trkpt>
      <trkpt lat="47.471617" lon="7.991535">
        <ele>430.754698</ele>
        <time>2021-11-15T23:49:52.401Z</time>
      </trkpt>
      <trkpt lat="47.470749" lon="7.991887">
        <ele>432.381416</ele>
        <time>2021-11-15T23:50:07.619Z</time>
      </trkpt>
      <trkpt lat="47.470033" lon="7.992305">
        <ele>432.695077</ele>
        <time>2021-11-15T23:50:19.271Z</time>
      </trkpt>
      <trkpt lat="47.469747" lon="7.992506">
        <ele>432.824103</ele>
        <time>2021-11-15T23:50:24.543Z</time>
      </trkpt>
      <trkpt lat="47.469362" lon="7.992773">
        <ele>432.997371</ele>
        <time>2021-11-15T23:50:32.006Z</time>
      </trkpt>
      <trkpt lat="47.468375" lon="7.993424">
        <ele>433.829194</ele>
        <time>2021-11-15T23:50:51.029Z</time>
      </trkpt>
      <trkpt lat="47.468089" lon="7.993593">
        <ele>434.066994</ele>
        <time>2021-11-15T23:50:56.698Z</time>
      </trkpt>
      <trkpt lat="47.467721" lon="7.993817">
        <ele>434.374258</ele>
        <time>2021-11-15T23:51:03.872Z</time>
      </trkpt>
      <trkpt lat="47.467579" lon="7.993896">
        <ele>434.555649</ele>
        <time>2021-11-15T23:51:06.467Z</time>
      </trkpt>
      <trkpt lat="47.467154" lon="7.994150">
        <ele>435.131850</ele>
        <time>2021-11-15T23:51:15.624Z</time>
      </trkpt>
      <trkpt lat="47.466146" lon="7.994726">
        <ele>436.490214</ele>
        <time>2021-11-15T23:51:37.462Z</time>
      </trkpt>
      <trkpt lat="47.465905" lon="7.994879">
        <ele>436.744687</ele>
        <time>2021-11-15T23:51:42.978Z</time>
      </trkpt>
      <trkpt lat="47.465772" lon="7.994973">
        <ele>436.847921</ele>
        <time>2021-11-15T23:51:46.146Z</time>
      </trkpt>
      <trkpt lat="47.465613" lon="7.995104">
        <ele>436.975387</ele>
        <time>2021-11-15T23:51:49.535Z</time>
      </trkpt>
      <trkpt lat="47.465230" lon="7.995479">
        <ele>437.297064</ele>
        <time>2021-11-15T23:51:57.982Z</time>
      </trkpt>
      <trkpt lat="47.465119" lon="7.995595">
        <ele>437.392248</ele>
        <time>2021-11-15T23:52:00.674Z</time>
      </trkpt>
      <trkpt lat="47.465105" lon="7.995610">
        <ele>437.404355</ele>
        <time>2021-11-15T23:52:00.848Z</time>
      </trkpt>
      <trkpt lat="47.464249" lon="7.996297">
        <ele>437.879448</ele>
        <time>2021-11-15T23:52:16.575Z</time>
      </trkpt>
      <trkpt lat="47.464131" lon="7.996368">
        <ele>437.864127</ele>
        <time>2021-11-15T23:52:18.227Z</time>
      </trkpt>
      <trkpt lat="47.463691" lon="7.996686">
        <ele>437.805231</ele>
        <time>2021-11-15T23:52:24.593Z</time>
      </trkpt>
      <trkpt lat="47.463326" lon="7.997031">
        <ele>437.753136</ele>
        <time>2021-11-15T23:52:30.600Z</time>
      </trkpt>
      <trkpt lat="47.463107" lon="7.997172">
        <ele>437.724410</ele>
        <time>2021-11-15T23:52:33.782Z</time>
      </trkpt>
      <trkpt lat="47.463019" lon="7.997210">
        <ele>437.713385</ele>
        <time>2021-11-15T23:52:35.213Z</time>
      </trkpt>
      <trkpt lat="47.462705" lon="7.997285">
        <ele>437.804054</ele>
        <time>2021-11-15T23:52:40.227Z</time>
      </trkpt>
      <trkpt lat="47.462598" lon="7.997285">
        <ele>437.881690</ele>
        <time>2021-11-15T23:52:42.059Z</time>
      </trkpt>
      <trkpt lat="47.462350" lon="7.997293">
        <ele>438.061673</ele>
        <time>2021-11-15T23:52:46.325Z</time>
      </trkpt>
      <trkpt lat="47.462299" lon="7.997298">
        <ele>438.098759</ele>
        <time>2021-11-15T23:52:47.364Z</time>
      </trkpt>
      <trkpt lat="47.461927" lon="7.997527">
        <ele>438.391113</ele>
        <time>2021-11-15T23:52:54.222Z</time>
      </trkpt>
      <trkpt lat="47.461552" lon="7.997973">
        <ele>438.740251</ele>
        <time>2021-11-15T23:53:02.433Z</time>
      </trkpt>
      <trkpt lat="47.461502" lon="7.997997">
        <ele>438.778392</ele>
        <time>2021-11-15T23:53:03.850Z</time>
      </trkpt>
      <trkpt lat="47.461438" lon="7.998032">
        <ele>438.827900</ele>
        <time>2021-11-15T23:53:05.107Z</time>
      </trkpt>
      <trkpt lat="47.461284" lon="7.998059">
        <ele>438.940420</ele>
        <time>2021-11-15T23:53:08.140Z</time>
      </trkpt>
      <trkpt lat="47.461149" lon="7.998038">
        <ele>439.090054</ele>
        <time>2021-11-15T23:53:11.165Z</time>
      </trkpt>
      <trkpt lat="47.461062" lon="7.998039">
        <ele>439.233069</ele>
        <time>2021-11-15T23:53:12.784Z</time>
      </trkpt>
      <trkpt lat="47.460985" lon="7.998062">
        <ele>439.362196</ele>
        <time>2021-11-15T23:53:14.682Z</time>
      </trkpt>
      <trkpt lat="47.460942" lon="7.998082">
        <ele>439.436292</ele>
        <time>2021-11-15T23:53:15.545Z</time>
      </trkpt>
      <trkpt lat="47.460924" lon="7.998094">
        <ele>439.468747</ele>
        <time>2021-11-15T23:53:15.880Z</time>
      </trkpt>
      <trkpt lat="47.460857" lon="7.998139">
        <ele>439.589704</ele>
        <time>2021-11-15T23:53:17.181Z</time>
      </trkpt>
      <trkpt lat="47.460836" lon="7.998161">
        <ele>439.632006</ele>
        <time>2021-11-15T23:53:17.935Z</time>
      </trkpt>
      <trkpt lat="47.460660" lon="7.998379">
        <ele>440.009362</ele>
        <time>2021-11-15T23:53:22.662Z</time>
      </trkpt>
      <trkpt lat="47.460488" lon="7.998555">
        <ele>440.353160</ele>
        <time>2021-11-15T23:53:27.260Z</time>
      </trkpt>
      <trkpt lat="47.460218" lon="7.998745">
        <ele>440.844657</ele>
        <time>2021-11-15T23:53:33.508Z</time>
      </trkpt>
      <trkpt lat="47.459934" lon="7.998910">
        <ele>441.346220</ele>
        <time>2021-11-15T23:53:39.891Z</time>
      </trkpt>
      <trkpt lat="47.459866" lon="7.998934">
        <ele>441.461136</ele>
        <time>2021-11-15T23:53:41.726Z</time>
      </trkpt>
      <trkpt lat="47.459773" lon="7.998935">
        <ele>441.614013</ele>
        <time>2021-11-15T23:53:43.896Z</time>
      </trkpt>
      <trkpt lat="47.459283" lon="7.998698">
        <ele>442.815171</ele>
        <time>2021-11-15T23:53:55.313Z</time>
      </trkpt>
      <trkpt lat="47.459205" lon="7.998672">
        <ele>443.038419</ele>
        <time>2021-11-15T23:53:57.236Z</time>
      </trkpt>
      <trkpt lat="47.459150" lon="7.998657">
        <ele>443.194575</ele>
        <time>2021-11-15T23:53:58.775Z</time>
      </trkpt>
      <trkpt lat="47.459032" lon="7.998632">
        <ele>443.527408</ele>
        <time>2021-11-15T23:54:01.567Z</time>
      </trkpt>
      <trkpt lat="47.458630" lon="7.998609">
        <ele>444.650681</ele>
        <time>2021-11-15T23:54:10.982Z</time>
      </trkpt>
      <trkpt lat="47.458509" lon="7.998633">
        <ele>444.991552</ele>
        <time>2021-11-15T23:54:14.156Z</time>
      </trkpt>
      <trkpt lat="47.458410" lon="7.998658">
        <ele>445.271972</ele>
        <time>2021-11-15T23:54:17.654Z</time>
      </trkpt>
      <trkpt lat="47.457243" lon="7.999411">
        <ele>449.096923</ele>
        <time>2021-11-15T23:54:54.454Z</time>
      </trkpt>
      <trkpt lat="47.457133" lon="7.999505">
        <ele>449.503403</ele>
        <time>2021-11-15T23:54:59.394Z</time>
      </trkpt>
      <trkpt lat="47.457107" lon="7.999528">
        <ele>449.600337</ele>
        <time>2021-11-15T23:55:00.452Z</time>
      </trkpt>
      <trkpt lat="47.456363" lon="8.000219">
        <ele>452.411293</ele>
        <time>2021-11-15T23:55:21.741Z</time>
      </trkpt>
      <trkpt lat="47.456267" lon="8.000301">
        <ele>452.760200</ele>
        <time>2021-11-15T23:55:26.339Z</time>
      </trkpt>
      <trkpt lat="47.455740" lon="8.000709">
        <ele>454.338275</ele>
        <time>2021-11-15T23:55:40.427Z</time>
      </trkpt>
      <trkpt lat="47.455049" lon="8.001106">
        <ele>456.304925</ele>
        <time>2021-11-15T23:55:58.998Z</time>
      </trkpt>
      <trkpt lat="47.454570" lon="8.001381">
        <ele>457.712832</ele>
        <time>2021-11-15T23:56:12.721Z</time>
      </trkpt>
      <trkpt lat="47.454148" lon="8.001857">
        <ele>459.504312</ele>
        <time>2021-11-15T23:56:25.984Z</time>
      </trkpt>
      <trkpt lat="47.454027" lon="8.002090">
        <ele>460.174861</ele>
        <time>2021-11-15T23:56:31.659Z</time>
      </trkpt>
      <trkpt lat="47.453983" lon="8.002195">
        <ele>460.456807</ele>
        <time>2021-11-15T23:56:33.991Z</time>
      </trkpt>
      <trkpt lat="47.453932" lon="8.002372">
        <ele>460.895947</ele>
        <time>2021-11-15T23:56:37.553Z</time>
      </trkpt>
      <trkpt lat="47.453903" lon="8.002487">
        <ele>461.176087</ele>
        <time>2021-11-15T23:56:40.108Z</time>
      </trkpt>
      <trkpt lat="47.453815" lon="8.002812">
        <ele>461.975145</ele>
        <time>2021-11-15T23:56:47.111Z</time>
      </trkpt>
      <trkpt lat="47.453556" lon="8.003416">
        <ele>463.602791</ele>
        <time>2021-11-15T23:57:02.571Z</time>
      </trkpt>
      <trkpt lat="47.452892" lon="8.004632">
        <ele>466.645419</ele>
        <time>2021-11-15T23:57:34.046Z</time>
      </trkpt>
      <trkpt lat="47.452809" lon="8.004791">
        <ele>467.036445</ele>
        <time>2021-11-15T23:57:37.129Z</time>
      </trkpt>
      <trkpt lat="47.452707" lon="8.004978">
        <ele>467.504150</ele>
        <time>2021-11-15T23:57:40.479Z</time>
      </trkpt>
      <trkpt lat="47.452632" lon="8.005093">
        <ele>467.815177</ele>
        <time>2021-11-15T23:57:42.744Z</time>
      </trkpt>
      <trkpt lat="47.452544" lon="8.005204">
        <ele>468.148155</ele>
        <time>2021-11-15T23:57:45.238Z</time>
      </trkpt>
      <trkpt lat="47.452429" lon="8.005350">
        <ele>468.584490</ele>
        <time>2021-11-15T23:57:48.138Z</time>
      </trkpt>
      <trkpt lat="47.452304" lon="8.005472">
        <ele>468.877270</ele>
        <time>2021-11-15T23:57:51.287Z</time>
      </trkpt>
      <trkpt lat="47.451940" lon="8.005767">
        <ele>469.442375</ele>
        <time>2021-11-15T23:57:59.893Z</time>
      </trkpt>
      <trkpt lat="47.451777" lon="8.005920">
        <ele>469.705219</ele>
        <time>2021-11-15T23:58:03.714Z</time>
      </trkpt>
      <trkpt lat="47.451680" lon="8.005745">
        <ele>469.913537</ele>
        <time>2021-11-15T23:58:07.492Z</time>
      </trkpt>
      <trkpt lat="47.451617" lon="8.005651">
        <ele>470.035380</ele>
        <time>2021-11-15T23:58:10.427Z</time>
      </trkpt>
      <trkpt lat="47.451552" lon="8.005574">
        <ele>470.148765</ele>
        <time>2021-11-15T23:58:12.229Z</time>
      </trkpt>
      <trkpt lat="47.451483" lon="8.005518">
        <ele>470.255923</ele>
        <time>2021-11-15T23:58:14.169Z</time>
      </trkpt>
      <trkpt lat="47.451389" lon="8.005475">
        <ele>470.389882</ele>
        <time>2021-11-15T23:58:16.036Z</time>
      </trkpt>
      <trkpt lat="47.451038" lon="8.005524">
        <ele>470.869874</ele>
        <time>2021-11-15T23:58:24.251Z</time>
      </trkpt>
      <trkpt lat="47.450828" lon="8.005583">
        <ele>471.160892</ele>
        <time>2021-11-15T23:58:30.047Z</time>
      </trkpt>
      <trkpt lat="47.450309" lon="8.005751">
        <ele>473.297085</ele>
        <time>2021-11-15T23:58:44.560Z</time>
      </trkpt>
      <trkpt lat="47.450283" lon="8.005770">
        <ele>473.418325</ele>
        <time>2021-11-15T23:58:45.874Z</time>
      </trkpt>
      <trkpt lat="47.450192" lon="8.005840">
        <ele>473.847138</ele>
        <time>2021-11-15T23:58:48.920Z</time>
      </trkpt>
      <trkpt lat="47.450083" lon="8.005922">
        <ele>474.358384</ele>
        <time>2021-11-15T23:58:52.872Z</time>
      </trkpt>
      <trkpt lat="47.449830" lon="8.006105">
        <ele>475.535788</ele>
        <time>2021-11-15T23:59:02.884Z</time>
      </trkpt>
      <trkpt lat="47.449781" lon="8.006118">
        <ele>475.743902</ele>
        <time>2021-11-15T23:59:04.843Z</time>
      </trkpt>
      <trkpt lat="47.449537" lon="8.006184">
        <ele>476.780861</ele>
        <time>2021-11-15T23:59:14.742Z</time>
      </trkpt>
      <trkpt lat="47.448906" lon="8.006317">
        <ele>480.388913</ele>
        <time>2021-11-15T23:59:42.998Z</time>
      </trkpt>
      <trkpt lat="47.448780" lon="8.006310">
        <ele>481.602613</ele>
        <time>2021-11-15T23:59:52.133Z</time>
      </trkpt>
      <trkpt lat="47.448721" lon="8.006306">
        <ele>482.171129</ele>
        <time>2021-11-15T23:59:55.141Z</time>
      </trkpt>
      <trkpt lat="47.448363" lon="8.006302">
        <ele>485.617245</ele>
        <time>2021-11-16T00:00:15.399Z</time>
      </trkpt>
      <trkpt lat="47.448259" lon="8.006303">
        <ele>486.618345</ele>
        <time>2021-11-16T00:00:22.806Z</time>
      </trkpt>
      <trkpt lat="47.448123" lon="8.006272">
        <ele>487.942908</ele>
        <time>2021-11-16T00:00:30.393Z</time>
      </trkpt>
      <trkpt lat="47.448016" lon="8.006516">
        <ele>489.835937</ele>
        <time>2021-11-16T00:00:44.300Z</time>
      </trkpt>
      <trkpt lat="47.447950" lon="8.006701">
        <ele>491.197495</ele>
        <time>2021-11-16T00:00:51.091Z</time>
      </trkpt>
      <trkpt lat="47.447934" lon="8.006735">
        <ele>491.467132</ele>
        <time>2021-11-16T00:00:53.404Z</time>
      </trkpt>
      <trkpt lat="47.447905" lon="8.006767">
        <ele>491.815433</ele>
        <time>2021-11-16T00:00:56.838Z</time>
      </trkpt>
      <trkpt lat="47.447673" lon="8.006915">
        <ele>494.247556</ele>
        <time>2021-11-16T00:01:11.088Z</time>
      </trkpt>
      <trkpt lat="47.447595" lon="8.006957">
        <ele>495.046594</ele>
        <time>2021-11-16T00:01:17.209Z</time>
      </trkpt>
      <trkpt lat="47.447518" lon="8.006960">
        <ele>495.788034</ele>
        <time>2021-11-16T00:01:22.254Z</time>
      </trkpt>
      <trkpt lat="47.447384" lon="8.006945">
        <ele>497.108495</ele>
        <time>2021-11-16T00:01:31.112Z</time>
      </trkpt>
      <trkpt lat="47.447295" lon="8.006889">
        <ele>498.063453</ele>
        <time>2021-11-16T00:01:35.279Z</time>
      </trkpt>
      <trkpt lat="47.447193" lon="8.006801">
        <ele>499.229394</ele>
        <time>2021-11-16T00:01:43.234Z</time>
      </trkpt>
      <trkpt lat="47.447140" lon="8.006763">
        <ele>499.810941</ele>
        <time>2021-11-16T00:01:46.221Z</time>
      </trkpt>
      <trkpt lat="47.447095" lon="8.006732">
        <ele>500.301083</ele>
        <time>2021-11-16T00:01:50.433Z</time>
      </trkpt>
      <trkpt lat="47.446848" lon="8.006659">
        <ele>502.787993</ele>
        <time>2021-11-16T00:02:04.243Z</time>
      </trkpt>
      <trkpt lat="47.446457" lon="8.006422">
        <ele>506.960158</ele>
        <time>2021-11-16T00:02:27.819Z</time>
      </trkpt>
      <trkpt lat="47.445643" lon="8.006150">
        <ele>514.876144</ele>
        <time>2021-11-16T00:03:10.886Z</time>
      </trkpt>
      <trkpt lat="47.444551" lon="8.005966">
        <ele>523.232779</ele>
        <time>2021-11-16T00:03:59.939Z</time>
      </trkpt>
      <trkpt lat="47.444306" lon="8.005966">
        <ele>525.095608</ele>
        <time>2021-11-16T00:04:10.398Z</time>
      </trkpt>
      <trkpt lat="47.444148" lon="8.005966">
        <ele>526.296944</ele>
        <time>2021-11-16T00:04:17.761Z</time>
      </trkpt>
      <trkpt lat="47.443766" lon="8.005803">
        <ele>529.019510</ele>
        <time>2021-11-16T00:04:34.030Z</time>
      </trkpt>
      <trkpt lat="47.443419" lon="8.005513">
        <ele>531.558371</ele>
        <time>2021-11-16T00:04:51.238Z</time>
      </trkpt>
      <trkpt lat="47.443294" lon="8.005455">
        <ele>532.392849</ele>
        <time>2021-11-16T00:04:56.610Z</time>
      </trkpt>
      <trkpt lat="47.443232" lon="8.005444">
        <ele>532.790594</ele>
        <time>2021-11-16T00:04:59.800Z</time>
      </trkpt>
      <trkpt lat="47.442402" lon="8.004930">
        <ele>538.522299</ele>
        <time>2021-11-16T00:05:34.872Z</time>
      </trkpt>
      <trkpt lat="47.442229" lon="8.004822">
        <ele>539.409558</ele>
        <time>2021-11-16T00:05:41.902Z</time>
      </trkpt>
      <trkpt lat="47.442153" lon="8.004775">
        <ele>539.730013</ele>
        <time>2021-11-16T00:05:45.368Z</time>
      </trkpt>
      <trkpt lat="47.441014" lon="8.004119">
        <ele>544.484962</ele>
        <time>2021-11-16T00:06:23.743Z</time>
      </trkpt>
      <trkpt lat="47.440795" lon="8.003822">
        <ele>545.640956</ele>
        <time>2021-11-16T00:06:31.099Z</time>
      </trkpt>
      <trkpt lat="47.440672" lon="8.003743">
        <ele>546.047343</ele>
        <time>2021-11-16T00:06:34.018Z</time>
      </trkpt>
      <trkpt lat="47.440347" lon="8.003607">
        <ele>546.732665</ele>
        <time>2021-11-16T00:06:41.017Z</time>
      </trkpt>
      <trkpt lat="47.440324" lon="8.003509">
        <ele>546.875019</ele>
        <time>2021-11-16T00:06:41.938Z</time>
      </trkpt>
      <trkpt lat="47.440170" lon="8.003186">
        <ele>547.417340</ele>
        <time>2021-11-16T00:06:49.542Z</time>
      </trkpt>
      <trkpt lat="47.440103" lon="8.002791">
        <ele>547.976193</ele>
        <time>2021-11-16T00:06:55.828Z</time>
      </trkpt>
      <trkpt lat="47.440357" lon="8.001986">
        <ele>549.195208</ele>
        <time>2021-11-16T00:07:14.310Z</time>
      </trkpt>
      <trkpt lat="47.440611" lon="8.001421">
        <ele>551.181611</ele>
        <time>2021-11-16T00:07:28.249Z</time>
      </trkpt>
      <trkpt lat="47.440724" lon="8.001286">
        <ele>552.036776</ele>
        <time>2021-11-16T00:07:34.394Z</time>
      </trkpt>
      <trkpt lat="47.440817" lon="8.001236">
        <ele>552.619275</ele>
        <time>2021-11-16T00:07:38.484Z</time>
      </trkpt>
      <trkpt lat="47.440889" lon="8.001173">
        <ele>553.111749</ele>
        <time>2021-11-16T00:07:41.116Z</time>
      </trkpt>
      <trkpt lat="47.440934" lon="8.001116">
        <ele>553.460550</ele>
        <time>2021-11-16T00:07:42.956Z</time>
      </trkpt>
      <trkpt lat="47.440973" lon="8.001046">
        <ele>553.821614</ele>
        <time>2021-11-16T00:07:45.021Z</time>
      </trkpt>
      <trkpt lat="47.440983" lon="8.000989">
        <ele>554.056054</ele>
        <time>2021-11-16T00:07:48.310Z</time>
      </trkpt>
      <trkpt lat="47.440928" lon="8.000707">
        <ele>555.224508</ele>
        <time>2021-11-16T00:07:56.526Z</time>
      </trkpt>
      <trkpt lat="47.440779" lon="8.000622">
        <ele>556.164594</ele>
        <time>2021-11-16T00:08:04.249Z</time>
      </trkpt>
      <trkpt lat="47.439885" lon="8.001187">
        <ele>562.691387</ele>
        <time>2021-11-16T00:08:52.802Z</time>
      </trkpt>
      <trkpt lat="47.439763" lon="8.001184">
        <ele>563.743506</ele>
        <time>2021-11-16T00:09:03.535Z</time>
      </trkpt>
      <trkpt lat="47.439651" lon="8.001095">
        <ele>564.839904</ele>
        <time>2021-11-16T00:09:10.321Z</time>
      </trkpt>
      <trkpt lat="47.439579" lon="8.000910">
        <ele>566.084717</ele>
        <time>2021-11-16T00:09:17.243Z</time>
      </trkpt>
      <trkpt lat="47.439615" lon="8.000630">
        <ele>567.746957</ele>
        <time>2021-11-16T00:09:29.396Z</time>
      </trkpt>
      <trkpt lat="47.439709" lon="8.000501">
        <ele>568.852847</ele>
        <time>2021-11-16T00:09:34.806Z</time>
      </trkpt>
      <trkpt lat="47.440055" lon="8.000261">
        <ele>572.148336</ele>
        <time>2021-11-16T00:09:55.697Z</time>
      </trkpt>
      <trkpt lat="47.440161" lon="8.000045">
        <ele>573.704720</ele>
        <time>2021-11-16T00:10:07.302Z</time>
      </trkpt>
      <trkpt lat="47.440170" lon="7.999793">
        <ele>575.176449</ele>
        <time>2021-11-16T00:10:14.145Z</time>
      </trkpt>
      <trkpt lat="47.440162" lon="7.999686">
        <ele>575.789231</ele>
        <time>2021-11-16T00:10:19.520Z</time>
      </trkpt>
      <trkpt lat="47.440106" lon="7.999618">
        <ele>576.345208</ele>
        <time>2021-11-16T00:10:24.127Z</time>
      </trkpt>
      <trkpt lat="47.439884" lon="7.999206">
        <ele>579.078684</ele>
        <time>2021-11-16T00:10:42.466Z</time>
      </trkpt>
      <trkpt lat="47.439124" lon="7.998093">
        <ele>587.285857</ele>
        <time>2021-11-16T00:11:37.454Z</time>
      </trkpt>
      <trkpt lat="47.438510" lon="7.997500">
        <ele>592.493010</ele>
        <time>2021-11-16T00:12:10.598Z</time>
      </trkpt>
      <trkpt lat="47.437678" lon="7.996368">
        <ele>600.111344</ele>
        <time>2021-11-16T00:13:05.025Z</time>
      </trkpt>
      <trkpt lat="47.437262" lon="7.995105">
        <ele>605.322274</ele>
        <time>2021-11-16T00:13:48.560Z</time>
      </trkpt>
      <trkpt lat="47.437035" lon="7.994598">
        <ele>607.423330</ele>
        <time>2021-11-16T00:14:05.343Z</time>
      </trkpt>
      <trkpt lat="47.436819" lon="7.994505">
        <ele>608.572687</ele>
        <time>2021-11-16T00:14:13.857Z</time>
      </trkpt>
      <trkpt lat="47.435761" lon="7.994738">
        <ele>613.657154</ele>
        <time>2021-11-16T00:14:49.688Z</time>
      </trkpt>
      <trkpt lat="47.435148" lon="7.994665">
        <ele>616.432725</ele>
        <time>2021-11-16T00:15:10.720Z</time>
      </trkpt>
      <trkpt lat="47.435087" lon="7.994626">
        <ele>616.732674</ele>
        <time>2021-11-16T00:15:15.247Z</time>
      </trkpt>
      <trkpt lat="47.435007" lon="7.994534">
        <ele>617.190110</ele>
        <time>2021-11-16T00:15:18.734Z</time>
      </trkpt>
      <trkpt lat="47.434778" lon="7.994164">
        <ele>618.721153</ele>
        <time>2021-11-16T00:15:31.691Z</time>
      </trkpt>
      <trkpt lat="47.434517" lon="7.993423">
        <ele>624.496503</ele>
        <time>2021-11-16T00:16:00.399Z</time>
      </trkpt>
      <trkpt lat="47.434498" lon="7.993384">
        <ele>624.842147</ele>
        <time>2021-11-16T00:16:03.020Z</time>
      </trkpt>
      <trkpt lat="47.434475" lon="7.993337">
        <ele>625.259330</ele>
        <time>2021-11-16T00:16:06.919Z</time>
      </trkpt>
      <trkpt lat="47.433893" lon="7.992538">
        <ele>633.703543</ele>
        <time>2021-11-16T00:16:55.808Z</time>
      </trkpt>
      <trkpt lat="47.433800" lon="7.992349">
        <ele>635.384353</ele>
        <time>2021-11-16T00:17:05.114Z</time>
      </trkpt>
      <trkpt lat="47.433697" lon="7.992106">
        <ele>637.446685</ele>
        <time>2021-11-16T00:17:22.888Z</time>
      </trkpt>
      <trkpt lat="47.433577" lon="7.991627">
        <ele>642.831239</ele>
        <time>2021-11-16T00:17:52.752Z</time>
      </trkpt>
      <trkpt lat="47.433486" lon="7.991450">
        <ele>645.311269</ele>
        <time>2021-11-16T00:18:03.818Z</time>
      </trkpt>
      <trkpt lat="47.433093" lon="7.991063">
        <ele>653.098413</ele>
        <time>2021-11-16T00:18:47.485Z</time>
      </trkpt>
      <trkpt lat="47.432862" lon="7.990958">
        <ele>657.083824</ele>
        <time>2021-11-16T00:19:08.119Z</time>
      </trkpt>
      <trkpt lat="47.432730" lon="7.990940">
        <ele>659.269865</ele>
        <time>2021-11-16T00:19:22.824Z</time>
      </trkpt>
      <trkpt lat="47.432014" lon="7.990930">
        <ele>670.487354</ele>
        <time>2021-11-16T00:20:24.342Z</time>
      </trkpt>
      <trkpt lat="47.431849" lon="7.991042">
        <ele>672.961638</ele>
        <time>2021-11-16T00:20:38.220Z</time>
      </trkpt>
      <trkpt lat="47.431807" lon="7.991195">
        <ele>674.483803</ele>
        <time>2021-11-16T00:20:47.862Z</time>
      </trkpt>
      <trkpt lat="47.431781" lon="7.991624">
        <ele>678.454455</ele>
        <time>2021-11-16T00:21:11.256Z</time>
      </trkpt>
      <trkpt lat="47.431715" lon="7.991907">
        <ele>681.214032</ele>
        <time>2021-11-16T00:21:29.326Z</time>
      </trkpt>
      <trkpt lat="47.431745" lon="7.992462">
        <ele>686.346711</ele>
        <time>2021-11-16T00:21:56.210Z</time>
      </trkpt>
      <trkpt lat="47.431636" lon="7.993008">
        <ele>691.594724</ele>
        <time>2021-11-16T00:22:20.258Z</time>
      </trkpt>
      <trkpt lat="47.431646" lon="7.993435">
        <ele>693.832128</ele>
        <time>2021-11-16T00:22:36.126Z</time>
      </trkpt>
      <trkpt lat="47.431545" lon="7.993723">
        <ele>695.301824</ele>
        <time>2021-11-16T00:22:47.561Z</time>
      </trkpt>
      <trkpt lat="47.431693" lon="7.994331">
        <ele>698.229272</ele>
        <time>2021-11-16T00:23:08.611Z</time>
      </trkpt>
      <trkpt lat="47.431675" lon="7.994712">
        <ele>699.959592</ele>
        <time>2021-11-16T00:23:19.983Z</time>
      </trkpt>
      <trkpt lat="47.431883" lon="7.995109">
        <ele>702.234563</ele>
        <time>2021-11-16T00:23:34.077Z</time>
      </trkpt>
      <trkpt lat="47.431896" lon="7.995243">
        <ele>702.847857</ele>
        <time>2021-11-16T00:23:37.754Z</time>
      </trkpt>
      <trkpt lat="47.431548" lon="7.996186">
        <ele>705.758475</ele>
        <time>2021-11-16T00:24:04.674Z</time>
      </trkpt>
      <trkpt lat="47.431597" lon="7.997001">
        <ele>707.382127</ele>
        <time>2021-11-16T00:24:22.293Z</time>
      </trkpt>
      <trkpt lat="47.431532" lon="7.997555">
        <ele>708.497892</ele>
        <time>2021-11-16T00:24:32.755Z</time>
      </trkpt>
      <trkpt lat="47.431832" lon="7.998870">
        <ele>712.901323</ele>
        <time>2021-11-16T00:24:57.518Z</time>
      </trkpt>
      <trkpt lat="47.432038" lon="7.999152">
        <ele>714.505025</ele>
        <time>2021-11-16T00:25:08.884Z</time>
      </trkpt>
      <trkpt lat="47.432711" lon="7.999579">
        <ele>718.688299</ele>
        <time>2021-11-16T00:25:44.746Z</time>
      </trkpt>
      <trkpt lat="47.432800" lon="7.999710">
        <ele>719.405687</ele>
        <time>2021-11-16T00:25:50.950Z</time>
      </trkpt>
      <trkpt lat="47.432795" lon="7.999877">
        <ele>720.517716</ele>
        <time>2021-11-16T00:25:56.808Z</time>
      </trkpt>
      <trkpt lat="47.432779" lon="7.999924">
        <ele>721.075231</ele>
        <time>2021-11-16T00:25:57.276Z</time>
      </trkpt>
      <trkpt lat="47.432723" lon="7.999986">
        <ele>722.171139</ele>
        <time>2021-11-16T00:26:05.120Z</time>
      </trkpt>
      <trkpt lat="47.432590" lon="8.000023">
        <ele>724.291002</ele>
        <time>2021-11-16T00:26:13.152Z</time>
      </trkpt>
      <trkpt lat="47.432207" lon="7.999836">
        <ele>730.609012</ele>
        <time>2021-11-16T00:26:43.561Z</time>
      </trkpt>
      <trkpt lat="47.431729" lon="7.999779">
        <ele>738.120660</ele>
        <time>2021-11-16T00:27:26.749Z</time>
      </trkpt>
      <trkpt lat="47.430871" lon="7.998792">
        <ele>753.804413</ele>
        <time>2021-11-16T00:29:12.714Z</time>
      </trkpt>
      <trkpt lat="47.430837" lon="7.998796">
        <ele>754.238709</ele>
        <time>2021-11-16T00:29:16.878Z</time>
      </trkpt>
      <trkpt lat="47.430754" lon="7.998487">
        <ele>757.102497</ele>
        <time>2021-11-16T00:29:30.369Z</time>
      </trkpt>
      <trkpt lat="47.430695" lon="7.997762">
        <ele>763.392486</ele>
        <time>2021-11-16T00:30:08.129Z</time>
      </trkpt>
      <trkpt lat="47.430351" lon="7.996950">
        <ele>770.864000</ele>
        <time>2021-11-16T00:30:38.291Z</time>
      </trkpt>
      <trkpt lat="47.430262" lon="7.996571">
        <ele>770.880869</ele>
        <time>2021-11-16T00:30:51.082Z</time>
      </trkpt>
      <trkpt lat="47.429436" lon="7.994888">
        <ele>770.968294</ele>
        <time>2021-11-16T00:31:14.714Z</time>
      </trkpt>
      <trkpt lat="47.429200" lon="7.994283">
        <ele>767.983939</ele>
        <time>2021-11-16T00:31:21.042Z</time>
      </trkpt>
      <trkpt lat="47.429023" lon="7.993750">
        <ele>765.081096</ele>
        <time>2021-11-16T00:31:26.220Z</time>
      </trkpt>
      <trkpt lat="47.428982" lon="7.993609">
        <ele>764.330770</ele>
        <time>2021-11-16T00:31:33.215Z</time>
      </trkpt>
      <trkpt lat="47.428914" lon="7.993346">
        <ele>762.954259</ele>
        <time>2021-11-16T00:31:44.410Z</time>
      </trkpt>
      <trkpt lat="47.428872" lon="7.993171">
        <ele>762.046443</ele>
        <time>2021-11-16T00:31:46.106Z</time>
      </trkpt>
      <trkpt lat="47.428609" lon="7.992725">
        <ele>759.153861</ele>
        <time>2021-11-16T00:31:51.119Z</time>
      </trkpt>
      <trkpt lat="47.428545" lon="7.992620">
        <ele>758.462886</ele>
        <time>2021-11-16T00:31:52.240Z</time>
      </trkpt>
      <trkpt lat="47.428496" lon="7.992596">
        <ele>758.089838</ele>
        <time>2021-11-16T00:31:53.447Z</time>
      </trkpt>
      <trkpt lat="47.428351" lon="7.992640">
        <ele>756.441506</ele>
        <time>2021-11-16T00:31:57.183Z</time>
      </trkpt>
      <trkpt lat="47.428315" lon="7.992705">
        <ele>755.781561</ele>
        <time>2021-11-16T00:31:58.697Z</time>
      </trkpt>
      <trkpt lat="47.428277" lon="7.992767">
        <ele>755.124315</ele>
        <time>2021-11-16T00:32:00.017Z</time>
      </trkpt>
      <trkpt lat="47.428176" lon="7.992702">
        <ele>753.845097</ele>
        <time>2021-11-16T00:32:02.553Z</time>
      </trkpt>
      <trkpt lat="47.428129" lon="7.992884">
        <ele>752.314656</ele>
        <time>2021-11-16T00:32:03.691Z</time>
      </trkpt>
      <trkpt lat="47.428028" lon="7.993079">
        <ele>750.385281</ele>
        <time>2021-11-16T00:32:05.082Z</time>
      </trkpt>
      <trkpt lat="47.427837" lon="7.993254">
        <ele>747.775737</ele>
        <time>2021-11-16T00:32:06.986Z</time>
      </trkpt>
      <trkpt lat="47.427455" lon="7.993289">
        <ele>743.331199</ele>
        <time>2021-11-16T00:32:10.220Z</time>
      </trkpt>
      <trkpt lat="47.426829" lon="7.993140">
        <ele>735.926244</ele>
        <time>2021-11-16T00:32:15.567Z</time>
      </trkpt>
      <trkpt lat="47.426466" lon="7.993064">
        <ele>731.509647</ele>
        <time>2021-11-16T00:32:18.715Z</time>
      </trkpt>
      <trkpt lat="47.426113" lon="7.993088">
        <ele>727.252670</ele>
        <time>2021-11-16T00:32:21.709Z</time>
      </trkpt>
      <trkpt lat="47.426028" lon="7.993134">
        <ele>726.162228</ele>
        <time>2021-11-16T00:32:22.465Z</time>
      </trkpt>
      <trkpt lat="47.425963" lon="7.993206">
        <ele>725.183716</ele>
        <time>2021-11-16T00:32:23.134Z</time>
      </trkpt>
      <trkpt lat="47.425870" lon="7.993341">
        <ele>723.613446</ele>
        <time>2021-11-16T00:32:24.268Z</time>
      </trkpt>
      <trkpt lat="47.425816" lon="7.993454">
        <ele>722.485905</ele>
        <time>2021-11-16T00:32:25.048Z</time>
      </trkpt>
      <trkpt lat="47.425777" lon="7.993636">
        <ele>720.929956</ele>
        <time>2021-11-16T00:32:26.124Z</time>
      </trkpt>
      <trkpt lat="47.425771" lon="7.994045">
        <ele>717.595772</ele>
        <time>2021-11-16T00:32:28.470Z</time>
      </trkpt>
      <trkpt lat="47.425818" lon="7.994422">
        <ele>714.477227</ele>
        <time>2021-11-16T00:32:30.680Z</time>
      </trkpt>
      <trkpt lat="47.425804" lon="7.994602">
        <ele>713.009556</ele>
        <time>2021-11-16T00:32:31.713Z</time>
      </trkpt>
      <trkpt lat="47.425783" lon="7.994718">
        <ele>712.036853</ele>
        <time>2021-11-16T00:32:32.388Z</time>
      </trkpt>
      <trkpt lat="47.425660" lon="7.995044">
        <ele>709.013233</ele>
        <time>2021-11-16T00:32:34.564Z</time>
      </trkpt>
      <trkpt lat="47.425494" lon="7.995217">
        <ele>706.581325</ele>
        <time>2021-11-16T00:32:36.259Z</time>
      </trkpt>
      <trkpt lat="47.424872" lon="7.995320">
        <ele>699.087426</ele>
        <time>2021-11-16T00:32:41.571Z</time>
      </trkpt>
      <trkpt lat="47.424630" lon="7.995489">
        <ele>695.882792</ele>
        <time>2021-11-16T00:32:43.841Z</time>
      </trkpt>
      <trkpt lat="47.424477" lon="7.995840">
        <ele>692.761996</ele>
        <time>2021-11-16T00:32:46.195Z</time>
      </trkpt>
      <trkpt lat="47.424460" lon="7.996091">
        <ele>691.105041</ele>
        <time>2021-11-16T00:32:47.685Z</time>
      </trkpt>
      <trkpt lat="47.424477" lon="7.996317">
        <ele>689.611395</ele>
        <time>2021-11-16T00:32:48.965Z</time>
      </trkpt>
      <trkpt lat="47.424582" lon="7.996654">
        <ele>687.174329</ele>
        <time>2021-11-16T00:32:51.151Z</time>
      </trkpt>
      <trkpt lat="47.424674" lon="7.996943">
        <ele>685.076374</ele>
        <time>2021-11-16T00:32:53.028Z</time>
      </trkpt>
      <trkpt lat="47.424702" lon="7.997032">
        <ele>684.431658</ele>
        <time>2021-11-16T00:32:53.615Z</time>
      </trkpt>
      <trkpt lat="47.424738" lon="7.997183">
        <ele>683.380025</ele>
        <time>2021-11-16T00:32:54.516Z</time>
      </trkpt>
      <trkpt lat="47.424895" lon="7.998348">
        <ele>676.166917</ele>
        <time>2021-11-16T00:33:01.527Z</time>
      </trkpt>
      <trkpt lat="47.425056" lon="7.998898">
        <ele>674.982235</ele>
        <time>2021-11-16T00:33:05.519Z</time>
      </trkpt>
      <trkpt lat="47.425108" lon="7.999100">
        <ele>674.554981</ele>
        <time>2021-11-16T00:33:06.981Z</time>
      </trkpt>
      <trkpt lat="47.425127" lon="7.999299">
        <ele>674.157689</ele>
        <time>2021-11-16T00:33:08.267Z</time>
      </trkpt>
      <trkpt lat="47.425059" lon="8.000259">
        <ele>672.249535</ele>
        <time>2021-11-16T00:33:15.739Z</time>
      </trkpt>
      <trkpt lat="47.425088" lon="8.000815">
        <ele>671.179215</ele>
        <time>2021-11-16T00:33:20.655Z</time>
      </trkpt>
      <trkpt lat="47.425173" lon="8.001272">
        <ele>671.906061</ele>
        <time>2021-11-16T00:33:25.944Z</time>
      </trkpt>
      <trkpt lat="47.425404" lon="8.001972">
        <ele>673.100456</ele>
        <time>2021-11-16T00:33:37.859Z</time>
      </trkpt>
      <trkpt lat="47.425435" lon="8.002187">
        <ele>673.437578</ele>
        <time>2021-11-16T00:33:41.915Z</time>
      </trkpt>
      <trkpt lat="47.425237" lon="8.004043">
        <ele>673.872297</ele>
        <time>2021-11-16T00:34:21.606Z</time>
      </trkpt>
      <trkpt lat="47.425181" lon="8.004177">
        <ele>673.564982</ele>
        <time>2021-11-16T00:34:22.481Z</time>
      </trkpt>
      <trkpt lat="47.425046" lon="8.004288">
        <ele>673.119459</ele>
        <time>2021-11-16T00:34:31.968Z</time>
      </trkpt>
      <trkpt lat="47.425003" lon="8.004300">
        <ele>672.993257</ele>
        <time>2021-11-16T00:34:34.702Z</time>
      </trkpt>
      <trkpt lat="47.424958" lon="8.004297">
        <ele>672.863346</ele>
        <time>2021-11-16T00:34:35.082Z</time>
      </trkpt>
      <trkpt lat="47.424829" lon="8.004199">
        <ele>672.445049</ele>
        <time>2021-11-16T00:34:36.268Z</time>
      </trkpt>
      <trkpt lat="47.424743" lon="8.004017">
        <ele>672.011896</ele>
        <time>2021-11-16T00:34:48.152Z</time>
      </trkpt>
      <trkpt lat="47.424559" lon="8.002506">
        <ele>665.148297</ele>
        <time>2021-11-16T00:34:57.258Z</time>
      </trkpt>
      <trkpt lat="47.424554" lon="8.002464">
        <ele>664.755242</ele>
        <time>2021-11-16T00:34:57.684Z</time>
      </trkpt>
      <trkpt lat="47.424533" lon="8.002308">
        <ele>663.289225</ele>
        <time>2021-11-16T00:34:58.559Z</time>
      </trkpt>
      <trkpt lat="47.424255" lon="8.000417">
        <ele>645.450527</ele>
        <time>2021-11-16T00:35:09.429Z</time>
      </trkpt>
      <trkpt lat="47.423910" lon="7.999342">
        <ele>634.169223</ele>
        <time>2021-11-16T00:35:16.079Z</time>
      </trkpt>
      <trkpt lat="47.423827" lon="7.998389">
        <ele>625.058672</ele>
        <time>2021-11-16T00:35:21.536Z</time>
      </trkpt>
      <trkpt lat="47.423739" lon="7.997914">
        <ele>620.389093</ele>
        <time>2021-11-16T00:35:24.353Z</time>
      </trkpt>
      <trkpt lat="47.423493" lon="7.997325">
        <ele>615.165155</ele>
        <time>2021-11-16T00:35:28.358Z</time>
      </trkpt>
      <trkpt lat="47.422741" lon="7.996312">
        <ele>603.835139</ele>
        <time>2021-11-16T00:35:37.041Z</time>
      </trkpt>
      <trkpt lat="47.422611" lon="7.995359">
        <ele>596.283605</ele>
        <time>2021-11-16T00:35:42.638Z</time>
      </trkpt>
      <trkpt lat="47.422522" lon="7.995131">
        <ele>594.182117</ele>
        <time>2021-11-16T00:35:44.197Z</time>
      </trkpt>
      <trkpt lat="47.422492" lon="7.995090">
        <ele>593.699980</ele>
        <time>2021-11-16T00:35:44.538Z</time>
      </trkpt>
      <trkpt lat="47.422322" lon="7.994923">
        <ele>591.291343</ele>
        <time>2021-11-16T00:35:46.317Z</time>
      </trkpt>
      <trkpt lat="47.422055" lon="7.994874">
        <ele>588.116589</ele>
        <time>2021-11-16T00:35:48.588Z</time>
      </trkpt>
      <trkpt lat="47.421448" lon="7.995189">
        <ele>580.525403</ele>
        <time>2021-11-16T00:35:54.018Z</time>
      </trkpt>
      <trkpt lat="47.421186" lon="7.995163">
        <ele>577.674993</ele>
        <time>2021-11-16T00:35:56.245Z</time>
      </trkpt>
      <trkpt lat="47.420938" lon="7.994912">
        <ele>574.656506</ele>
        <time>2021-11-16T00:35:58.750Z</time>
      </trkpt>
      <trkpt lat="47.420739" lon="7.994556">
        <ele>571.518841</ele>
        <time>2021-11-16T00:36:01.428Z</time>
      </trkpt>
      <trkpt lat="47.420355" lon="7.993802">
        <ele>565.106457</ele>
        <time>2021-11-16T00:36:07.019Z</time>
      </trkpt>
      <trkpt lat="47.420316" lon="7.993737">
        <ele>564.516155</ele>
        <time>2021-11-16T00:36:07.506Z</time>
      </trkpt>
      <trkpt lat="47.419883" lon="7.993141">
        <ele>558.872623</ele>
        <time>2021-11-16T00:36:12.821Z</time>
      </trkpt>
      <trkpt lat="47.419740" lon="7.992744">
        <ele>556.188111</ele>
        <time>2021-11-16T00:36:15.474Z</time>
      </trkpt>
      <trkpt lat="47.419715" lon="7.992327">
        <ele>553.689328</ele>
        <time>2021-11-16T00:36:17.928Z</time>
      </trkpt>
      <trkpt lat="47.419820" lon="7.991499">
        <ele>548.661030</ele>
        <time>2021-11-16T00:36:22.931Z</time>
      </trkpt>
      <trkpt lat="47.419738" lon="7.991038">
        <ele>545.815875</ele>
        <time>2021-11-16T00:36:25.741Z</time>
      </trkpt>
      <trkpt lat="47.419718" lon="7.990996">
        <ele>545.509320</ele>
        <time>2021-11-16T00:36:26.065Z</time>
      </trkpt>
      <trkpt lat="47.419679" lon="7.990928">
        <ele>544.949286</ele>
        <time>2021-11-16T00:36:26.561Z</time>
      </trkpt>
      <trkpt lat="47.419400" lon="7.990631">
        <ele>541.459961</ele>
        <time>2021-11-16T00:36:29.556Z</time>
      </trkpt>
      <trkpt lat="47.418912" lon="7.990235">
        <ele>535.810271</ele>
        <time>2021-11-16T00:36:34.361Z</time>
      </trkpt>
      <trkpt lat="47.418705" lon="7.990069">
        <ele>533.420278</ele>
        <time>2021-11-16T00:36:36.336Z</time>
      </trkpt>
      <trkpt lat="47.418513" lon="7.989916">
        <ele>531.206644</ele>
        <time>2021-11-16T00:36:38.259Z</time>
      </trkpt>
      <trkpt lat="47.417566" lon="7.989166">
        <ele>521.532674</ele>
        <time>2021-11-16T00:36:47.464Z</time>
      </trkpt>
      <trkpt lat="47.417382" lon="7.989029">
        <ele>519.830844</ele>
        <time>2021-11-16T00:36:49.251Z</time>
      </trkpt>
      <trkpt lat="47.416912" lon="7.988562">
        <ele>515.152777</ele>
        <time>2021-11-16T00:36:54.354Z</time>
      </trkpt>
      <trkpt lat="47.416569" lon="7.988004">
        <ele>511.643477</ele>
        <time>2021-11-16T00:36:58.947Z</time>
      </trkpt>
      <trkpt lat="47.416321" lon="7.987699">
        <ele>510.662843</ele>
        <time>2021-11-16T00:37:01.940Z</time>
      </trkpt>
      <trkpt lat="47.415239" lon="7.986924">
        <ele>507.008313</ele>
        <time>2021-11-16T00:37:14.165Z</time>
      </trkpt>
      <trkpt lat="47.415025" lon="7.986604">
        <ele>506.884415</ele>
        <time>2021-11-16T00:37:21.870Z</time>
      </trkpt>
      <trkpt lat="47.414626" lon="7.985681">
        <ele>508.215915</ele>
        <time>2021-11-16T00:37:42.260Z</time>
      </trkpt>
      <trkpt lat="47.414423" lon="7.985446">
        <ele>508.679187</ele>
        <time>2021-11-16T00:37:50.324Z</time>
      </trkpt>
      <trkpt lat="47.414264" lon="7.985381">
        <ele>508.975565</ele>
        <time>2021-11-16T00:37:52.793Z</time>
      </trkpt>
      <trkpt lat="47.414177" lon="7.985372">
        <ele>509.132246</ele>
        <time>2021-11-16T00:37:55.658Z</time>
      </trkpt>
      <trkpt lat="47.414120" lon="7.985383">
        <ele>509.235518</ele>
        <time>2021-11-16T00:37:56.755Z</time>
      </trkpt>
      <trkpt lat="47.414079" lon="7.985396">
        <ele>509.310852</ele>
        <time>2021-11-16T00:37:57.928Z</time>
      </trkpt>
      <trkpt lat="47.414004" lon="7.985427">
        <ele>509.450764</ele>
        <time>2021-11-16T00:37:59.828Z</time>
      </trkpt>
      <trkpt lat="47.413842" lon="7.985578">
        <ele>509.794860</ele>
        <time>2021-11-16T00:38:02.905Z</time>
      </trkpt>
      <trkpt lat="47.413708" lon="7.985860">
        <ele>508.869212</ele>
        <time>2021-11-16T00:38:06.306Z</time>
      </trkpt>
      <trkpt lat="47.413557" lon="7.986404">
        <ele>507.155463</ele>
        <time>2021-11-16T00:38:11.393Z</time>
      </trkpt>
      <trkpt lat="47.413493" lon="7.986726">
        <ele>506.177314</ele>
        <time>2021-11-16T00:38:14.336Z</time>
      </trkpt>
      <trkpt lat="47.413413" lon="7.987069">
        <ele>505.119887</ele>
        <time>2021-11-16T00:38:16.653Z</time>
      </trkpt>
      <trkpt lat="47.413230" lon="7.987852">
        <ele>502.705460</ele>
        <time>2021-11-16T00:38:21.584Z</time>
      </trkpt>
      <trkpt lat="47.412964" lon="7.988572">
        <ele>498.432723</ele>
        <time>2021-11-16T00:38:26.341Z</time>
      </trkpt>
      <trkpt lat="47.412686" lon="7.989032">
        <ele>494.709386</ele>
        <time>2021-11-16T00:38:29.918Z</time>
      </trkpt>
      <trkpt lat="47.412444" lon="7.989410">
        <ele>491.567910</ele>
        <time>2021-11-16T00:38:33.002Z</time>
      </trkpt>
      <trkpt lat="47.411911" lon="7.990245">
        <ele>485.026328</ele>
        <time>2021-11-16T00:38:39.886Z</time>
      </trkpt>
      <trkpt lat="47.411896" lon="7.990275">
        <ele>484.864187</ele>
        <time>2021-11-16T00:38:40.573Z</time>
      </trkpt>
      <trkpt lat="47.411782" lon="7.990459">
        <ele>483.779770</ele>
        <time>2021-11-16T00:38:42.020Z</time>
      </trkpt>
      <trkpt lat="47.411641" lon="7.990682">
        <ele>482.453128</ele>
        <time>2021-11-16T00:38:43.927Z</time>
      </trkpt>
      <trkpt lat="47.411178" lon="7.991293">
        <ele>478.465727</ele>
        <time>2021-11-16T00:38:49.621Z</time>
      </trkpt>
      <trkpt lat="47.410918" lon="7.991867">
        <ele>475.463209</ele>
        <time>2021-11-16T00:38:54.102Z</time>
      </trkpt>
      <trkpt lat="47.410911" lon="7.991894">
        <ele>475.337522</ele>
        <time>2021-11-16T00:38:54.259Z</time>
      </trkpt>
      <trkpt lat="47.410911" lon="7.991894">
        <ele>475.337522</ele>
        <time>2021-11-16T00:38:54.277Z</time>
      </trkpt>
      <trkpt lat="47.410870" lon="7.992113">
        <ele>474.337639</ele>
        <time>2021-11-16T00:38:55.696Z</time>
      </trkpt>
      <trkpt lat="47.410860" lon="7.992731">
        <ele>471.382152</ele>
        <time>2021-11-16T00:38:59.505Z</time>
      </trkpt>
      <trkpt lat="47.411038" lon="7.993958">
        <ele>465.382635</ele>
        <time>2021-11-16T00:39:07.130Z</time>
      </trkpt>
      <trkpt lat="47.411035" lon="7.994069">
        <ele>464.851526</ele>
        <time>2021-11-16T00:39:07.746Z</time>
      </trkpt>
      <trkpt lat="47.411029" lon="7.994255">
        <ele>463.961258</ele>
        <time>2021-11-16T00:39:08.892Z</time>
      </trkpt>
      <trkpt lat="47.410996" lon="7.994555">
        <ele>462.508145</ele>
        <time>2021-11-16T00:39:10.736Z</time>
      </trkpt>
      <trkpt lat="47.410955" lon="7.994799">
        <ele>461.330793</ele>
        <time>2021-11-16T00:39:12.282Z</time>
      </trkpt>
      <trkpt lat="47.410895" lon="7.995177">
        <ele>459.574305</ele>
        <time>2021-11-16T00:39:14.637Z</time>
      </trkpt>
      <trkpt lat="47.410842" lon="7.995586">
        <ele>457.690365</ele>
        <time>2021-11-16T00:39:17.181Z</time>
      </trkpt>
      <trkpt lat="47.410789" lon="7.995936">
        <ele>456.067800</ele>
        <time>2021-11-16T00:39:19.377Z</time>
      </trkpt>
      <trkpt lat="47.410730" lon="7.996495">
        <ele>453.508296</ele>
        <time>2021-11-16T00:39:22.828Z</time>
      </trkpt>
      <trkpt lat="47.410573" lon="7.998302">
        <ele>446.698302</ele>
        <time>2021-11-16T00:39:34.106Z</time>
      </trkpt>
      <trkpt lat="47.410563" lon="7.998432">
        <ele>446.295846</ele>
        <time>2021-11-16T00:39:34.860Z</time>
      </trkpt>
      <trkpt lat="47.410539" lon="7.998750">
        <ele>445.311612</ele>
        <time>2021-11-16T00:39:37.990Z</time>
      </trkpt>
      <trkpt lat="47.410469" lon="7.999337">
        <ele>443.478175</ele>
        <time>2021-11-16T00:39:41.987Z</time>
      </trkpt>
      <trkpt lat="47.410419" lon="7.999549">
        <ele>442.787593</ele>
        <time>2021-11-16T00:39:43.299Z</time>
      </trkpt>
      <trkpt lat="47.410374" lon="7.999735">
        <ele>442.179991</ele>
        <time>2021-11-16T00:39:48.208Z</time>
      </trkpt>
      <trkpt lat="47.410314" lon="7.999955">
        <ele>441.496612</ele>
        <time>2021-11-16T00:39:49.626Z</time>
      </trkpt>
      <trkpt lat="47.410265" lon="8.000090">
        <ele>441.215621</ele>
        <time>2021-11-16T00:39:50.650Z</time>
      </trkpt>
      <trkpt lat="47.410086" lon="8.000529">
        <ele>440.275520</ele>
        <time>2021-11-16T00:39:54.124Z</time>
      </trkpt>
      <trkpt lat="47.409988" lon="8.000760">
        <ele>439.775432</ele>
        <time>2021-11-16T00:39:57.493Z</time>
      </trkpt>
      <trkpt lat="47.409658" lon="8.001493">
        <ele>438.160583</ele>
        <time>2021-11-16T00:40:03.670Z</time>
      </trkpt>
      <trkpt lat="47.409631" lon="8.001555">
        <ele>438.025347</ele>
        <time>2021-11-16T00:40:05.635Z</time>
      </trkpt>
      <trkpt lat="47.409346" lon="8.002206">
        <ele>436.588046</ele>
        <time>2021-11-16T00:40:11.013Z</time>
      </trkpt>
      <trkpt lat="47.409165" lon="8.002620">
        <ele>435.526341</ele>
        <time>2021-11-16T00:40:14.347Z</time>
      </trkpt>
      <trkpt lat="47.408990" lon="8.003018">
        <ele>434.503944</ele>
        <time>2021-11-16T00:40:17.560Z</time>
      </trkpt>
      <trkpt lat="47.408857" lon="8.003323">
        <ele>433.722362</ele>
        <time>2021-11-16T00:40:20.006Z</time>
      </trkpt>
      <trkpt lat="47.408816" lon="8.003405">
        <ele>433.502745</ele>
        <time>2021-11-16T00:40:20.721Z</time>
      </trkpt>
      <trkpt lat="47.408698" lon="8.003619">
        <ele>432.908125</ele>
        <time>2021-11-16T00:40:22.653Z</time>
      </trkpt>
      <trkpt lat="47.408562" lon="8.003845">
        <ele>432.256668</ele>
        <time>2021-11-16T00:40:24.719Z</time>
      </trkpt>
      <trkpt lat="47.408524" lon="8.003903">
        <ele>432.082773</ele>
        <time>2021-11-16T00:40:25.284Z</time>
      </trkpt>
      <trkpt lat="47.408375" lon="8.004118">
        <ele>431.419882</ele>
        <time>2021-11-16T00:40:27.364Z</time>
      </trkpt>
      <trkpt lat="47.408160" lon="8.004389">
        <ele>430.576668</ele>
        <time>2021-11-16T00:40:30.262Z</time>
      </trkpt>
      <trkpt lat="47.408121" lon="8.004419">
        <ele>430.454444</ele>
        <time>2021-11-16T00:40:30.679Z</time>
      </trkpt>
      <trkpt lat="47.407996" lon="8.004508">
        <ele>430.068730</ele>
        <time>2021-11-16T00:40:32.083Z</time>
      </trkpt>
      <trkpt lat="47.407861" lon="8.004588">
        <ele>429.664400</ele>
        <time>2021-11-16T00:40:33.604Z</time>
      </trkpt>
      <trkpt lat="47.407827" lon="8.004602">
        <ele>429.566285</ele>
        <time>2021-11-16T00:40:33.952Z</time>
      </trkpt>
      <trkpt lat="47.407533" lon="8.004764">
        <ele>428.694040</ele>
        <time>2021-11-16T00:40:37.175Z</time>
      </trkpt>
      <trkpt lat="47.407434" lon="8.004867">
        <ele>428.357461</ele>
        <time>2021-11-16T00:40:38.382Z</time>
      </trkpt>
      <trkpt lat="47.407343" lon="8.004993">
        <ele>428.010788</ele>
        <time>2021-11-16T00:40:39.686Z</time>
      </trkpt>
      <trkpt lat="47.407258" lon="8.005103">
        <ele>427.696691</ele>
        <time>2021-11-16T00:40:40.921Z</time>
      </trkpt>
      <trkpt lat="47.407210" lon="8.005174">
        <ele>427.507889</ele>
        <time>2021-11-16T00:40:41.611Z</time>
      </trkpt>
      <trkpt lat="47.407161" lon="8.005248">
        <ele>427.313119</ele>
        <time>2021-11-16T00:40:42.333Z</time>
      </trkpt>
      <trkpt lat="47.407096" lon="8.005346">
        <ele>427.054970</ele>
        <time>2021-11-16T00:40:43.302Z</time>
      </trkpt>
      <trkpt lat="47.407034" lon="8.005521">
        <ele>426.683353</ele>
        <time>2021-11-16T00:40:44.812Z</time>
      </trkpt>
      <trkpt lat="47.406968" lon="8.005861">
        <ele>426.017906</ele>
        <time>2021-11-16T00:40:47.312Z</time>
      </trkpt>
      <trkpt lat="47.406945" lon="8.005975">
        <ele>425.848474</ele>
        <time>2021-11-16T00:40:48.301Z</time>
      </trkpt>
      <trkpt lat="47.406875" lon="8.006223">
        <ele>425.503861</ele>
        <time>2021-11-16T00:40:50.285Z</time>
      </trkpt>
      <trkpt lat="47.406834" lon="8.006372">
        <ele>425.297578</ele>
        <time>2021-11-16T00:40:51.440Z</time>
      </trkpt>
      <trkpt lat="47.406827" lon="8.006396">
        <ele>425.264061</ele>
        <time>2021-11-16T00:40:51.696Z</time>
      </trkpt>
      <trkpt lat="47.406797" lon="8.006505">
        <ele>425.113151</ele>
        <time>2021-11-16T00:40:52.562Z</time>
      </trkpt>
      <trkpt lat="47.406711" lon="8.006770">
        <ele>424.736235</ele>
        <time>2021-11-16T00:40:54.690Z</time>
      </trkpt>
      <trkpt lat="47.406616" lon="8.006959">
        <ele>424.434303</ele>
        <time>2021-11-16T00:40:56.419Z</time>
      </trkpt>
      <trkpt lat="47.406591" lon="8.007007">
        <ele>424.356624</ele>
        <time>2021-11-16T00:40:56.883Z</time>
      </trkpt>
      <trkpt lat="47.406542" lon="8.007065">
        <ele>424.237649</ele>
        <time>2021-11-16T00:40:57.583Z</time>
      </trkpt>
      <trkpt lat="47.406380" lon="8.007179">
        <ele>423.897624</ele>
        <time>2021-11-16T00:40:59.477Z</time>
      </trkpt>
      <trkpt lat="47.406348" lon="8.007199">
        <ele>423.831782</ele>
        <time>2021-11-16T00:40:59.853Z</time>
      </trkpt>
      <trkpt lat="47.406056" lon="8.007317">
        <ele>423.258126</ele>
        <time>2021-11-16T00:41:03.234Z</time>
      </trkpt>
      <trkpt lat="47.406049" lon="8.007319">
        <ele>423.244615</ele>
        <time>2021-11-16T00:41:03.346Z</time>
      </trkpt>
      <trkpt lat="47.405857" lon="8.007395">
        <ele>422.867949</ele>
        <time>2021-11-16T00:41:05.618Z</time>
      </trkpt>
      <trkpt lat="47.405697" lon="8.007460">
        <ele>422.555737</ele>
        <time>2021-11-16T00:41:07.545Z</time>
      </trkpt>
      <trkpt lat="47.405697" lon="8.007460">
        <ele>422.555737</ele>
        <time>2021-11-16T00:41:07.546Z</time>
      </trkpt>
      <trkpt lat="47.405697" lon="8.007460">
        <ele>422.555737</ele>
        <time>2021-11-16T00:41:07.556Z</time>
      </trkpt>
      <trkpt lat="47.405727" lon="8.007587">
        <ele>422.511259</ele>
        <time>2021-11-16T00:41:09.054Z</time>
      </trkpt>
      <trkpt lat="47.405783" lon="8.007758">
        <ele>422.448446</ele>
        <time>2021-11-16T00:41:11.477Z</time>
      </trkpt>
      <trkpt lat="47.406043" lon="8.008364">
        <ele>422.211201</ele>
        <time>2021-11-16T00:41:20.202Z</time>
      </trkpt>
      <trkpt lat="47.406048" lon="8.008375">
        <ele>422.206819</ele>
        <time>2021-11-16T00:41:20.359Z</time>
      </trkpt>
      <trkpt lat="47.406189" lon="8.008745">
        <ele>422.066418</ele>
        <time>2021-11-16T00:41:25.735Z</time>
      </trkpt>
      <trkpt lat="47.406274" lon="8.009096">
        <ele>421.943154</ele>
        <time>2021-11-16T00:41:30.460Z</time>
      </trkpt>
      <trkpt lat="47.406357" lon="8.009389">
        <ele>421.838129</ele>
        <time>2021-11-16T00:41:34.387Z</time>
      </trkpt>
      <trkpt lat="47.406502" lon="8.009908">
        <ele>421.743071</ele>
        <time>2021-11-16T00:41:42.135Z</time>
      </trkpt>
      <trkpt lat="47.406625" lon="8.010347">
        <ele>422.148406</ele>
        <time>2021-11-16T00:41:49.114Z</time>
      </trkpt>
      <trkpt lat="47.406735" lon="8.010774">
        <ele>422.538175</ele>
        <time>2021-11-16T00:41:56.863Z</time>
      </trkpt>
      <trkpt lat="47.406771" lon="8.011214">
        <ele>422.916270</ele>
        <time>2021-11-16T00:42:04.625Z</time>
      </trkpt>
      <trkpt lat="47.406756" lon="8.011354">
        <ele>423.037191</ele>
        <time>2021-11-16T00:42:07.226Z</time>
      </trkpt>
      <trkpt lat="47.406733" lon="8.011362">
        <ele>423.066975</ele>
        <time>2021-11-16T00:42:07.804Z</time>
      </trkpt>
      <trkpt lat="47.406717" lon="8.011377">
        <ele>423.090860</ele>
        <time>2021-11-16T00:42:08.292Z</time>
      </trkpt>
      <trkpt lat="47.406698" lon="8.011415">
        <ele>423.131165</ele>
        <time>2021-11-16T00:42:09.090Z</time>
      </trkpt>
      <trkpt lat="47.406692" lon="8.011449">
        <ele>423.161140</ele>
        <time>2021-11-16T00:42:09.782Z</time>
      </trkpt>
      <trkpt lat="47.406725" lon="8.011540">
        <ele>423.249214</ele>
        <time>2021-11-16T00:42:11.774Z</time>
      </trkpt>
      <trkpt lat="47.406753" lon="8.011554">
        <ele>423.286474</ele>
        <time>2021-11-16T00:42:12.645Z</time>
      </trkpt>
      <trkpt lat="47.406746" lon="8.011698">
        <ele>423.409637</ele>
        <time>2021-11-16T00:42:15.339Z</time>
      </trkpt>
      <trkpt lat="47.406813" lon="8.012251">
        <ele>423.888899</ele>
        <time>2021-11-16T00:42:25.994Z</time>
      </trkpt>
      <trkpt lat="47.406882" lon="8.012406">
        <ele>424.147438</ele>
        <time>2021-11-16T00:42:29.153Z</time>
      </trkpt>
      <trkpt lat="47.406967" lon="8.012566">
        <ele>424.491229</ele>
        <time>2021-11-16T00:42:33.100Z</time>
      </trkpt>
      <trkpt lat="47.407509" lon="8.013393">
        <ele>426.436963</ele>
        <time>2021-11-16T00:42:55.984Z</time>
      </trkpt>
      <trkpt lat="47.407720" lon="8.013717">
        <ele>427.196925</ele>
        <time>2021-11-16T00:43:05.503Z</time>
      </trkpt>
      <trkpt lat="47.407760" lon="8.013778">
        <ele>427.340481</ele>
        <time>2021-11-16T00:43:07.445Z</time>
      </trkpt>
      <trkpt lat="47.408086" lon="8.014424">
        <ele>428.796665</ele>
        <time>2021-11-16T00:43:24.887Z</time>
      </trkpt>
      <trkpt lat="47.408124" lon="8.014522">
        <ele>429.055282</ele>
        <time>2021-11-16T00:43:27.461Z</time>
      </trkpt>
      <trkpt lat="47.408179" lon="8.014663">
        <ele>429.427925</ele>
        <time>2021-11-16T00:43:31.141Z</time>
      </trkpt>
      <trkpt lat="47.408266" lon="8.014890">
        <ele>430.025257</ele>
        <time>2021-11-16T00:43:36.710Z</time>
      </trkpt>
      <trkpt lat="47.408588" lon="8.015721">
        <ele>432.217838</ele>
        <time>2021-11-16T00:43:58.465Z</time>
      </trkpt>
      <trkpt lat="47.408667" lon="8.015926">
        <ele>432.757997</ele>
        <time>2021-11-16T00:44:03.864Z</time>
      </trkpt>
      <trkpt lat="47.408732" lon="8.016063">
        <ele>433.141099</ele>
        <time>2021-11-16T00:44:07.653Z</time>
      </trkpt>
      <trkpt lat="47.408776" lon="8.016155">
        <ele>433.399046</ele>
        <time>2021-11-16T00:44:10.240Z</time>
      </trkpt>
      <trkpt lat="47.408915" lon="8.016447">
        <ele>434.216475</ele>
        <time>2021-11-16T00:44:18.812Z</time>
      </trkpt>
      <trkpt lat="47.409060" lon="8.016753">
        <ele>435.221183</ele>
        <time>2021-11-16T00:44:28.032Z</time>
      </trkpt>
      <trkpt lat="47.409343" lon="8.017378">
        <ele>437.411047</ele>
        <time>2021-11-16T00:44:46.392Z</time>
      </trkpt>
      <trkpt lat="47.409368" lon="8.017431">
        <ele>437.599177</ele>
        <time>2021-11-16T00:44:47.975Z</time>
      </trkpt>
      <trkpt lat="47.409704" lon="8.018191">
        <ele>440.242751</ele>
        <time>2021-11-16T00:45:10.642Z</time>
      </trkpt>
      <trkpt lat="47.409896" lon="8.018648">
        <ele>441.809153</ele>
        <time>2021-11-16T00:45:24.319Z</time>
      </trkpt>
      <trkpt lat="47.410592" lon="8.020901">
        <ele>451.881896</ele>
        <time>2021-11-16T00:46:36.248Z</time>
      </trkpt>
      <trkpt lat="47.410669" lon="8.021182">
        <ele>453.138328</ele>
        <time>2021-11-16T00:46:47.378Z</time>
      </trkpt>
      <trkpt lat="47.410773" lon="8.021578">
        <ele>455.601060</ele>
        <time>2021-11-16T00:47:03.067Z</time>
      </trkpt>
      <trkpt lat="47.410787" lon="8.021634">
        <ele>455.955612</ele>
        <time>2021-11-16T00:47:05.803Z</time>
      </trkpt>
      <trkpt lat="47.410963" lon="8.022189">
        <ele>459.595691</ele>
        <time>2021-11-16T00:47:28.641Z</time>
      </trkpt>
      <trkpt lat="47.411033" lon="8.022399">
        <ele>460.985960</ele>
        <time>2021-11-16T00:47:37.513Z</time>
      </trkpt>
      <trkpt lat="47.411154" lon="8.022767">
        <ele>463.415810</ele>
        <time>2021-11-16T00:47:53.000Z</time>
      </trkpt>
      <trkpt lat="47.411314" lon="8.023137">
        <ele>466.023535</ele>
        <time>2021-11-16T00:48:09.859Z</time>
      </trkpt>
      <trkpt lat="47.411453" lon="8.023353">
        <ele>467.793743</ele>
        <time>2021-11-16T00:48:21.536Z</time>
      </trkpt>
      <trkpt lat="47.412315" lon="8.024448">
        <ele>476.698130</ele>
        <time>2021-11-16T00:49:26.746Z</time>
      </trkpt>
      <trkpt lat="47.412638" lon="8.025236">
        <ele>481.496266</ele>
        <time>2021-11-16T00:49:54.777Z</time>
      </trkpt>
      <trkpt lat="47.412713" lon="8.025420">
        <ele>482.614963</ele>
        <time>2021-11-16T00:50:01.678Z</time>
      </trkpt>
      <trkpt lat="47.412901" lon="8.025842">
        <ele>483.489186</ele>
        <time>2021-11-16T00:50:15.652Z</time>
      </trkpt>
      <trkpt lat="47.413284" lon="8.026494">
        <ele>484.612236</ele>
        <time>2021-11-16T00:50:35.836Z</time>
      </trkpt>
      <trkpt lat="47.413381" lon="8.026777">
        <ele>485.024875</ele>
        <time>2021-11-16T00:50:42.362Z</time>
      </trkpt>
      <trkpt lat="47.413451" lon="8.027278">
        <ele>485.690295</ele>
        <time>2021-11-16T00:50:50.939Z</time>
      </trkpt>
      <trkpt lat="47.413463" lon="8.027501">
        <ele>485.981276</ele>
        <time>2021-11-16T00:50:53.785Z</time>
      </trkpt>
      <trkpt lat="47.413506" lon="8.028358">
        <ele>483.540639</ele>
        <time>2021-11-16T00:51:02.292Z</time>
      </trkpt>
      <trkpt lat="47.413600" lon="8.029589">
        <ele>477.377287</ele>
        <time>2021-11-16T00:51:12.929Z</time>
      </trkpt>
      <trkpt lat="47.413715" lon="8.029962">
        <ele>475.338005</ele>
        <time>2021-11-16T00:51:16.297Z</time>
      </trkpt>
      <trkpt lat="47.413786" lon="8.030085">
        <ele>474.533662</ele>
        <time>2021-11-16T00:51:17.581Z</time>
      </trkpt>
      <trkpt lat="47.414071" lon="8.030404">
        <ele>471.373149</ele>
        <time>2021-11-16T00:51:21.868Z</time>
      </trkpt>
      <trkpt lat="47.414429" lon="8.031176">
        <ele>464.707558</ele>
        <time>2021-11-16T00:51:29.554Z</time>
      </trkpt>
      <trkpt lat="47.414541" lon="8.031507">
        <ele>462.071799</ele>
        <time>2021-11-16T00:51:32.515Z</time>
      </trkpt>
      <trkpt lat="47.414719" lon="8.032056">
        <ele>457.736044</ele>
        <time>2021-11-16T00:51:37.468Z</time>
      </trkpt>
      <trkpt lat="47.414898" lon="8.032536">
        <ele>453.999517</ele>
        <time>2021-11-16T00:51:42.075Z</time>
      </trkpt>
      <trkpt lat="47.415199" lon="8.033098">
        <ele>451.171966</ele>
        <time>2021-11-16T00:51:48.275Z</time>
      </trkpt>
      <trkpt lat="47.415294" lon="8.033184">
        <ele>450.522462</ele>
        <time>2021-11-16T00:51:49.645Z</time>
      </trkpt>
      <trkpt lat="47.415529" lon="8.033430">
        <ele>448.843517</ele>
        <time>2021-11-16T00:51:53.566Z</time>
      </trkpt>
      <trkpt lat="47.416251" lon="8.034389">
        <ele>443.371967</ele>
        <time>2021-11-16T00:52:07.056Z</time>
      </trkpt>
      <trkpt lat="47.416428" lon="8.035565">
        <ele>440.284261</ele>
        <time>2021-11-16T00:52:18.471Z</time>
      </trkpt>
      <trkpt lat="47.416494" lon="8.035808">
        <ele>439.613164</ele>
        <time>2021-11-16T00:52:20.985Z</time>
      </trkpt>
      <trkpt lat="47.416805" lon="8.036430">
        <ele>437.631017</ele>
        <time>2021-11-16T00:52:28.571Z</time>
      </trkpt>
      <trkpt lat="47.416968" lon="8.036700">
        <ele>436.752285</ele>
        <time>2021-11-16T00:52:32.012Z</time>
      </trkpt>
      <trkpt lat="47.417255" lon="8.037083">
        <ele>435.636143</ele>
        <time>2021-11-16T00:52:37.535Z</time>
      </trkpt>
      <trkpt lat="47.417307" lon="8.037152">
        <ele>435.434430</ele>
        <time>2021-11-16T00:52:38.578Z</time>
      </trkpt>
      <trkpt lat="47.417476" lon="8.037467">
        <ele>434.649296</ele>
        <time>2021-11-16T00:52:42.436Z</time>
      </trkpt>
      <trkpt lat="47.417504" lon="8.037584">
        <ele>434.406917</ele>
        <time>2021-11-16T00:52:43.687Z</time>
      </trkpt>
      <trkpt lat="47.417519" lon="8.037633">
        <ele>434.301878</ele>
        <time>2021-11-16T00:52:44.240Z</time>
      </trkpt>
      <trkpt lat="47.417542" lon="8.037802">
        <ele>433.965201</ele>
        <time>2021-11-16T00:52:45.891Z</time>
      </trkpt>
      <trkpt lat="47.417558" lon="8.038000">
        <ele>433.575747</ele>
        <time>2021-11-16T00:52:47.877Z</time>
      </trkpt>
      <trkpt lat="47.417565" lon="8.038104">
        <ele>433.371626</ele>
        <time>2021-11-16T00:52:48.986Z</time>
      </trkpt>
      <trkpt lat="47.417588" lon="8.038317">
        <ele>432.950361</ele>
        <time>2021-11-16T00:52:51.216Z</time>
      </trkpt>
      <trkpt lat="47.417599" lon="8.038451">
        <ele>432.686732</ele>
        <time>2021-11-16T00:52:52.560Z</time>
      </trkpt>
      <trkpt lat="47.417675" lon="8.038962">
        <ele>431.695041</ele>
        <time>2021-11-16T00:52:58.146Z</time>
      </trkpt>
      <trkpt lat="47.417926" lon="8.039748">
        <ele>430.988907</ele>
        <time>2021-11-16T00:53:08.496Z</time>
      </trkpt>
      <trkpt lat="47.417953" lon="8.039817">
        <ele>430.924149</ele>
        <time>2021-11-16T00:53:09.270Z</time>
      </trkpt>
      <trkpt lat="47.418234" lon="8.040562">
        <ele>430.231187</ele>
        <time>2021-11-16T00:53:19.069Z</time>
      </trkpt>
      <trkpt lat="47.418451" lon="8.041341">
        <ele>429.547885</ele>
        <time>2021-11-16T00:53:28.935Z</time>
      </trkpt>
      <trkpt lat="47.418463" lon="8.041419">
        <ele>429.490146</ele>
        <time>2021-11-16T00:53:30.259Z</time>
      </trkpt>
      <trkpt lat="47.418504" lon="8.041630">
        <ele>429.331688</ele>
        <time>2021-11-16T00:53:32.974Z</time>
      </trkpt>
      <trkpt lat="47.418527" lon="8.041802">
        <ele>429.205135</ele>
        <time>2021-11-16T00:53:34.909Z</time>
      </trkpt>
      <trkpt lat="47.418567" lon="8.042054">
        <ele>429.018300</ele>
        <time>2021-11-16T00:53:38.518Z</time>
      </trkpt>
      <trkpt lat="47.418570" lon="8.042091">
        <ele>428.991402</ele>
        <time>2021-11-16T00:53:38.982Z</time>
      </trkpt>
      <trkpt lat="47.418606" lon="8.042286">
        <ele>428.845503</ele>
        <time>2021-11-16T00:53:41.475Z</time>
      </trkpt>
      <trkpt lat="47.418671" lon="8.042513">
        <ele>428.667584</ele>
        <time>2021-11-16T00:53:44.535Z</time>
      </trkpt>
      <trkpt lat="47.418724" lon="8.042657">
        <ele>428.549261</ele>
        <time>2021-11-16T00:53:46.561Z</time>
      </trkpt>
      <trkpt lat="47.418770" lon="8.042792">
        <ele>428.440158</ele>
        <time>2021-11-16T00:53:48.287Z</time>
      </trkpt>
      <trkpt lat="47.418835" lon="8.042943">
        <ele>428.310978</ele>
        <time>2021-11-16T00:53:50.464Z</time>
      </trkpt>
      <trkpt lat="47.418882" lon="8.043051">
        <ele>428.218291</ele>
        <time>2021-11-16T00:53:51.960Z</time>
      </trkpt>
      <trkpt lat="47.418966" lon="8.043211">
        <ele>428.072115</ele>
        <time>2021-11-16T00:53:54.183Z</time>
      </trkpt>
      <trkpt lat="47.419041" lon="8.043337">
        <ele>427.950985</ele>
        <time>2021-11-16T00:53:56.071Z</time>
      </trkpt>
      <trkpt lat="47.419124" lon="8.043471">
        <ele>427.819856</ele>
        <time>2021-11-16T00:53:58.082Z</time>
      </trkpt>
      <trkpt lat="47.419203" lon="8.043582">
        <ele>427.703574</ele>
        <time>2021-11-16T00:53:59.792Z</time>
      </trkpt>
      <trkpt lat="47.419418" lon="8.043891">
        <ele>427.118754</ele>
        <time>2021-11-16T00:54:04.530Z</time>
      </trkpt>
      <trkpt lat="47.419290" lon="8.044087">
        <ele>426.717470</ele>
        <time>2021-11-16T00:54:06.449Z</time>
      </trkpt>
      <trkpt lat="47.419003" lon="8.044708">
        <ele>425.609619</ele>
        <time>2021-11-16T00:54:12.124Z</time>
      </trkpt>
      <trkpt lat="47.418931" lon="8.044951">
        <ele>425.218827</ele>
        <time>2021-11-16T00:54:13.984Z</time>
      </trkpt>
      <trkpt lat="47.418751" lon="8.045723">
        <ele>424.015929</ele>
        <time>2021-11-16T00:54:19.834Z</time>
      </trkpt>
      <trkpt lat="47.418700" lon="8.045929">
        <ele>423.726032</ele>
        <time>2021-11-16T00:54:21.328Z</time>
      </trkpt>
      <trkpt lat="47.418443" lon="8.046572">
        <ele>423.870053</ele>
        <time>2021-11-16T00:54:27.060Z</time>
      </trkpt>
      <trkpt lat="47.418416" lon="8.046623">
        <ele>423.882541</ele>
        <time>2021-11-16T00:54:27.518Z</time>
      </trkpt>
      <trkpt lat="47.418380" lon="8.046691">
        <ele>423.899192</ele>
        <time>2021-11-16T00:54:28.128Z</time>
      </trkpt>
      <trkpt lat="47.418150" lon="8.046912">
        <ele>423.977382</ele>
        <time>2021-11-16T00:54:31.712Z</time>
      </trkpt>
      <trkpt lat="47.418081" lon="8.046958">
        <ele>423.998957</ele>
        <time>2021-11-16T00:54:32.619Z</time>
      </trkpt>
      <trkpt lat="47.417974" lon="8.047018">
        <ele>424.031575</ele>
        <time>2021-11-16T00:54:34.505Z</time>
      </trkpt>
      <trkpt lat="47.417855" lon="8.047064">
        <ele>424.066632</ele>
        <time>2021-11-16T00:54:37.263Z</time>
      </trkpt>
      <trkpt lat="47.417795" lon="8.047088">
        <ele>424.084348</ele>
        <time>2021-11-16T00:54:38.407Z</time>
      </trkpt>
      <trkpt lat="47.417655" lon="8.047116">
        <ele>424.124614</ele>
        <time>2021-11-16T00:54:41.276Z</time>
      </trkpt>
      <trkpt lat="47.417615" lon="8.047155">
        <ele>424.138272</ele>
        <time>2021-11-16T00:54:42.398Z</time>
      </trkpt>
      <trkpt lat="47.417590" lon="8.047205">
        <ele>424.150262</ele>
        <time>2021-11-16T00:54:43.281Z</time>
      </trkpt>
      <trkpt lat="47.417594" lon="8.047260">
        <ele>424.160930</ele>
        <time>2021-11-16T00:54:44.820Z</time>
      </trkpt>
      <trkpt lat="47.417617" lon="8.047332">
        <ele>424.176285</ele>
        <time>2021-11-16T00:54:46.215Z</time>
      </trkpt>
      <trkpt lat="47.418123" lon="8.047882">
        <ele>426.442971</ele>
        <time>2021-11-16T00:55:04.187Z</time>
      </trkpt>
      <trkpt lat="47.418193" lon="8.047958">
        <ele>426.896673</ele>
        <time>2021-11-16T00:55:07.622Z</time>
      </trkpt>
      <trkpt lat="47.418393" lon="8.048179">
        <ele>428.201080</ele>
        <time>2021-11-16T00:55:16.745Z</time>
      </trkpt>
      <trkpt lat="47.418715" lon="8.048536">
        <ele>430.303692</ele>
        <time>2021-11-16T00:55:33.294Z</time>
      </trkpt>
      <trkpt lat="47.419429" lon="8.049326">
        <ele>434.636603</ele>
        <time>2021-11-16T00:56:08.332Z</time>
      </trkpt>
      <trkpt lat="47.419619" lon="8.049537">
        <ele>435.574356</ele>
        <time>2021-11-16T00:56:18.626Z</time>
      </trkpt>
      <trkpt lat="47.420012" lon="8.049972">
        <ele>437.511720</ele>
        <time>2021-11-16T00:56:29.545Z</time>
      </trkpt>
      <trkpt lat="47.420508" lon="8.050508">
        <ele>439.936174</ele>
        <time>2021-11-16T00:56:48.510Z</time>
      </trkpt>
      <trkpt lat="47.420568" lon="8.050577">
        <ele>440.236146</ele>
        <time>2021-11-16T00:56:49.223Z</time>
      </trkpt>
      <trkpt lat="47.421406" lon="8.051509">
        <ele>444.635349</ele>
        <time>2021-11-16T00:57:20.752Z</time>
      </trkpt>
      <trkpt lat="47.421741" lon="8.051883">
        <ele>446.410464</ele>
        <time>2021-11-16T00:57:32.770Z</time>
      </trkpt>
      <trkpt lat="47.421847" lon="8.051993">
        <ele>446.958091</ele>
        <time>2021-11-16T00:57:37.135Z</time>
      </trkpt>
      <trkpt lat="47.421955" lon="8.052114">
        <ele>447.531102</ele>
        <time>2021-11-16T00:57:42.282Z</time>
      </trkpt>
      <trkpt lat="47.422217" lon="8.052415">
        <ele>449.529109</ele>
        <time>2021-11-16T00:57:54.807Z</time>
      </trkpt>
      <trkpt lat="47.422377" lon="8.052651">
        <ele>451.428883</ele>
        <time>2021-11-16T00:58:04.176Z</time>
      </trkpt>
      <trkpt lat="47.422431" lon="8.052751">
        <ele>452.156422</ele>
        <time>2021-11-16T00:58:08.854Z</time>
      </trkpt>
      <trkpt lat="47.422513" lon="8.052957">
        <ele>453.515497</ele>
        <time>2021-11-16T00:58:15.343Z</time>
      </trkpt>
      <trkpt lat="47.422643" lon="8.053514">
        <ele>456.865924</ele>
        <time>2021-11-16T00:58:35.866Z</time>
      </trkpt>
      <trkpt lat="47.422615" lon="8.054334">
        <ele>461.534631</ele>
        <time>2021-11-16T00:59:04.575Z</time>
      </trkpt>
      <trkpt lat="47.422615" lon="8.054564">
        <ele>462.842482</ele>
        <time>2021-11-16T00:59:11.987Z</time>
      </trkpt>
      <trkpt lat="47.422640" lon="8.054788">
        <ele>464.449098</ele>
        <time>2021-11-16T00:59:21.589Z</time>
      </trkpt>
      <trkpt lat="47.422843" lon="8.055226">
        <ele>468.859217</ele>
        <time>2021-11-16T00:59:42.552Z</time>
      </trkpt>
      <trkpt lat="47.422879" lon="8.055332">
        <ele>469.844432</ele>
        <time>2021-11-16T00:59:47.596Z</time>
      </trkpt>
      <trkpt lat="47.422870" lon="8.055395">
        <ele>470.379291</ele>
        <time>2021-11-16T00:59:49.978Z</time>
      </trkpt>
      <trkpt lat="47.422875" lon="8.055459">
        <ele>470.914451</ele>
        <time>2021-11-16T00:59:51.728Z</time>
      </trkpt>
      <trkpt lat="47.422895" lon="8.055516">
        <ele>471.447816</ele>
        <time>2021-11-16T00:59:54.785Z</time>
      </trkpt>
      <trkpt lat="47.422925" lon="8.055556">
        <ele>471.943864</ele>
        <time>2021-11-16T00:59:57.860Z</time>
      </trkpt>
      <trkpt lat="47.423040" lon="8.055573">
        <ele>473.362812</ele>
        <time>2021-11-16T01:00:05.434Z</time>
      </trkpt>
      <trkpt lat="47.423116" lon="8.055382">
        <ele>475.203424</ele>
        <time>2021-11-16T01:00:14.598Z</time>
      </trkpt>
      <trkpt lat="47.423105" lon="8.055325">
        <ele>475.695787</ele>
        <time>2021-11-16T01:00:17.492Z</time>
      </trkpt>
      <trkpt lat="47.423282" lon="8.055241">
        <ele>477.978164</ele>
        <time>2021-11-16T01:00:31.927Z</time>
      </trkpt>
      <trkpt lat="47.423711" lon="8.055037">
        <ele>483.511060</ele>
        <time>2021-11-16T01:01:03.965Z</time>
      </trkpt>
      <trkpt lat="47.424368" lon="8.054668">
        <ele>491.356776</ele>
        <time>2021-11-16T01:01:49.782Z</time>
      </trkpt>
      <trkpt lat="47.424669" lon="8.054420">
        <ele>495.086219</ele>
        <time>2021-11-16T01:02:10.223Z</time>
      </trkpt>
      <trkpt lat="47.424943" lon="8.054141">
        <ele>498.687082</ele>
        <time>2021-11-16T01:02:29.111Z</time>
      </trkpt>
      <trkpt lat="47.425153" lon="8.053972">
        <ele>501.274798</ele>
        <time>2021-11-16T01:02:42.516Z</time>
      </trkpt>
      <trkpt lat="47.425338" lon="8.053881">
        <ele>503.384885</ele>
        <time>2021-11-16T01:02:52.678Z</time>
      </trkpt>
      <trkpt lat="47.425386" lon="8.053857">
        <ele>503.933274</ele>
        <time>2021-11-16T01:02:55.936Z</time>
      </trkpt>
      <trkpt lat="47.425993" lon="8.053794">
        <ele>508.121127</ele>
        <time>2021-11-16T01:03:22.880Z</time>
      </trkpt>
      <trkpt lat="47.426076" lon="8.053783">
        <ele>508.631423</ele>
        <time>2021-11-16T01:03:27.250Z</time>
      </trkpt>
      <trkpt lat="47.426253" lon="8.053723">
        <ele>509.743436</ele>
        <time>2021-11-16T01:03:33.088Z</time>
      </trkpt>
      <trkpt lat="47.427063" lon="8.053089">
        <ele>515.356046</ele>
        <time>2021-11-16T01:04:06.164Z</time>
      </trkpt>
      <trkpt lat="47.427251" lon="8.053032">
        <ele>516.513592</ele>
        <time>2021-11-16T01:04:10.925Z</time>
      </trkpt>
      <trkpt lat="47.428009" lon="8.053094">
        <ele>521.004664</ele>
        <time>2021-11-16T01:04:38.187Z</time>
      </trkpt>
      <trkpt lat="47.428920" lon="8.053075">
        <ele>526.394536</ele>
        <time>2021-11-16T01:05:13.316Z</time>
      </trkpt>
      <trkpt lat="47.428995" lon="8.053069">
        <ele>526.900419</ele>
        <time>2021-11-16T01:05:21.263Z</time>
      </trkpt>
      <trkpt lat="47.429301" lon="8.053034">
        <ele>529.311776</ele>
        <time>2021-11-16T01:05:32.997Z</time>
      </trkpt>
      <trkpt lat="47.429398" lon="8.053003">
        <ele>530.091491</ele>
        <time>2021-11-16T01:05:37.751Z</time>
      </trkpt>
      <trkpt lat="47.429874" lon="8.052772">
        <ele>534.027695</ele>
        <time>2021-11-16T01:06:00.726Z</time>
      </trkpt>
      <trkpt lat="47.429977" lon="8.052686">
        <ele>534.957112</ele>
        <time>2021-11-16T01:06:07.011Z</time>
      </trkpt>
      <trkpt lat="47.430068" lon="8.052606">
        <ele>535.788961</ele>
        <time>2021-11-16T01:06:12.699Z</time>
      </trkpt>
      <trkpt lat="47.430875" lon="8.051671">
        <ele>543.334516</ele>
        <time>2021-11-16T01:06:58.842Z</time>
      </trkpt>
      <trkpt lat="47.431259" lon="8.051470">
        <ele>546.001680</ele>
        <time>2021-11-16T01:07:18.401Z</time>
      </trkpt>
      <trkpt lat="47.431340" lon="8.051455">
        <ele>546.536164</ele>
        <time>2021-11-16T01:07:22.176Z</time>
      </trkpt>
      <trkpt lat="47.431460" lon="8.051423">
        <ele>547.334533</ele>
        <time>2021-11-16T01:07:25.676Z</time>
      </trkpt>
      <trkpt lat="47.431625" lon="8.051403">
        <ele>548.418478</ele>
        <time>2021-11-16T01:07:30.989Z</time>
      </trkpt>
      <trkpt lat="47.431736" lon="8.051401">
        <ele>549.145293</ele>
        <time>2021-11-16T01:07:35.396Z</time>
      </trkpt>
      <trkpt lat="47.432266" lon="8.051392">
        <ele>552.627308</ele>
        <time>2021-11-16T01:07:54.012Z</time>
      </trkpt>
      <trkpt lat="47.432475" lon="8.051388">
        <ele>554.278881</ele>
        <time>2021-11-16T01:08:03.320Z</time>
      </trkpt>
      <trkpt lat="47.432929" lon="8.051465">
        <ele>557.889741</ele>
        <time>2021-11-16T01:08:21.479Z</time>
      </trkpt>
      <trkpt lat="47.433090" lon="8.051571">
        <ele>559.282362</ele>
        <time>2021-11-16T01:08:29.821Z</time>
      </trkpt>
      <trkpt lat="47.433326" lon="8.051878">
        <ele>561.766317</ele>
        <time>2021-11-16T01:08:43.026Z</time>
      </trkpt>
      <trkpt lat="47.433349" lon="8.051934">
        <ele>562.116491</ele>
        <time>2021-11-16T01:08:46.643Z</time>
      </trkpt>
      <trkpt lat="47.433378" lon="8.051911">
        <ele>562.376531</ele>
        <time>2021-11-16T01:08:49.129Z</time>
      </trkpt>
      <trkpt lat="47.433378" lon="8.051911">
        <ele>562.376531</ele>
        <time>2021-11-16T01:08:49.225Z</time>
      </trkpt>
      <trkpt lat="47.433378" lon="8.051911">
        <ele>562.376531</ele>
        <time>2021-11-16T01:08:49.242Z</time>
      </trkpt>
      <trkpt lat="47.433349" lon="8.051934">
        <ele>562.636572</ele>
        <time>2021-11-16T01:08:51.120Z</time>
      </trkpt>
      <trkpt lat="47.433423" lon="8.052113">
        <ele>563.757857</ele>
        <time>2021-11-16T01:08:57.840Z</time>
      </trkpt>
      <trkpt lat="47.433500" lon="8.052504">
        <ele>565.934518</ele>
        <time>2021-11-16T01:09:13.040Z</time>
      </trkpt>
      <trkpt lat="47.433503" lon="8.052851">
        <ele>568.245732</ele>
        <time>2021-11-16T01:09:25.795Z</time>
      </trkpt>
      <trkpt lat="47.433537" lon="8.055038">
        <ele>585.179924</ele>
        <time>2021-11-16T01:10:56.425Z</time>
      </trkpt>
      <trkpt lat="47.433514" lon="8.055631">
        <ele>589.867777</ele>
        <time>2021-11-16T01:11:22.965Z</time>
      </trkpt>
      <trkpt lat="47.433469" lon="8.056182">
        <ele>594.323396</ele>
        <time>2021-11-16T01:11:47.385Z</time>
      </trkpt>
      <trkpt lat="47.433449" lon="8.056416">
        <ele>596.216915</ele>
        <time>2021-11-16T01:11:57.422Z</time>
      </trkpt>
      <trkpt lat="47.433418" lon="8.056776">
        <ele>599.130366</ele>
        <time>2021-11-16T01:12:14.397Z</time>
      </trkpt>
      <trkpt lat="47.433418" lon="8.057379">
        <ele>603.971331</ele>
        <time>2021-11-16T01:12:40.099Z</time>
      </trkpt>
      <trkpt lat="47.433488" lon="8.058124">
        <ele>609.250872</ele>
        <time>2021-11-16T01:13:09.553Z</time>
      </trkpt>
      <trkpt lat="47.433597" lon="8.058949">
        <ele>612.085986</ele>
        <time>2021-11-16T01:13:39.553Z</time>
      </trkpt>
      <trkpt lat="47.433610" lon="8.059053">
        <ele>612.442693</ele>
        <time>2021-11-16T01:13:42.219Z</time>
      </trkpt>
      <trkpt lat="47.433732" lon="8.059869">
        <ele>615.261289</ele>
        <time>2021-11-16T01:13:58.690Z</time>
      </trkpt>
      <trkpt lat="47.433818" lon="8.060443">
        <ele>617.244170</ele>
        <time>2021-11-16T01:14:06.426Z</time>
      </trkpt>
      <trkpt lat="47.433841" lon="8.060561">
        <ele>617.658347</ele>
        <time>2021-11-16T01:14:08.371Z</time>
      </trkpt>
      <trkpt lat="47.433897" lon="8.060733">
        <ele>617.175374</ele>
        <time>2021-11-16T01:14:09.618Z</time>
      </trkpt>
      <trkpt lat="47.433913" lon="8.060781">
        <ele>617.034577</ele>
        <time>2021-11-16T01:14:10.738Z</time>
      </trkpt>
      <trkpt lat="47.433974" lon="8.060897">
        <ele>616.647985</ele>
        <time>2021-11-16T01:14:11.955Z</time>
      </trkpt>
      <trkpt lat="47.434058" lon="8.061001">
        <ele>616.221799</ele>
        <time>2021-11-16T01:14:13.309Z</time>
      </trkpt>
      <trkpt lat="47.434186" lon="8.061122">
        <ele>615.630829</ele>
        <time>2021-11-16T01:14:14.746Z</time>
      </trkpt>
      <trkpt lat="47.434476" lon="8.061251">
        <ele>614.452856</ele>
        <time>2021-11-16T01:14:17.665Z</time>
      </trkpt>
      <trkpt lat="47.434654" lon="8.061257">
        <ele>613.760308</ele>
        <time>2021-11-16T01:14:19.516Z</time>
      </trkpt>
      <trkpt lat="47.434799" lon="8.061205">
        <ele>613.179943</ele>
        <time>2021-11-16T01:14:20.892Z</time>
      </trkpt>
      <trkpt lat="47.435387" lon="8.060864">
        <ele>610.723112</ele>
        <time>2021-11-16T01:14:26.764Z</time>
      </trkpt>
      <trkpt lat="47.435679" lon="8.060767">
        <ele>608.739073</ele>
        <time>2021-11-16T01:14:29.409Z</time>
      </trkpt>
      <trkpt lat="47.436148" lon="8.060668">
        <ele>605.539966</ele>
        <time>2021-11-16T01:14:33.658Z</time>
      </trkpt>
      <trkpt lat="47.436332" lon="8.060550">
        <ele>604.185617</ele>
        <time>2021-11-16T01:14:35.449Z</time>
      </trkpt>
      <trkpt lat="47.436511" lon="8.060328">
        <ele>602.607899</ele>
        <time>2021-11-16T01:14:37.592Z</time>
      </trkpt>
      <trkpt lat="47.436575" lon="8.060226">
        <ele>601.972429</ele>
        <time>2021-11-16T01:14:38.436Z</time>
      </trkpt>
      <trkpt lat="47.437631" lon="8.058564">
        <ele>591.076332</ele>
        <time>2021-11-16T01:14:52.385Z</time>
      </trkpt>
      <trkpt lat="47.438151" lon="8.057748">
        <ele>585.602364</ele>
        <time>2021-11-16T01:14:59.085Z</time>
      </trkpt>
      <trkpt lat="47.438390" lon="8.057522">
        <ele>583.096110</ele>
        <time>2021-11-16T01:15:01.601Z</time>
      </trkpt>
      <trkpt lat="47.438753" lon="8.057449">
        <ele>579.842338</ele>
        <time>2021-11-16T01:15:04.818Z</time>
      </trkpt>
      <trkpt lat="47.439110" lon="8.057501">
        <ele>576.656195</ele>
        <time>2021-11-16T01:15:07.972Z</time>
      </trkpt>
      <trkpt lat="47.439250" lon="8.057494">
        <ele>575.412036</ele>
        <time>2021-11-16T01:15:09.173Z</time>
      </trkpt>
      <trkpt lat="47.441177" lon="8.056749">
        <ele>556.470825</ele>
        <time>2021-11-16T01:15:26.390Z</time>
      </trkpt>
      <trkpt lat="47.441352" lon="8.056727">
        <ele>554.746242</ele>
        <time>2021-11-16T01:15:27.892Z</time>
      </trkpt>
      <trkpt lat="47.441973" lon="8.056692">
        <ele>548.758439</ele>
        <time>2021-11-16T01:15:33.245Z</time>
      </trkpt>
      <trkpt lat="47.442208" lon="8.056646">
        <ele>546.512392</ele>
        <time>2021-11-16T01:15:35.283Z</time>
      </trkpt>
      <trkpt lat="47.442208" lon="8.056646">
        <ele>546.512392</ele>
        <time>2021-11-16T01:15:35.293Z</time>
      </trkpt>
      <trkpt lat="47.442440" lon="8.056586">
        <ele>544.280826</ele>
        <time>2021-11-16T01:15:37.319Z</time>
      </trkpt>
      <trkpt lat="47.442807" lon="8.056482">
        <ele>540.740222</ele>
        <time>2021-11-16T01:15:40.530Z</time>
      </trkpt>
      <trkpt lat="47.443063" lon="8.056406">
        <ele>538.266220</ele>
        <time>2021-11-16T01:15:42.793Z</time>
      </trkpt>
      <trkpt lat="47.443113" lon="8.056383">
        <ele>537.770074</ele>
        <time>2021-11-16T01:15:43.262Z</time>
      </trkpt>
      <trkpt lat="47.443500" lon="8.056201">
        <ele>534.398516</ele>
        <time>2021-11-16T01:15:46.846Z</time>
      </trkpt>
      <trkpt lat="47.443746" lon="8.056022">
        <ele>533.113250</ele>
        <time>2021-11-16T01:15:49.264Z</time>
      </trkpt>
      <trkpt lat="47.443780" lon="8.055984">
        <ele>532.913456</ele>
        <time>2021-11-16T01:15:49.658Z</time>
      </trkpt>
      <trkpt lat="47.444016" lon="8.055716">
        <ele>531.518515</ele>
        <time>2021-11-16T01:15:52.358Z</time>
      </trkpt>
      <trkpt lat="47.444594" lon="8.054994">
        <ele>527.971529</ele>
        <time>2021-11-16T01:15:59.675Z</time>
      </trkpt>
      <trkpt lat="47.444778" lon="8.054764">
        <ele>526.842063</ele>
        <time>2021-11-16T01:16:02.276Z</time>
      </trkpt>
      <trkpt lat="47.444891" lon="8.054624">
        <ele>526.504809</ele>
        <time>2021-11-16T01:16:04.372Z</time>
      </trkpt>
      <trkpt lat="47.445165" lon="8.054338">
        <ele>526.903294</ele>
        <time>2021-11-16T01:16:10.254Z</time>
      </trkpt>
      <trkpt lat="47.445482" lon="8.054086">
        <ele>527.330908</ele>
        <time>2021-11-16T01:16:17.962Z</time>
      </trkpt>
      <trkpt lat="47.445607" lon="8.054011">
        <ele>527.491184</ele>
        <time>2021-11-16T01:16:21.317Z</time>
      </trkpt>
      <trkpt lat="47.446043" lon="8.053773">
        <ele>528.043376</ele>
        <time>2021-11-16T01:16:30.569Z</time>
      </trkpt>
      <trkpt lat="47.446146" lon="8.053729">
        <ele>528.170757</ele>
        <time>2021-11-16T01:16:33.542Z</time>
      </trkpt>
      <trkpt lat="47.446269" lon="8.053688">
        <ele>528.320563</ele>
        <time>2021-11-16T01:16:37.107Z</time>
      </trkpt>
      <trkpt lat="47.446453" lon="8.053638">
        <ele>528.542838</ele>
        <time>2021-11-16T01:16:41.004Z</time>
      </trkpt>
      <trkpt lat="47.446540" lon="8.053621">
        <ele>528.601088</ele>
        <time>2021-11-16T01:16:43.705Z</time>
      </trkpt>
      <trkpt lat="47.447302" lon="8.053642">
        <ele>528.964312</ele>
        <time>2021-11-16T01:17:01.494Z</time>
      </trkpt>
      <trkpt lat="47.447679" lon="8.053483">
        <ele>529.151152</ele>
        <time>2021-11-16T01:17:08.049Z</time>
      </trkpt>
      <trkpt lat="47.447919" lon="8.053237">
        <ele>529.290326</ele>
        <time>2021-11-16T01:17:11.636Z</time>
      </trkpt>
      <trkpt lat="47.448435" lon="8.052444">
        <ele>527.476913</ele>
        <time>2021-11-16T01:17:19.659Z</time>
      </trkpt>
      <trkpt lat="47.448673" lon="8.052159">
        <ele>526.168115</ele>
        <time>2021-11-16T01:17:22.776Z</time>
      </trkpt>
      <trkpt lat="47.449059" lon="8.051793">
        <ele>524.208507</ele>
        <time>2021-11-16T01:17:27.253Z</time>
      </trkpt>
      <trkpt lat="47.449613" lon="8.051437">
        <ele>521.501903</ele>
        <time>2021-11-16T01:17:32.756Z</time>
      </trkpt>
      <trkpt lat="47.449886" lon="8.051364">
        <ele>519.011713</ele>
        <time>2021-11-16T01:17:35.212Z</time>
      </trkpt>
      <trkpt lat="47.449886" lon="8.051364">
        <ele>519.011713</ele>
        <time>2021-11-16T01:17:35.221Z</time>
      </trkpt>
      <trkpt lat="47.450074" lon="8.051371">
        <ele>517.323690</ele>
        <time>2021-11-16T01:17:36.886Z</time>
      </trkpt>
      <trkpt lat="47.450344" lon="8.051426">
        <ele>514.877283</ele>
        <time>2021-11-16T01:17:39.270Z</time>
      </trkpt>
      <trkpt lat="47.450504" lon="8.051491">
        <ele>513.387915</ele>
        <time>2021-11-16T01:17:40.727Z</time>
      </trkpt>
      <trkpt lat="47.450592" lon="8.051537">
        <ele>512.550130</ele>
        <time>2021-11-16T01:17:41.525Z</time>
      </trkpt>
      <trkpt lat="47.450757" lon="8.051663">
        <ele>510.883280</ele>
        <time>2021-11-16T01:17:43.132Z</time>
      </trkpt>
      <trkpt lat="47.451164" lon="8.052019">
        <ele>506.638833</ele>
        <time>2021-11-16T01:17:47.192Z</time>
      </trkpt>
      <trkpt lat="47.451546" lon="8.052392">
        <ele>502.693463</ele>
        <time>2021-11-16T01:17:51.102Z</time>
      </trkpt>
      <trkpt lat="47.451728" lon="8.052549">
        <ele>500.903041</ele>
        <time>2021-11-16T01:17:52.930Z</time>
      </trkpt>
      <trkpt lat="47.452030" lon="8.052767">
        <ele>498.047411</ele>
        <time>2021-11-16T01:17:55.828Z</time>
      </trkpt>
      <trkpt lat="47.452592" lon="8.053064">
        <ele>492.976088</ele>
        <time>2021-11-16T01:18:01.130Z</time>
      </trkpt>
      <trkpt lat="47.452771" lon="8.053113">
        <ele>491.429207</ele>
        <time>2021-11-16T01:18:02.759Z</time>
      </trkpt>
      <trkpt lat="47.452870" lon="8.053142">
        <ele>490.571617</ele>
        <time>2021-11-16T01:18:03.686Z</time>
      </trkpt>
      <trkpt lat="47.453160" lon="8.053216">
        <ele>489.206155</ele>
        <time>2021-11-16T01:18:06.376Z</time>
      </trkpt>
      <trkpt lat="47.453588" lon="8.053338">
        <ele>487.378260</ele>
        <time>2021-11-16T01:18:10.512Z</time>
      </trkpt>
      <trkpt lat="47.454007" lon="8.053484">
        <ele>485.573030</ele>
        <time>2021-11-16T01:18:14.862Z</time>
      </trkpt>
      <trkpt lat="47.454190" lon="8.053504">
        <ele>484.803509</ele>
        <time>2021-11-16T01:18:16.633Z</time>
      </trkpt>
      <trkpt lat="47.454280" lon="8.053495">
        <ele>484.425224</ele>
        <time>2021-11-16T01:18:17.521Z</time>
      </trkpt>
      <trkpt lat="47.454599" lon="8.053302">
        <ele>482.979852</ele>
        <time>2021-11-16T01:18:21.191Z</time>
      </trkpt>
      <trkpt lat="47.454740" lon="8.053121">
        <ele>482.349015</ele>
        <time>2021-11-16T01:18:23.200Z</time>
      </trkpt>
      <trkpt lat="47.455021" lon="8.052703">
        <ele>481.121698</ele>
        <time>2021-11-16T01:18:27.309Z</time>
      </trkpt>
      <trkpt lat="47.455102" lon="8.052621">
        <ele>480.819425</ele>
        <time>2021-11-16T01:18:28.329Z</time>
      </trkpt>
      <trkpt lat="47.455278" lon="8.052443">
        <ele>480.162838</ele>
        <time>2021-11-16T01:18:30.497Z</time>
      </trkpt>
      <trkpt lat="47.455435" lon="8.052304">
        <ele>479.599359</ele>
        <time>2021-11-16T01:18:32.330Z</time>
      </trkpt>
      <trkpt lat="47.455674" lon="8.052090">
        <ele>478.739001</ele>
        <time>2021-11-16T01:18:35.247Z</time>
      </trkpt>
      <trkpt lat="47.455912" lon="8.051878">
        <ele>477.883432</ele>
        <time>2021-11-16T01:18:38.021Z</time>
      </trkpt>
      <trkpt lat="47.455980" lon="8.051817">
        <ele>477.638523</ele>
        <time>2021-11-16T01:18:38.821Z</time>
      </trkpt>
      <trkpt lat="47.456114" lon="8.051697">
        <ele>477.167169</ele>
        <time>2021-11-16T01:18:40.323Z</time>
      </trkpt>
      <trkpt lat="47.456563" lon="8.051295">
        <ele>475.790068</ele>
        <time>2021-11-16T01:18:45.664Z</time>
      </trkpt>
      <trkpt lat="47.456820" lon="8.051046">
        <ele>474.983965</ele>
        <time>2021-11-16T01:18:48.817Z</time>
      </trkpt>
      <trkpt lat="47.456927" lon="8.050916">
        <ele>474.620646</ele>
        <time>2021-11-16T01:18:50.263Z</time>
      </trkpt>
      <trkpt lat="47.457063" lon="8.050750">
        <ele>474.157994</ele>
        <time>2021-11-16T01:18:52.200Z</time>
      </trkpt>
      <trkpt lat="47.457227" lon="8.050454">
        <ele>473.479107</ele>
        <time>2021-11-16T01:18:54.889Z</time>
      </trkpt>
      <trkpt lat="47.457433" lon="8.049943">
        <ele>472.410750</ele>
        <time>2021-11-16T01:18:59.609Z</time>
      </trkpt>
      <trkpt lat="47.457577" lon="8.049600">
        <ele>471.589033</ele>
        <time>2021-11-16T01:19:02.815Z</time>
      </trkpt>
      <trkpt lat="47.457845" lon="8.049210">
        <ele>470.457298</ele>
        <time>2021-11-16T01:19:06.740Z</time>
      </trkpt>
      <trkpt lat="47.457963" lon="8.049150">
        <ele>470.081698</ele>
        <time>2021-11-16T01:19:08.509Z</time>
      </trkpt>
      <trkpt lat="47.458266" lon="8.048995">
        <ele>469.116616</ele>
        <time>2021-11-16T01:19:11.663Z</time>
      </trkpt>
      <trkpt lat="47.458490" lon="8.048954">
        <ele>468.437204</ele>
        <time>2021-11-16T01:19:13.949Z</time>
      </trkpt>
      <trkpt lat="47.458765" lon="8.048904">
        <ele>467.603188</ele>
        <time>2021-11-16T01:19:16.626Z</time>
      </trkpt>
      <trkpt lat="47.459071" lon="8.048837">
        <ele>466.445842</ele>
        <time>2021-11-16T01:19:19.640Z</time>
      </trkpt>
      <trkpt lat="47.459118" lon="8.048828">
        <ele>466.227326</ele>
        <time>2021-11-16T01:19:20.064Z</time>
      </trkpt>
      <trkpt lat="47.459227" lon="8.048808">
        <ele>465.720897</ele>
        <time>2021-11-16T01:19:21.108Z</time>
      </trkpt>
      <trkpt lat="47.459434" lon="8.048705">
        <ele>464.713899</ele>
        <time>2021-11-16T01:19:23.167Z</time>
      </trkpt>
      <trkpt lat="47.459546" lon="8.048650">
        <ele>464.169770</ele>
        <time>2021-11-16T01:19:24.302Z</time>
      </trkpt>
      <trkpt lat="47.459655" lon="8.048568">
        <ele>463.605919</ele>
        <time>2021-11-16T01:19:25.417Z</time>
      </trkpt>
      <trkpt lat="47.459740" lon="8.048503">
        <ele>463.164718</ele>
        <time>2021-11-16T01:19:26.375Z</time>
      </trkpt>
      <trkpt lat="47.460107" lon="8.048213">
        <ele>461.246203</ele>
        <time>2021-11-16T01:19:30.255Z</time>
      </trkpt>
      <trkpt lat="47.460182" lon="8.048177">
        <ele>460.882639</ele>
        <time>2021-11-16T01:19:31.010Z</time>
      </trkpt>
      <trkpt lat="47.460570" lon="8.047988">
        <ele>458.999128</ele>
        <time>2021-11-16T01:19:34.900Z</time>
      </trkpt>
      <trkpt lat="47.460608" lon="8.047981">
        <ele>458.822565</ele>
        <time>2021-11-16T01:19:35.233Z</time>
      </trkpt>
      <trkpt lat="47.460776" lon="8.047954">
        <ele>458.221588</ele>
        <time>2021-11-16T01:19:37.026Z</time>
      </trkpt>
      <trkpt lat="47.461083" lon="8.047963">
        <ele>457.137371</ele>
        <time>2021-11-16T01:19:40.140Z</time>
      </trkpt>
      <trkpt lat="47.461466" lon="8.048031">
        <ele>455.775306</ele>
        <time>2021-11-16T01:19:44.207Z</time>
      </trkpt>
      <trkpt lat="47.462404" lon="8.048445">
        <ele>452.271975</ele>
        <time>2021-11-16T01:19:54.046Z</time>
      </trkpt>
      <trkpt lat="47.462692" lon="8.048578">
        <ele>450.834192</ele>
        <time>2021-11-16T01:19:56.940Z</time>
      </trkpt>
      <trkpt lat="47.462760" lon="8.048615">
        <ele>450.488912</ele>
        <time>2021-11-16T01:19:57.658Z</time>
      </trkpt>
      <trkpt lat="47.462793" lon="8.048637">
        <ele>450.316417</ele>
        <time>2021-11-16T01:19:57.995Z</time>
      </trkpt>
      <trkpt lat="47.462932" lon="8.048714">
        <ele>449.609091</ele>
        <time>2021-11-16T01:19:59.359Z</time>
      </trkpt>
      <trkpt lat="47.464428" lon="8.050024">
        <ele>441.763913</ele>
        <time>2021-11-16T01:20:15.710Z</time>
      </trkpt>
      <trkpt lat="47.464876" lon="8.050495">
        <ele>439.594790</ele>
        <time>2021-11-16T01:20:21.264Z</time>
      </trkpt>
      <trkpt lat="47.465219" lon="8.050945">
        <ele>437.785419</ele>
        <time>2021-11-16T01:20:25.869Z</time>
      </trkpt>
      <trkpt lat="47.465552" lon="8.051201">
        <ele>436.385020</ele>
        <time>2021-11-16T01:20:29.580Z</time>
      </trkpt>
      <trkpt lat="47.466297" lon="8.051497">
        <ele>433.853094</ele>
        <time>2021-11-16T01:20:37.294Z</time>
      </trkpt>
      <trkpt lat="47.466507" lon="8.051581">
        <ele>433.139072</ele>
        <time>2021-11-16T01:20:39.432Z</time>
      </trkpt>
      <trkpt lat="47.466793" lon="8.051728">
        <ele>432.145304</ele>
        <time>2021-11-16T01:20:42.647Z</time>
      </trkpt>
      <trkpt lat="47.466811" lon="8.051744">
        <ele>432.076378</ele>
        <time>2021-11-16T01:20:42.829Z</time>
      </trkpt>
      <trkpt lat="47.467177" lon="8.052075">
        <ele>430.729755</ele>
        <time>2021-11-16T01:20:47.279Z</time>
      </trkpt>
      <trkpt lat="47.467479" lon="8.052348">
        <ele>429.904916</ele>
        <time>2021-11-16T01:20:50.901Z</time>
      </trkpt>
      <trkpt lat="47.468134" lon="8.052813">
        <ele>428.211719</ele>
        <time>2021-11-16T01:20:58.516Z</time>
      </trkpt>
      <trkpt lat="47.468638" lon="8.053071">
        <ele>426.968784</ele>
        <time>2021-11-16T01:21:04.594Z</time>
      </trkpt>
      <trkpt lat="47.468916" lon="8.053225">
        <ele>426.412703</ele>
        <time>2021-11-16T01:21:07.999Z</time>
      </trkpt>
      <trkpt lat="47.469768" lon="8.053784">
        <ele>424.957433</ele>
        <time>2021-11-16T01:21:18.796Z</time>
      </trkpt>
      <trkpt lat="47.469816" lon="8.053809">
        <ele>424.877978</ele>
        <time>2021-11-16T01:21:19.324Z</time>
      </trkpt>
      <trkpt lat="47.469912" lon="8.053834">
        <ele>424.725780</ele>
        <time>2021-11-16T01:21:20.475Z</time>
      </trkpt>
      <trkpt lat="47.470035" lon="8.053870">
        <ele>424.530007</ele>
        <time>2021-11-16T01:21:21.916Z</time>
      </trkpt>
      <trkpt lat="47.470146" lon="8.053870">
        <ele>424.356693</ele>
        <time>2021-11-16T01:21:23.189Z</time>
      </trkpt>
      <trkpt lat="47.470221" lon="8.053859">
        <ele>424.239015</ele>
        <time>2021-11-16T01:21:24.031Z</time>
      </trkpt>
      <trkpt lat="47.470388" lon="8.053827">
        <ele>423.976085</ele>
        <time>2021-11-16T01:21:25.900Z</time>
      </trkpt>
      <trkpt lat="47.470975" lon="8.053567">
        <ele>423.032098</ele>
        <time>2021-11-16T01:21:32.952Z</time>
      </trkpt>
      <trkpt lat="47.471281" lon="8.053367">
        <ele>422.517498</ele>
        <time>2021-11-16T01:21:36.772Z</time>
      </trkpt>
      <trkpt lat="47.471653" lon="8.053017">
        <ele>421.839343</ele>
        <time>2021-11-16T01:21:41.961Z</time>
      </trkpt>
      <trkpt lat="47.471695" lon="8.052974">
        <ele>421.760774</ele>
        <time>2021-11-16T01:21:42.458Z</time>
      </trkpt>
      <trkpt lat="47.471962" lon="8.052697">
        <ele>421.259132</ele>
        <time>2021-11-16T01:21:46.286Z</time>
      </trkpt>
      <trkpt lat="47.472031" lon="8.052625">
        <ele>421.129246</ele>
        <time>2021-11-16T01:21:47.195Z</time>
      </trkpt>
      <trkpt lat="47.472429" lon="8.052206">
        <ele>420.346968</ele>
        <time>2021-11-16T01:21:52.839Z</time>
      </trkpt>
      <trkpt lat="47.472623" lon="8.052001">
        <ele>419.964846</ele>
        <time>2021-11-16T01:21:55.527Z</time>
      </trkpt>
      <trkpt lat="47.472803" lon="8.051811">
        <ele>419.610431</ele>
        <time>2021-11-16T01:21:57.998Z</time>
      </trkpt>
      <trkpt lat="47.473006" lon="8.051614">
        <ele>419.221303</ele>
        <time>2021-11-16T01:22:00.643Z</time>
      </trkpt>
      <trkpt lat="47.473944" lon="8.050844">
        <ele>417.405588</ele>
        <time>2021-11-16T01:22:13.597Z</time>
      </trkpt>
      <trkpt lat="47.474013" lon="8.050809">
        <ele>417.273209</ele>
        <time>2021-11-16T01:22:14.210Z</time>
      </trkpt>
      <trkpt lat="47.474067" lon="8.050782">
        <ele>417.169762</ele>
        <time>2021-11-16T01:22:14.748Z</time>
      </trkpt>
      <trkpt lat="47.474254" lon="8.050712">
        <ele>416.819693</ele>
        <time>2021-11-16T01:22:18.998Z</time>
      </trkpt>
      <trkpt lat="47.474369" lon="8.050670">
        <ele>416.604721</ele>
        <time>2021-11-16T01:22:20.039Z</time>
      </trkpt>
      <trkpt lat="47.474655" lon="8.050582">
        <ele>416.074571</ele>
        <time>2021-11-16T01:22:25.706Z</time>
      </trkpt>
      <trkpt lat="47.474739" lon="8.050556">
        <ele>415.918825</ele>
        <time>2021-11-16T01:22:26.420Z</time>
      </trkpt>
      <trkpt lat="47.474798" lon="8.050543">
        <ele>415.810568</ele>
        <time>2021-11-16T01:22:27.627Z</time>
      </trkpt>
      <trkpt lat="47.474929" lon="8.050514">
        <ele>415.570178</ele>
        <time>2021-11-16T01:22:31.006Z</time>
      </trkpt>
      <trkpt lat="47.475144" lon="8.050466">
        <ele>415.175570</ele>
        <time>2021-11-16T01:22:33.063Z</time>
      </trkpt>
      <trkpt lat="47.475253" lon="8.050461">
        <ele>414.977658</ele>
        <time>2021-11-16T01:22:35.794Z</time>
      </trkpt>
      <trkpt lat="47.475284" lon="8.050458">
        <ele>414.942635</ele>
        <time>2021-11-16T01:22:36.638Z</time>
      </trkpt>
      <trkpt lat="47.475357" lon="8.050458">
        <ele>414.873467</ele>
        <time>2021-11-16T01:22:38.197Z</time>
      </trkpt>
      <trkpt lat="47.475715" lon="8.050478">
        <ele>414.534018</ele>
        <time>2021-11-16T01:22:42.309Z</time>
      </trkpt>
      <trkpt lat="47.476449" lon="8.050502">
        <ele>413.838379</ele>
        <time>2021-11-16T01:22:50.489Z</time>
      </trkpt>
      <trkpt lat="47.476860" lon="8.050513">
        <ele>413.448890</ele>
        <time>2021-11-16T01:22:56.444Z</time>
      </trkpt>
      <trkpt lat="47.477294" lon="8.050539">
        <ele>413.295953</ele>
        <time>2021-11-16T01:23:03.524Z</time>
      </trkpt>
      <trkpt lat="47.477651" lon="8.050602">
        <ele>413.347888</ele>
        <time>2021-11-16T01:23:09.471Z</time>
      </trkpt>
      <trkpt lat="47.478162" lon="8.050827">
        <ele>413.424904</ele>
        <time>2021-11-16T01:23:18.446Z</time>
      </trkpt>
      <trkpt lat="47.478764" lon="8.051342">
        <ele>413.515138</ele>
        <time>2021-11-16T01:23:28.533Z</time>
      </trkpt>
      <trkpt lat="47.479245" lon="8.051933">
        <ele>413.362180</ele>
        <time>2021-11-16T01:23:36.779Z</time>
      </trkpt>
      <trkpt lat="47.479583" lon="8.052216">
        <ele>413.267168</ele>
        <time>2021-11-16T01:23:41.979Z</time>
      </trkpt>
      <trkpt lat="47.479686" lon="8.052283">
        <ele>413.239642</ele>
        <time>2021-11-16T01:23:43.194Z</time>
      </trkpt>
      <trkpt lat="47.479929" lon="8.052381">
        <ele>413.178024</ele>
        <time>2021-11-16T01:23:47.399Z</time>
      </trkpt>
      <trkpt lat="47.480382" lon="8.052453">
        <ele>413.054934</ele>
        <time>2021-11-16T01:23:54.318Z</time>
      </trkpt>
      <trkpt lat="47.480400" lon="8.052455">
        <ele>413.047087</ele>
        <time>2021-11-16T01:23:54.618Z</time>
      </trkpt>
      <trkpt lat="47.480495" lon="8.052470">
        <ele>413.005557</ele>
        <time>2021-11-16T01:23:57.366Z</time>
      </trkpt>
      <trkpt lat="47.480567" lon="8.052481">
        <ele>412.974093</ele>
        <time>2021-11-16T01:23:58.663Z</time>
      </trkpt>
      <trkpt lat="47.481460" lon="8.052611">
        <ele>412.584040</ele>
        <time>2021-11-16T01:24:10.091Z</time>
      </trkpt>
      <trkpt lat="47.481505" lon="8.052618">
        <ele>412.564371</ele>
        <time>2021-11-16T01:24:11.735Z</time>
      </trkpt>
      <trkpt lat="47.481881" lon="8.052687">
        <ele>412.399675</ele>
        <time>2021-11-16T01:24:16.682Z</time>
      </trkpt>
      <trkpt lat="47.482349" lon="8.052735">
        <ele>411.675282</ele>
        <time>2021-11-16T01:24:22.271Z</time>
      </trkpt>
      <trkpt lat="47.482462" lon="8.052727">
        <ele>411.379829</ele>
        <time>2021-11-16T01:24:23.464Z</time>
      </trkpt>
      <trkpt lat="47.482613" lon="8.052715">
        <ele>410.984903</ele>
        <time>2021-11-16T01:24:25.194Z</time>
      </trkpt>
      <trkpt lat="47.482970" lon="8.052591">
        <ele>410.027204</ele>
        <time>2021-11-16T01:24:29.216Z</time>
      </trkpt>
      <trkpt lat="47.483451" lon="8.052218">
        <ele>408.608952</ele>
        <time>2021-11-16T01:24:34.751Z</time>
      </trkpt>
      <trkpt lat="47.483624" lon="8.052017">
        <ele>408.034507</ele>
        <time>2021-11-16T01:24:36.851Z</time>
      </trkpt>
      <trkpt lat="47.483872" lon="8.051697">
        <ele>407.027129</ele>
        <time>2021-11-16T01:24:40.010Z</time>
      </trkpt>
      <trkpt lat="47.484138" lon="8.051330">
        <ele>405.748109</ele>
        <time>2021-11-16T01:24:43.685Z</time>
      </trkpt>
      <trkpt lat="47.484363" lon="8.050966">
        <ele>404.575711</ele>
        <time>2021-11-16T01:24:47.012Z</time>
      </trkpt>
      <trkpt lat="47.484363" lon="8.050966">
        <ele>404.575711</ele>
        <time>2021-11-16T01:24:47.016Z</time>
      </trkpt>
      <trkpt lat="47.484549" lon="8.050568">
        <ele>403.425667</ele>
        <time>2021-11-16T01:24:50.206Z</time>
      </trkpt>
      <trkpt lat="47.484700" lon="8.050131">
        <ele>402.259196</ele>
        <time>2021-11-16T01:24:53.499Z</time>
      </trkpt>
      <trkpt lat="47.484770" lon="8.049870">
        <ele>401.591835</ele>
        <time>2021-11-16T01:24:55.436Z</time>
      </trkpt>
      <trkpt lat="47.484909" lon="8.049404">
        <ele>401.497833</ele>
        <time>2021-11-16T01:24:58.995Z</time>
      </trkpt>
      <trkpt lat="47.484328" lon="8.049054">
        <ele>402.042388</ele>
        <time>2021-11-16T01:25:05.955Z</time>
      </trkpt>
      <trkpt lat="47.484307" lon="8.048841">
        <ele>402.168667</ele>
        <time>2021-11-16T01:25:08.785Z</time>
      </trkpt>
      <trkpt lat="47.484310" lon="8.048647">
        <ele>402.282507</ele>
        <time>2021-11-16T01:25:11.874Z</time>
      </trkpt>
      <trkpt lat="47.484311" lon="8.048547">
        <ele>402.341178</ele>
        <time>2021-11-16T01:25:14.211Z</time>
      </trkpt>
      <trkpt lat="47.484316" lon="8.048449">
        <ele>402.398834</ele>
        <time>2021-11-16T01:25:16.209Z</time>
      </trkpt>
      <trkpt lat="47.484321" lon="8.048352">
        <ele>402.455904</ele>
        <time>2021-11-16T01:25:17.989Z</time>
      </trkpt>
      <trkpt lat="47.484323" lon="8.048319">
        <ele>402.475341</ele>
        <time>2021-11-16T01:25:18.558Z</time>
      </trkpt>
      <trkpt lat="47.484354" lon="8.048144">
        <ele>402.581473</ele>
        <time>2021-11-16T01:25:22.310Z</time>
      </trkpt>
      <trkpt lat="47.484336" lon="8.047958">
        <ele>402.691703</ele>
        <time>2021-11-16T01:25:27.231Z</time>
      </trkpt>
      <trkpt lat="47.484302" lon="8.047447">
        <ele>403.892096</ele>
        <time>2021-11-16T01:25:39.586Z</time>
      </trkpt>
      <trkpt lat="47.484285" lon="8.047381">
        <ele>404.174274</ele>
        <time>2021-11-16T01:25:41.424Z</time>
      </trkpt>
      <trkpt lat="47.484254" lon="8.047262">
        <ele>404.683788</ele>
        <time>2021-11-16T01:25:44.273Z</time>
      </trkpt>
      <trkpt lat="47.484094" lon="8.047008">
        <ele>406.071012</ele>
        <time>2021-11-16T01:25:53.998Z</time>
      </trkpt>
      <trkpt lat="47.483944" lon="8.046772">
        <ele>407.365340</ele>
        <time>2021-11-16T01:26:02.615Z</time>
      </trkpt>
      <trkpt lat="47.483960" lon="8.046613">
        <ele>408.007564</ele>
        <time>2021-11-16T01:26:08.549Z</time>
      </trkpt>
      <trkpt lat="47.484017" lon="8.046089">
        <ele>410.127942</ele>
        <time>2021-11-16T01:26:25.786Z</time>
      </trkpt>
      <trkpt lat="47.484086" lon="8.045711">
        <ele>411.692207</ele>
        <time>2021-11-16T01:26:37.814Z</time>
      </trkpt>
      <trkpt lat="47.484315" lon="8.044930">
        <ele>412.857746</ele>
        <time>2021-11-16T01:27:04.125Z</time>
      </trkpt>
      <trkpt lat="47.484698" lon="8.044163">
        <ele>411.416989</ele>
        <time>2021-11-16T01:27:19.456Z</time>
      </trkpt>
      <trkpt lat="47.485120" lon="8.042908">
        <ele>408.811610</ele>
        <time>2021-11-16T01:27:31.494Z</time>
      </trkpt>
      <trkpt lat="47.485289" lon="8.042522">
        <ele>405.872677</ele>
        <time>2021-11-16T01:27:35.365Z</time>
      </trkpt>
      <trkpt lat="47.485395" lon="8.042549">
        <ele>404.855638</ele>
        <time>2021-11-16T01:27:36.247Z</time>
      </trkpt>
      <trkpt lat="47.485598" lon="8.042685">
        <ele>402.748584</ele>
        <time>2021-11-16T01:27:38.299Z</time>
      </trkpt>
      <trkpt lat="47.486008" lon="8.043050">
        <ele>398.224279</ele>
        <time>2021-11-16T01:27:42.371Z</time>
      </trkpt>
      <trkpt lat="47.486019" lon="8.043059">
        <ele>398.105427</ele>
        <time>2021-11-16T01:27:42.474Z</time>
      </trkpt>
      <trkpt lat="47.486151" lon="8.043162">
        <ele>396.694387</ele>
        <time>2021-11-16T01:27:43.861Z</time>
      </trkpt>
      <trkpt lat="47.486179" lon="8.043182">
        <ele>396.400400</ele>
        <time>2021-11-16T01:27:44.128Z</time>
      </trkpt>
      <trkpt lat="47.486222" lon="8.043212">
        <ele>395.950884</ele>
        <time>2021-11-16T01:27:44.555Z</time>
      </trkpt>
      <trkpt lat="47.486260" lon="8.043156">
        <ele>395.443785</ele>
        <time>2021-11-16T01:27:45.189Z</time>
      </trkpt>
      <trkpt lat="47.486857" lon="8.042766">
        <ele>390.884716</ele>
        <time>2021-11-16T01:27:53.125Z</time>
      </trkpt>
      <trkpt lat="47.487031" lon="8.042589">
        <ele>389.903251</ele>
        <time>2021-11-16T01:27:55.844Z</time>
      </trkpt>
      <trkpt lat="47.487333" lon="8.042295">
        <ele>388.222943</ele>
        <time>2021-11-16T01:28:00.765Z</time>
      </trkpt>
      <trkpt lat="47.487400" lon="8.042230">
        <ele>387.850548</ele>
        <time>2021-11-16T01:28:02.089Z</time>
      </trkpt>
      <trkpt lat="47.487908" lon="8.041733">
        <ele>385.019829</ele>
        <time>2021-11-16T01:28:11.860Z</time>
      </trkpt>
      <trkpt lat="47.488139" lon="8.041130">
        <ele>383.675060</ele>
        <time>2021-11-16T01:28:19.574Z</time>
      </trkpt>
      <trkpt lat="47.488448" lon="8.040708">
        <ele>383.033006</ele>
        <time>2021-11-16T01:28:26.367Z</time>
      </trkpt>
      <trkpt lat="47.488652" lon="8.040561">
        <ele>382.686537</ele>
        <time>2021-11-16T01:28:30.069Z</time>
      </trkpt>
      <trkpt lat="47.489262" lon="8.040226">
        <ele>381.693013</ele>
        <time>2021-11-16T01:28:40.872Z</time>
      </trkpt>
      <trkpt lat="47.489332" lon="8.040190">
        <ele>381.579855</ele>
        <time>2021-11-16T01:28:42.130Z</time>
      </trkpt>
      <trkpt lat="47.489708" lon="8.040031">
        <ele>380.991573</ele>
        <time>2021-11-16T01:28:48.642Z</time>
      </trkpt>
      <trkpt lat="47.492266" lon="8.039262">
        <ele>377.091567</ele>
        <time>2021-11-16T01:29:31.482Z</time>
      </trkpt>
      <trkpt lat="47.492451" lon="8.039274">
        <ele>376.813395</ele>
        <time>2021-11-16T01:29:34.516Z</time>
      </trkpt>
      <trkpt lat="47.493090" lon="8.039530">
        <ele>375.851336</ele>
        <time>2021-11-16T01:29:45.333Z</time>
      </trkpt>
      <trkpt lat="47.493416" lon="8.039728">
        <ele>375.446902</ele>
        <time>2021-11-16T01:29:51.310Z</time>
      </trkpt>
      <trkpt lat="47.493541" lon="8.039739">
        <ele>375.303185</ele>
        <time>2021-11-16T01:29:53.703Z</time>
      </trkpt>
      <trkpt lat="47.493615" lon="8.039696">
        <ele>375.211944</ele>
        <time>2021-11-16T01:29:54.990Z</time>
      </trkpt>
      <trkpt lat="47.493681" lon="8.039626">
        <ele>375.118753</ele>
        <time>2021-11-16T01:29:56.266Z</time>
      </trkpt>
      <trkpt lat="47.493985" lon="8.039302">
        <ele>374.688798</ele>
        <time>2021-11-16T01:30:02.603Z</time>
      </trkpt>
      <trkpt lat="47.494550" lon="8.038902">
        <ele>373.969973</ele>
        <time>2021-11-16T01:30:13.400Z</time>
      </trkpt>
      <trkpt lat="47.495065" lon="8.038717">
        <ele>373.982926</ele>
        <time>2021-11-16T01:30:22.982Z</time>
      </trkpt>
      <trkpt lat="47.495161" lon="8.038728">
        <ele>374.001903</ele>
        <time>2021-11-16T01:30:25.195Z</time>
      </trkpt>
      <trkpt lat="47.495197" lon="8.038814">
        <ele>374.015375</ele>
        <time>2021-11-16T01:30:26.276Z</time>
      </trkpt>
      <trkpt lat="47.495279" lon="8.039095">
        <ele>374.056134</ele>
        <time>2021-11-16T01:30:30.809Z</time>
      </trkpt>
      <trkpt lat="47.495489" lon="8.039211">
        <ele>374.100311</ele>
        <time>2021-11-16T01:30:35.013Z</time>
      </trkpt>
      <trkpt lat="47.497029" lon="8.038197">
        <ele>375.234352</ele>
        <time>2021-11-16T01:31:16.664Z</time>
      </trkpt>
      <trkpt lat="47.497508" lon="8.037915">
        <ele>375.773646</ele>
        <time>2021-11-16T01:31:30.856Z</time>
      </trkpt>
      <trkpt lat="47.498149" lon="8.037545">
        <ele>375.467123</ele>
        <time>2021-11-16T01:31:46.356Z</time>
      </trkpt>
      <trkpt lat="47.498683" lon="8.037262">
        <ele>374.393816</ele>
        <time>2021-11-16T01:31:55.687Z</time>
      </trkpt>
      <trkpt lat="47.499141" lon="8.037076">
        <ele>373.495114</ele>
        <time>2021-11-16T01:32:02.847Z</time>
      </trkpt>
      <trkpt lat="47.499525" lon="8.036920">
        <ele>372.741599</ele>
        <time>2021-11-16T01:32:08.531Z</time>
      </trkpt>
      <trkpt lat="47.499762" lon="8.036824">
        <ele>371.956097</ele>
        <time>2021-11-16T01:32:11.843Z</time>
      </trkpt>
      <trkpt lat="47.499899" lon="8.036731">
        <ele>371.466749</ele>
        <time>2021-11-16T01:32:13.952Z</time>
      </trkpt>
      <trkpt lat="47.500033" lon="8.036458">
        <ele>370.726576</ele>
        <time>2021-11-16T01:32:17.005Z</time>
      </trkpt>
      <trkpt lat="47.500142" lon="8.035639">
        <ele>368.895613</ele>
        <time>2021-11-16T01:32:25.044Z</time>
      </trkpt>
      <trkpt lat="47.500370" lon="8.034585">
        <ele>366.748642</ele>
        <time>2021-11-16T01:32:36.622Z</time>
      </trkpt>
      <trkpt lat="47.500371" lon="8.034497">
        <ele>366.685573</ele>
        <time>2021-11-16T01:32:37.559Z</time>
      </trkpt>
      <trkpt lat="47.500411" lon="8.034253">
        <ele>366.505650</ele>
        <time>2021-11-16T01:32:40.808Z</time>
      </trkpt>
      <trkpt lat="47.500514" lon="8.034048">
        <ele>366.322575</ele>
        <time>2021-11-16T01:32:43.764Z</time>
      </trkpt>
      <trkpt lat="47.500609" lon="8.033743">
        <ele>366.081904</ele>
        <time>2021-11-16T01:32:48.039Z</time>
      </trkpt>
      <trkpt lat="47.501016" lon="8.032338">
        <ele>364.986444</ele>
        <time>2021-11-16T01:33:06.490Z</time>
      </trkpt>
      <trkpt lat="47.501417" lon="8.030833">
        <ele>363.347178</ele>
        <time>2021-11-16T01:33:24.903Z</time>
      </trkpt>
      <trkpt lat="47.501451" lon="8.030732">
        <ele>363.232562</ele>
        <time>2021-11-16T01:33:26.097Z</time>
      </trkpt>
      <trkpt lat="47.501479" lon="8.030595">
        <ele>363.087182</ele>
        <time>2021-11-16T01:33:27.632Z</time>
      </trkpt>
      <trkpt lat="47.501858" lon="8.029220">
        <ele>361.533177</ele>
        <time>2021-11-16T01:33:43.413Z</time>
      </trkpt>
      <trkpt lat="47.502470" lon="8.027919">
        <ele>359.817045</ele>
        <time>2021-11-16T01:34:00.870Z</time>
      </trkpt>
      <trkpt lat="47.502768" lon="8.027165">
        <ele>359.088839</ele>
        <time>2021-11-16T01:34:11.047Z</time>
      </trkpt>
      <trkpt lat="47.502892" lon="8.026637">
        <ele>358.737118</ele>
        <time>2021-11-16T01:34:17.631Z</time>
      </trkpt>
      <trkpt lat="47.502945" lon="8.026325">
        <ele>358.534697</ele>
        <time>2021-11-16T01:34:21.425Z</time>
      </trkpt>
      <trkpt lat="47.502970" lon="8.026171">
        <ele>358.435042</ele>
        <time>2021-11-16T01:34:23.276Z</time>
      </trkpt>
      <trkpt lat="47.503021" lon="8.025852">
        <ele>358.228784</ele>
        <time>2021-11-16T01:34:27.254Z</time>
      </trkpt>
      <trkpt lat="47.503032" lon="8.025730">
        <ele>358.151341</ele>
        <time>2021-11-16T01:34:28.661Z</time>
      </trkpt>
      <trkpt lat="47.503016" lon="8.025577">
        <ele>358.053927</ele>
        <time>2021-11-16T01:34:30.622Z</time>
      </trkpt>
      <trkpt lat="47.503159" lon="8.025346">
        <ele>357.856787</ele>
        <time>2021-11-16T01:34:33.255Z</time>
      </trkpt>
      <trkpt lat="47.503222" lon="8.025223">
        <ele>357.759667</ele>
        <time>2021-11-16T01:34:34.572Z</time>
      </trkpt>
      <trkpt lat="47.503404" lon="8.024849">
        <ele>357.458457</ele>
        <time>2021-11-16T01:34:38.510Z</time>
      </trkpt>
      <trkpt lat="47.503907" lon="8.023817">
        <ele>356.621296</ele>
        <time>2021-11-16T01:34:49.581Z</time>
      </trkpt>
      <trkpt lat="47.504056" lon="8.023411">
        <ele>356.317342</ele>
        <time>2021-11-16T01:34:53.268Z</time>
      </trkpt>
      <trkpt lat="47.504432" lon="8.023537">
        <ele>355.922721</ele>
        <time>2021-11-16T01:34:57.803Z</time>
      </trkpt>
      <trkpt lat="47.504531" lon="8.023550">
        <ele>355.741208</ele>
        <time>2021-11-16T01:34:58.913Z</time>
      </trkpt>
      <trkpt lat="47.504579" lon="8.023556">
        <ele>355.653234</ele>
        <time>2021-11-16T01:34:59.459Z</time>
      </trkpt>
      <trkpt lat="47.504759" lon="8.023499">
        <ele>355.317065</ele>
        <time>2021-11-16T01:35:01.590Z</time>
      </trkpt>
      <trkpt lat="47.504935" lon="8.023341">
        <ele>354.941150</ele>
        <time>2021-11-16T01:35:03.946Z</time>
      </trkpt>
      <trkpt lat="47.504983" lon="8.023284">
        <ele>354.828768</ele>
        <time>2021-11-16T01:35:04.702Z</time>
      </trkpt>
      <trkpt lat="47.505029" lon="8.023398">
        <ele>354.664945</ele>
        <time>2021-11-16T01:35:05.671Z</time>
      </trkpt>
      <trkpt lat="47.505657" lon="8.024171">
        <ele>353.173352</ele>
        <time>2021-11-16T01:35:14.718Z</time>
      </trkpt>
      <trkpt lat="47.505697" lon="8.024216">
        <ele>353.081599</ele>
        <time>2021-11-16T01:35:15.208Z</time>
      </trkpt>
      <trkpt lat="47.505883" lon="8.023827">
        <ele>352.424421</ele>
        <time>2021-11-16T01:35:18.716Z</time>
      </trkpt>
      <trkpt lat="47.506098" lon="8.023336">
        <ele>351.433016</ele>
        <time>2021-11-16T01:35:22.889Z</time>
      </trkpt>
      <trkpt lat="47.506199" lon="8.023103">
        <ele>350.963950</ele>
        <time>2021-11-16T01:35:24.961Z</time>
      </trkpt>
      <trkpt lat="47.506232" lon="8.023038">
        <ele>350.826183</ele>
        <time>2021-11-16T01:35:25.567Z</time>
      </trkpt>
      <trkpt lat="47.506258" lon="8.022985">
        <ele>350.715203</ele>
        <time>2021-11-16T01:35:26.052Z</time>
      </trkpt>
      <trkpt lat="47.506468" lon="8.022553">
        <ele>349.813441</ele>
        <time>2021-11-16T01:35:29.860Z</time>
      </trkpt>
      <trkpt lat="47.506535" lon="8.022414">
        <ele>349.524123</ele>
        <time>2021-11-16T01:35:31.015Z</time>
      </trkpt>
      <trkpt lat="47.506621" lon="8.022234">
        <ele>349.150574</ele>
        <time>2021-11-16T01:35:32.597Z</time>
      </trkpt>
      <trkpt lat="47.506655" lon="8.022123">
        <ele>348.944075</ele>
        <time>2021-11-16T01:35:33.464Z</time>
      </trkpt>
      <trkpt lat="47.506678" lon="8.022015">
        <ele>348.752212</ele>
        <time>2021-11-16T01:35:34.250Z</time>
      </trkpt>
      <trkpt lat="47.506735" lon="8.021861">
        <ele>348.454689</ele>
        <time>2021-11-16T01:35:35.486Z</time>
      </trkpt>
      <trkpt lat="47.506867" lon="8.021604">
        <ele>347.915358</ele>
        <time>2021-11-16T01:35:37.717Z</time>
      </trkpt>
      <trkpt lat="47.506910" lon="8.021529">
        <ele>347.753609</ele>
        <time>2021-11-16T01:35:38.383Z</time>
      </trkpt>
      <trkpt lat="47.506949" lon="8.021459">
        <ele>347.604413</ele>
        <time>2021-11-16T01:35:39.045Z</time>
      </trkpt>
      <trkpt lat="47.507007" lon="8.021362">
        <ele>347.391412</ele>
        <time>2021-11-16T01:35:39.931Z</time>
      </trkpt>
      <trkpt lat="47.507213" lon="8.021061">
        <ele>346.686871</ele>
        <time>2021-11-16T01:35:42.918Z</time>
      </trkpt>
      <trkpt lat="47.507466" lon="8.020697">
        <ele>345.828117</ele>
        <time>2021-11-16T01:35:46.585Z</time>
      </trkpt>
      <trkpt lat="47.507609" lon="8.020484">
        <ele>345.334340</ele>
        <time>2021-11-16T01:35:48.726Z</time>
      </trkpt>
      <trkpt lat="47.507666" lon="8.020400">
        <ele>345.138569</ele>
        <time>2021-11-16T01:35:49.588Z</time>
      </trkpt>
      <trkpt lat="47.507863" lon="8.020075">
        <ele>344.420587</ele>
        <time>2021-11-16T01:35:52.783Z</time>
      </trkpt>
      <trkpt lat="47.507895" lon="8.020117">
        <ele>344.316490</ele>
        <time>2021-11-16T01:35:53.245Z</time>
      </trkpt>
      <trkpt lat="47.507995" lon="8.020296">
        <ele>343.934559</ele>
        <time>2021-11-16T01:35:55.026Z</time>
      </trkpt>
      <trkpt lat="47.508000" lon="8.020315">
        <ele>343.901032</ele>
        <time>2021-11-16T01:35:55.157Z</time>
      </trkpt>
      <trkpt lat="47.508039" lon="8.020467">
        <ele>343.846516</ele>
        <time>2021-11-16T01:35:56.360Z</time>
      </trkpt>
      <trkpt lat="47.508194" lon="8.021281">
        <ele>344.354987</ele>
        <time>2021-11-16T01:36:03.089Z</time>
      </trkpt>
      <trkpt lat="47.508213" lon="8.021364">
        <ele>344.407676</ele>
        <time>2021-11-16T01:36:03.908Z</time>
      </trkpt>
      <trkpt lat="47.508331" lon="8.021703">
        <ele>344.636960</ele>
        <time>2021-11-16T01:36:09.721Z</time>
      </trkpt>
      <trkpt lat="47.508453" lon="8.021990">
        <ele>344.840835</ele>
        <time>2021-11-16T01:36:14.159Z</time>
      </trkpt>
      <trkpt lat="47.508643" lon="8.022392">
        <ele>345.135815</ele>
        <time>2021-11-16T01:36:22.196Z</time>
      </trkpt>
      <trkpt lat="47.508786" lon="8.022604">
        <ele>345.315942</ele>
        <time>2021-11-16T01:36:28.345Z</time>
      </trkpt>
      <trkpt lat="47.508863" lon="8.022719">
        <ele>345.444979</ele>
        <time>2021-11-16T01:36:30.950Z</time>
      </trkpt>
      <trkpt lat="47.508958" lon="8.022838">
        <ele>345.709289</ele>
        <time>2021-11-16T01:36:35.236Z</time>
      </trkpt>
      <trkpt lat="47.509187" lon="8.023037">
        <ele>346.273270</ele>
        <time>2021-11-16T01:36:42.422Z</time>
      </trkpt>
      <trkpt lat="47.509313" lon="8.023129">
        <ele>346.571664</ele>
        <time>2021-11-16T01:36:46.988Z</time>
      </trkpt>
      <trkpt lat="47.509881" lon="8.023632">
        <ele>347.977412</ele>
        <time>2021-11-16T01:37:02.839Z</time>
      </trkpt>
      <trkpt lat="47.510365" lon="8.024216">
        <ele>349.143875</ele>
        <time>2021-11-16T01:37:16.053Z</time>
      </trkpt>
      <trkpt lat="47.510388" lon="8.024167">
        <ele>349.082385</ele>
        <time>2021-11-16T01:37:16.585Z</time>
      </trkpt>
      <trkpt lat="47.510638" lon="8.023374">
        <ele>348.180583</ele>
        <time>2021-11-16T01:37:28.139Z</time>
      </trkpt>
      <trkpt lat="47.510740" lon="8.023224">
        <ele>347.961247</ele>
        <time>2021-11-16T01:37:30.145Z</time>
      </trkpt>
      <trkpt lat="47.510935" lon="8.022959">
        <ele>347.557421</ele>
        <time>2021-11-16T01:37:34.647Z</time>
      </trkpt>
      <trkpt lat="47.512343" lon="8.021241">
        <ele>343.641777</ele>
        <time>2021-11-16T01:38:01.627Z</time>
      </trkpt>
      <trkpt lat="47.512778" lon="8.020828">
        <ele>342.326155</ele>
        <time>2021-11-16T01:38:09.829Z</time>
      </trkpt>
      <trkpt lat="47.513167" lon="8.020663">
        <ele>341.513942</ele>
        <time>2021-11-16T01:38:16.152Z</time>
      </trkpt>
      <trkpt lat="47.513370" lon="8.020582">
        <ele>341.175964</ele>
        <time>2021-11-16T01:38:19.409Z</time>
      </trkpt>
      <trkpt lat="47.513856" lon="8.020390">
        <ele>340.367355</ele>
        <time>2021-11-16T01:38:27.530Z</time>
      </trkpt>
      <trkpt lat="47.514214" lon="8.020312">
        <ele>339.785651</ele>
        <time>2021-11-16T01:38:33.518Z</time>
      </trkpt>
      <trkpt lat="47.514447" lon="8.020326">
        <ele>339.410781</ele>
        <time>2021-11-16T01:38:37.353Z</time>
      </trkpt>
      <trkpt lat="47.514678" lon="8.020338">
        <ele>339.039206</ele>
        <time>2021-11-16T01:38:41.322Z</time>
      </trkpt>
      <trkpt lat="47.514794" lon="8.020346">
        <ele>338.928773</ele>
        <time>2021-11-16T01:38:43.275Z</time>
      </trkpt>
      <trkpt lat="47.515011" lon="8.020364">
        <ele>338.765103</ele>
        <time>2021-11-16T01:38:47.079Z</time>
      </trkpt>
      <trkpt lat="47.515050" lon="8.020367">
        <ele>338.735694</ele>
        <time>2021-11-16T01:38:47.754Z</time>
      </trkpt>
      <trkpt lat="47.515452" lon="8.020407">
        <ele>338.432281</ele>
        <time>2021-11-16T01:38:54.794Z</time>
      </trkpt>
      <trkpt lat="47.515648" lon="8.020395">
        <ele>338.284555</ele>
        <time>2021-11-16T01:38:58.312Z</time>
      </trkpt>
      <trkpt lat="47.515685" lon="8.020393">
        <ele>338.256673</ele>
        <time>2021-11-16T01:38:58.963Z</time>
      </trkpt>
      <trkpt lat="47.516146" lon="8.020218">
        <ele>337.898285</ele>
        <time>2021-11-16T01:39:07.643Z</time>
      </trkpt>
      <trkpt lat="47.516172" lon="8.020201">
        <ele>337.876881</ele>
        <time>2021-11-16T01:39:08.140Z</time>
      </trkpt>
      <trkpt lat="47.516265" lon="8.020138">
        <ele>337.799865</ele>
        <time>2021-11-16T01:39:10.090Z</time>
      </trkpt>
      <trkpt lat="47.516418" lon="8.020012">
        <ele>337.668024</ele>
        <time>2021-11-16T01:39:13.532Z</time>
      </trkpt>
      <trkpt lat="47.516592" lon="8.019879">
        <ele>337.644945</ele>
        <time>2021-11-16T01:39:17.209Z</time>
      </trkpt>
      <trkpt lat="47.516606" lon="8.019868">
        <ele>337.645287</ele>
        <time>2021-11-16T01:39:17.633Z</time>
      </trkpt>
      <trkpt lat="47.516775" lon="8.019794">
        <ele>337.649088</ele>
        <time>2021-11-16T01:39:21.016Z</time>
      </trkpt>
      <trkpt lat="47.516798" lon="8.019784">
        <ele>337.649605</ele>
        <time>2021-11-16T01:39:21.479Z</time>
      </trkpt>
      <trkpt lat="47.517087" lon="8.019737">
        <ele>337.655875</ele>
        <time>2021-11-16T01:39:27.426Z</time>
      </trkpt>
      <trkpt lat="47.517205" lon="8.019691">
        <ele>337.658507</ele>
        <time>2021-11-16T01:39:29.542Z</time>
      </trkpt>
      <trkpt lat="47.517322" lon="8.019626">
        <ele>337.661202</ele>
        <time>2021-11-16T01:39:32.407Z</time>
      </trkpt>
      <trkpt lat="47.517543" lon="8.019449">
        <ele>337.666621</ele>
        <time>2021-11-16T01:39:37.328Z</time>
      </trkpt>
      <trkpt lat="47.517699" lon="8.019320">
        <ele>337.670475</ele>
        <time>2021-11-16T01:39:40.587Z</time>
      </trkpt>
      <trkpt lat="47.517787" lon="8.019247">
        <ele>337.672650</ele>
        <time>2021-11-16T01:39:41.943Z</time>
      </trkpt>
      <trkpt lat="47.517873" lon="8.019154">
        <ele>337.674947</ele>
        <time>2021-11-16T01:39:43.481Z</time>
      </trkpt>
      <trkpt lat="47.517945" lon="8.019080">
        <ele>337.676837</ele>
        <time>2021-11-16T01:39:45.337Z</time>
      </trkpt>
      <trkpt lat="47.518228" lon="8.018741">
        <ele>337.560879</ele>
        <time>2021-11-16T01:39:51.459Z</time>
      </trkpt>
      <trkpt lat="47.518485" lon="8.018258">
        <ele>337.318622</ele>
        <time>2021-11-16T01:39:57.672Z</time>
      </trkpt>
      <trkpt lat="47.518569" lon="8.018073">
        <ele>337.230795</ele>
        <time>2021-11-16T01:39:59.400Z</time>
      </trkpt>
      <trkpt lat="47.518733" lon="8.017694">
        <ele>337.053457</ele>
        <time>2021-11-16T01:40:03.340Z</time>
      </trkpt>
      <trkpt lat="47.518855" lon="8.017453">
        <ele>336.934796</ele>
        <time>2021-11-16T01:40:05.942Z</time>
      </trkpt>
      <trkpt lat="47.519079" lon="8.017167">
        <ele>336.762251</ele>
        <time>2021-11-16T01:40:09.422Z</time>
      </trkpt>
      <trkpt lat="47.519096" lon="8.017126">
        <ele>336.743297</ele>
        <time>2021-11-16T01:40:09.806Z</time>
      </trkpt>
      <trkpt lat="47.519107" lon="8.017079">
        <ele>336.723700</ele>
        <time>2021-11-16T01:40:10.240Z</time>
      </trkpt>
      <trkpt lat="47.519117" lon="8.017042">
        <ele>336.707999</ele>
        <time>2021-11-16T01:40:10.564Z</time>
      </trkpt>
      <trkpt lat="47.519123" lon="8.016537">
        <ele>336.409294</ele>
        <time>2021-11-16T01:40:14.620Z</time>
      </trkpt>
      <trkpt lat="47.519126" lon="8.016373">
        <ele>336.291826</ele>
        <time>2021-11-16T01:40:16.002Z</time>
      </trkpt>
      <trkpt lat="47.519171" lon="8.016191">
        <ele>336.153055</ele>
        <time>2021-11-16T01:40:17.445Z</time>
      </trkpt>
      <trkpt lat="47.519228" lon="8.016109">
        <ele>336.068799</ele>
        <time>2021-11-16T01:40:18.431Z</time>
      </trkpt>
      <trkpt lat="47.519330" lon="8.015986">
        <ele>335.929334</ele>
        <time>2021-11-16T01:40:20.044Z</time>
      </trkpt>
      <trkpt lat="47.519346" lon="8.015845">
        <ele>335.826963</ele>
        <time>2021-11-16T01:40:21.084Z</time>
      </trkpt>
      <trkpt lat="47.519424" lon="8.015360">
        <ele>335.469993</ele>
        <time>2021-11-16T01:40:25.089Z</time>
      </trkpt>
      <trkpt lat="47.519518" lon="8.015145">
        <ele>335.286610</ele>
        <time>2021-11-16T01:40:27.156Z</time>
      </trkpt>
      <trkpt lat="47.519564" lon="8.015041">
        <ele>335.197597</ele>
        <time>2021-11-16T01:40:28.267Z</time>
      </trkpt>
      <trkpt lat="47.519666" lon="8.015011">
        <ele>335.087343</ele>
        <time>2021-11-16T01:40:29.497Z</time>
      </trkpt>
      <trkpt lat="47.520115" lon="8.014648">
        <ele>334.683080</ele>
        <time>2021-11-16T01:40:35.950Z</time>
      </trkpt>
      <trkpt lat="47.520539" lon="8.014558">
        <ele>334.579127</ele>
        <time>2021-11-16T01:40:42.270Z</time>
      </trkpt>
      <trkpt lat="47.520848" lon="8.014542">
        <ele>334.504089</ele>
        <time>2021-11-16T01:40:46.716Z</time>
      </trkpt>
      <trkpt lat="47.520953" lon="8.014530">
        <ele>334.478530</ele>
        <time>2021-11-16T01:40:48.050Z</time>
      </trkpt>
      <trkpt lat="47.521150" lon="8.014447">
        <ele>334.428822</ele>
        <time>2021-11-16T01:40:51.261Z</time>
      </trkpt>
      <trkpt lat="47.521292" lon="8.014319">
        <ele>334.388477</ele>
        <time>2021-11-16T01:40:53.462Z</time>
      </trkpt>
      <trkpt lat="47.521454" lon="8.014134">
        <ele>334.338827</ele>
        <time>2021-11-16T01:40:56.658Z</time>
      </trkpt>
      <trkpt lat="47.521508" lon="8.014076">
        <ele>334.322637</ele>
        <time>2021-11-16T01:40:57.599Z</time>
      </trkpt>
      <trkpt lat="47.521532" lon="8.014046">
        <ele>334.315015</ele>
        <time>2021-11-16T01:40:58.051Z</time>
      </trkpt>
      <trkpt lat="47.521611" lon="8.013949">
        <ele>334.290109</ele>
        <time>2021-11-16T01:40:59.313Z</time>
      </trkpt>
      <trkpt lat="47.521782" lon="8.013652">
        <ele>334.292241</ele>
        <time>2021-11-16T01:41:03.548Z</time>
      </trkpt>
      <trkpt lat="47.521857" lon="8.013314">
        <ele>334.296684</ele>
        <time>2021-11-16T01:41:07.200Z</time>
      </trkpt>
      <trkpt lat="47.521867" lon="8.013168">
        <ele>334.298517</ele>
        <time>2021-11-16T01:41:08.626Z</time>
      </trkpt>
      <trkpt lat="47.521884" lon="8.013019">
        <ele>334.300404</ele>
        <time>2021-11-16T01:41:10.367Z</time>
      </trkpt>
      <trkpt lat="47.521999" lon="8.011997">
        <ele>334.313345</ele>
        <time>2021-11-16T01:41:24.002Z</time>
      </trkpt>
      <trkpt lat="47.522135" lon="8.011541">
        <ele>334.319571</ele>
        <time>2021-11-16T01:41:31.047Z</time>
      </trkpt>
      <trkpt lat="47.522752" lon="8.010942">
        <ele>334.756555</ele>
        <time>2021-11-16T01:41:48.103Z</time>
      </trkpt>
      <trkpt lat="47.523475" lon="8.009886">
        <ele>335.417058</ele>
        <time>2021-11-16T01:42:12.168Z</time>
      </trkpt>
      <trkpt lat="47.523750" lon="8.009595">
        <ele>335.536780</ele>
        <time>2021-11-16T01:42:19.809Z</time>
      </trkpt>
      <trkpt lat="47.525125" lon="8.008474">
        <ele>335.858589</ele>
        <time>2021-11-16T01:42:52.890Z</time>
      </trkpt>
      <trkpt lat="47.525704" lon="8.008036">
        <ele>335.128466</ele>
        <time>2021-11-16T01:43:04.599Z</time>
      </trkpt>
      <trkpt lat="47.526398" lon="8.007517">
        <ele>334.248579</ele>
        <time>2021-11-16T01:43:17.575Z</time>
      </trkpt>
      <trkpt lat="47.527466" lon="8.006442">
        <ele>332.123372</ele>
        <time>2021-11-16T01:43:38.131Z</time>
      </trkpt>
      <trkpt lat="47.528852" lon="8.005150">
        <ele>329.064152</ele>
        <time>2021-11-16T01:44:04.223Z</time>
      </trkpt>
      <trkpt lat="47.529337" lon="8.004498">
        <ele>327.831657</ele>
        <time>2021-11-16T01:44:14.976Z</time>
      </trkpt>
      <trkpt lat="47.529391" lon="8.004422">
        <ele>327.691486</ele>
        <time>2021-11-16T01:44:16.164Z</time>
      </trkpt>
      <trkpt lat="47.530077" lon="8.003471">
        <ele>325.630141</ele>
        <time>2021-11-16T01:44:30.464Z</time>
      </trkpt>
      <trkpt lat="47.531127" lon="8.002157">
        <ele>322.568378</ele>
        <time>2021-11-16T01:44:51.525Z</time>
      </trkpt>
      <trkpt lat="47.531407" lon="8.001793">
        <ele>322.005428</ele>
        <time>2021-11-16T01:44:57.262Z</time>
      </trkpt>
      <trkpt lat="47.531789" lon="8.001140">
        <ele>321.123952</ele>
        <time>2021-11-16T01:45:06.507Z</time>
      </trkpt>
      <trkpt lat="47.532176" lon="8.000088">
        <ele>320.173474</ele>
        <time>2021-11-16T01:45:21.246Z</time>
      </trkpt>
      <trkpt lat="47.532283" lon="7.999633">
        <ele>320.208850</ele>
        <time>2021-11-16T01:45:28.176Z</time>
      </trkpt>
      <trkpt lat="47.532321" lon="7.999312">
        <ele>320.232778</ele>
        <time>2021-11-16T01:45:32.934Z</time>
      </trkpt>
      <trkpt lat="47.532314" lon="7.998991">
        <ele>320.256359</ele>
        <time>2021-11-16T01:45:37.379Z</time>
      </trkpt>
      <trkpt lat="47.532616" lon="7.998942">
        <ele>320.289398</ele>
        <time>2021-11-16T01:45:43.958Z</time>
      </trkpt>
      <trkpt lat="47.532745" lon="7.998891">
        <ele>320.303917</ele>
        <time>2021-11-16T01:45:46.993Z</time>
      </trkpt>
      <trkpt lat="47.532880" lon="7.998728">
        <ele>320.322858</ele>
        <time>2021-11-16T01:45:50.734Z</time>
      </trkpt>
      <trkpt lat="47.534115" lon="7.996823">
        <ele>320.321052</ele>
        <time>2021-11-16T01:46:28.268Z</time>
      </trkpt>
      <trkpt lat="47.535091" lon="7.993681">
        <ele>318.574661</ele>
        <time>2021-11-16T01:47:09.061Z</time>
      </trkpt>
      <trkpt lat="47.535530" lon="7.992828">
        <ele>318.232787</ele>
        <time>2021-11-16T01:47:21.219Z</time>
      </trkpt>
      <trkpt lat="47.535601" lon="7.992617">
        <ele>318.157642</ele>
        <time>2021-11-16T01:47:24.836Z</time>
      </trkpt>
      <trkpt lat="47.535603" lon="7.992576">
        <ele>318.144540</ele>
        <time>2021-11-16T01:47:25.856Z</time>
      </trkpt>
      <trkpt lat="47.535497" lon="7.992318">
        <ele>318.048275</ele>
        <time>2021-11-16T01:47:29.539Z</time>
      </trkpt>
      <trkpt lat="47.535110" lon="7.991631">
        <ele>318.102175</ele>
        <time>2021-11-16T01:47:43.352Z</time>
      </trkpt>
      <trkpt lat="47.534860" lon="7.991148">
        <ele>318.665105</ele>
        <time>2021-11-16T01:47:52.819Z</time>
      </trkpt>
      <trkpt lat="47.534644" lon="7.990797">
        <ele>319.104389</ele>
        <time>2021-11-16T01:48:00.584Z</time>
      </trkpt>
      <trkpt lat="47.534606" lon="7.990590">
        <ele>319.302804</ele>
        <time>2021-11-16T01:48:03.931Z</time>
      </trkpt>
      <trkpt lat="47.534609" lon="7.990394">
        <ele>319.484141</ele>
        <time>2021-11-16T01:48:07.540Z</time>
      </trkpt>
      <trkpt lat="47.534723" lon="7.989575">
        <ele>320.257606</ele>
        <time>2021-11-16T01:48:24.209Z</time>
      </trkpt>
      <trkpt lat="47.534771" lon="7.988562">
        <ele>321.344668</ele>
        <time>2021-11-16T01:48:44.893Z</time>
      </trkpt>
      <trkpt lat="47.534795" lon="7.988078">
        <ele>321.868697</ele>
        <time>2021-11-16T01:48:53.659Z</time>
      </trkpt>
      <trkpt lat="47.534363" lon="7.987895">
        <ele>322.587324</ele>
        <time>2021-11-16T01:49:02.541Z</time>
      </trkpt>
      <trkpt lat="47.534466" lon="7.987626">
        <ele>322.921253</ele>
        <time>2021-11-16T01:49:06.435Z</time>
      </trkpt>
      <trkpt lat="47.534590" lon="7.987330">
        <ele>323.206843</ele>
        <time>2021-11-16T01:49:10.759Z</time>
      </trkpt>
      <trkpt lat="47.534974" lon="7.986602">
        <ele>323.356842</ele>
        <time>2021-11-16T01:49:21.347Z</time>
      </trkpt>
      <trkpt lat="47.535270" lon="7.985985">
        <ele>323.479736</ele>
        <time>2021-11-16T01:49:29.015Z</time>
      </trkpt>
      <trkpt lat="47.535614" lon="7.985212">
        <ele>323.657294</ele>
        <time>2021-11-16T01:49:37.496Z</time>
      </trkpt>
      <trkpt lat="47.536026" lon="7.984206">
        <ele>324.626783</ele>
        <time>2021-11-16T01:49:50.237Z</time>
      </trkpt>
      <trkpt lat="47.536199" lon="7.983737">
        <ele>325.067136</ele>
        <time>2021-11-16T01:49:57.338Z</time>
      </trkpt>
      <trkpt lat="47.536410" lon="7.983244">
        <ele>325.548091</ele>
        <time>2021-11-16T01:50:06.495Z</time>
      </trkpt>
      <trkpt lat="47.536530" lon="7.982859">
        <ele>326.006956</ele>
        <time>2021-11-16T01:50:13.832Z</time>
      </trkpt>
      <trkpt lat="47.536764" lon="7.982225">
        <ele>327.427579</ele>
        <time>2021-11-16T01:50:27.503Z</time>
      </trkpt>
      <trkpt lat="47.536775" lon="7.982096">
        <ele>327.683220</ele>
        <time>2021-11-16T01:50:29.916Z</time>
      </trkpt>
      <trkpt lat="47.536842" lon="7.981878">
        <ele>328.154152</ele>
        <time>2021-11-16T01:50:34.657Z</time>
      </trkpt>
      <trkpt lat="47.536896" lon="7.981697">
        <ele>328.543214</ele>
        <time>2021-11-16T01:50:38.494Z</time>
      </trkpt>
      <trkpt lat="47.536959" lon="7.981602">
        <ele>328.805030</ele>
        <time>2021-11-16T01:50:40.868Z</time>
      </trkpt>
      <trkpt lat="47.537107" lon="7.981082">
        <ele>329.914533</ele>
        <time>2021-11-16T01:50:51.590Z</time>
      </trkpt>
      <trkpt lat="47.537461" lon="7.980118">
        <ele>331.228237</ele>
        <time>2021-11-16T01:51:10.143Z</time>
      </trkpt>
      <trkpt lat="47.537583" lon="7.979760">
        <ele>331.361517</ele>
        <time>2021-11-16T01:51:16.147Z</time>
      </trkpt>
      <trkpt lat="47.537955" lon="7.978125">
        <ele>331.934934</ele>
        <time>2021-11-16T01:51:32.490Z</time>
      </trkpt>
      <trkpt lat="47.538107" lon="7.977240">
        <ele>330.937320</ele>
        <time>2021-11-16T01:51:39.396Z</time>
      </trkpt>
      <trkpt lat="47.538242" lon="7.976347">
        <ele>329.906394</ele>
        <time>2021-11-16T01:51:46.272Z</time>
      </trkpt>
      <trkpt lat="47.538706" lon="7.974459">
        <ele>327.252163</ele>
        <time>2021-11-16T01:52:01.202Z</time>
      </trkpt>
      <trkpt lat="47.539262" lon="7.971768">
        <ele>322.926171</ele>
        <time>2021-11-16T01:52:21.546Z</time>
      </trkpt>
      <trkpt lat="47.539783" lon="7.969587">
        <ele>319.494994</ele>
        <time>2021-11-16T01:52:38.026Z</time>
      </trkpt>
      <trkpt lat="47.540214" lon="7.967628">
        <ele>317.060606</ele>
        <time>2021-11-16T01:52:53.826Z</time>
      </trkpt>
      <trkpt lat="47.540896" lon="7.964711">
        <ele>315.090313</ele>
        <time>2021-11-16T01:53:19.931Z</time>
      </trkpt>
      <trkpt lat="47.541095" lon="7.964204">
        <ele>314.758199</ele>
        <time>2021-11-16T01:53:24.968Z</time>
      </trkpt>
      <trkpt lat="47.541169" lon="7.964123">
        <ele>314.681014</ele>
        <time>2021-11-16T01:53:25.926Z</time>
      </trkpt>
      <trkpt lat="47.541129" lon="7.964008">
        <ele>314.607755</ele>
        <time>2021-11-16T01:53:27.369Z</time>
      </trkpt>
      <trkpt lat="47.541019" lon="7.963815">
        <ele>314.464716</ele>
        <time>2021-11-16T01:53:29.719Z</time>
      </trkpt>
      <trkpt lat="47.541123" lon="7.963520">
        <ele>314.276251</ele>
        <time>2021-11-16T01:53:32.452Z</time>
      </trkpt>
      <trkpt lat="47.541217" lon="7.963187">
        <ele>314.071854</ele>
        <time>2021-11-16T01:53:35.354Z</time>
      </trkpt>
      <trkpt lat="47.541258" lon="7.962975">
        <ele>313.867814</ele>
        <time>2021-11-16T01:53:37.749Z</time>
      </trkpt>
      <trkpt lat="47.541293" lon="7.962730">
        <ele>313.566502</ele>
        <time>2021-11-16T01:53:39.733Z</time>
      </trkpt>
      <trkpt lat="47.541308" lon="7.962513">
        <ele>313.304043</ele>
        <time>2021-11-16T01:53:41.757Z</time>
      </trkpt>
      <trkpt lat="47.541314" lon="7.962377">
        <ele>313.140059</ele>
        <time>2021-11-16T01:53:43.111Z</time>
      </trkpt>
      <trkpt lat="47.541316" lon="7.962197">
        <ele>312.923454</ele>
        <time>2021-11-16T01:53:44.455Z</time>
      </trkpt>
      <trkpt lat="47.541242" lon="7.961294">
        <ele>311.828990</ele>
        <time>2021-11-16T01:53:51.479Z</time>
      </trkpt>
      <trkpt lat="47.541153" lon="7.960814">
        <ele>311.230065</ele>
        <time>2021-11-16T01:53:55.009Z</time>
      </trkpt>
      <trkpt lat="47.541060" lon="7.960321">
        <ele>310.416016</ele>
        <time>2021-11-16T01:53:58.599Z</time>
      </trkpt>
      <trkpt lat="47.541027" lon="7.959944">
        <ele>309.499385</ele>
        <time>2021-11-16T01:54:01.101Z</time>
      </trkpt>
      <trkpt lat="47.541019" lon="7.959792">
        <ele>309.131771</ele>
        <time>2021-11-16T01:54:02.146Z</time>
      </trkpt>
      <trkpt lat="47.541012" lon="7.959578">
        <ele>308.615169</ele>
        <time>2021-11-16T01:54:03.621Z</time>
      </trkpt>
      <trkpt lat="47.541016" lon="7.959388">
        <ele>308.156819</ele>
        <time>2021-11-16T01:54:04.823Z</time>
      </trkpt>
      <trkpt lat="47.541081" lon="7.958828">
        <ele>306.786734</ele>
        <time>2021-11-16T01:54:08.592Z</time>
      </trkpt>
      <trkpt lat="47.541226" lon="7.958150">
        <ele>305.071868</ele>
        <time>2021-11-16T01:54:13.353Z</time>
      </trkpt>
      <trkpt lat="47.541305" lon="7.957787">
        <ele>304.242913</ele>
        <time>2021-11-16T01:54:15.837Z</time>
      </trkpt>
      <trkpt lat="47.541355" lon="7.957559">
        <ele>303.888035</ele>
        <time>2021-11-16T01:54:17.538Z</time>
      </trkpt>
      <trkpt lat="47.541450" lon="7.956897">
        <ele>302.886160</ele>
        <time>2021-11-16T01:54:22.173Z</time>
      </trkpt>
      <trkpt lat="47.541464" lon="7.956698">
        <ele>302.589980</ele>
        <time>2021-11-16T01:54:23.578Z</time>
      </trkpt>
      <trkpt lat="47.541533" lon="7.955526">
        <ele>300.848454</ele>
        <time>2021-11-16T01:54:32.412Z</time>
      </trkpt>
      <trkpt lat="47.541554" lon="7.955311">
        <ele>300.526871</ele>
        <time>2021-11-16T01:54:34.450Z</time>
      </trkpt>
      <trkpt lat="47.541735" lon="7.953892">
        <ele>300.427692</ele>
        <time>2021-11-16T01:54:48.659Z</time>
      </trkpt>
      <trkpt lat="47.541773" lon="7.953695">
        <ele>300.425451</ele>
        <time>2021-11-16T01:54:50.906Z</time>
      </trkpt>
      <trkpt lat="47.541791" lon="7.953601">
        <ele>300.424382</ele>
        <time>2021-11-16T01:54:51.941Z</time>
      </trkpt>
      <trkpt lat="47.541991" lon="7.952667">
        <ele>300.414570</ele>
        <time>2021-11-16T01:55:02.797Z</time>
      </trkpt>
      <trkpt lat="47.542169" lon="7.951815">
        <ele>300.555323</ele>
        <time>2021-11-16T01:55:12.535Z</time>
      </trkpt>
      <trkpt lat="47.542192" lon="7.951713">
        <ele>300.572295</ele>
        <time>2021-11-16T01:55:13.797Z</time>
      </trkpt>
      <trkpt lat="47.542357" lon="7.951037">
        <ele>300.685740</ele>
        <time>2021-11-16T01:55:21.262Z</time>
      </trkpt>
      <trkpt lat="47.542444" lon="7.950687">
        <ele>300.744602</ele>
        <time>2021-11-16T01:55:25.093Z</time>
      </trkpt>
      <trkpt lat="47.542546" lon="7.950274">
        <ele>300.814006</ele>
        <time>2021-11-16T01:55:29.439Z</time>
      </trkpt>
      <trkpt lat="47.542554" lon="7.950231">
        <ele>300.821045</ele>
        <time>2021-11-16T01:55:29.926Z</time>
      </trkpt>
      <trkpt lat="47.542560" lon="7.950202">
        <ele>300.825832</ele>
        <time>2021-11-16T01:55:30.260Z</time>
      </trkpt>
      <trkpt lat="47.542609" lon="7.949914">
        <ele>300.947024</ele>
        <time>2021-11-16T01:55:33.258Z</time>
      </trkpt>
      <trkpt lat="47.542719" lon="7.949175">
        <ele>301.297104</ele>
        <time>2021-11-16T01:55:41.162Z</time>
      </trkpt>
      <trkpt lat="47.542826" lon="7.948298">
        <ele>301.709385</ele>
        <time>2021-11-16T01:55:52.105Z</time>
      </trkpt>
      <trkpt lat="47.542838" lon="7.948225">
        <ele>301.744142</ele>
        <time>2021-11-16T01:55:52.932Z</time>
      </trkpt>
      <trkpt lat="47.542875" lon="7.948001">
        <ele>301.850823</ele>
        <time>2021-11-16T01:55:55.816Z</time>
      </trkpt>
      <trkpt lat="47.542928" lon="7.947798">
        <ele>301.951511</ele>
        <time>2021-11-16T01:55:58.739Z</time>
      </trkpt>
      <trkpt lat="47.542957" lon="7.947651">
        <ele>302.022359</ele>
        <time>2021-11-16T01:56:00.446Z</time>
      </trkpt>
      <trkpt lat="47.543050" lon="7.947411">
        <ele>302.296231</ele>
        <time>2021-11-16T01:56:04.811Z</time>
      </trkpt>
      <trkpt lat="47.543087" lon="7.947317">
        <ele>302.434460</ele>
        <time>2021-11-16T01:56:06.090Z</time>
      </trkpt>
      <trkpt lat="47.543092" lon="7.947257">
        <ele>302.511258</ele>
        <time>2021-11-16T01:56:06.879Z</time>
      </trkpt>
      <trkpt lat="47.543097" lon="7.947186">
        <ele>302.601941</ele>
        <time>2021-11-16T01:56:07.729Z</time>
      </trkpt>
      <trkpt lat="47.543086" lon="7.947052">
        <ele>302.773420</ele>
        <time>2021-11-16T01:56:09.559Z</time>
      </trkpt>
      <trkpt lat="47.543056" lon="7.946935">
        <ele>302.932410</ele>
        <time>2021-11-16T01:56:11.925Z</time>
      </trkpt>
      <trkpt lat="47.543045" lon="7.946881">
        <ele>303.004063</ele>
        <time>2021-11-16T01:56:13.038Z</time>
      </trkpt>
      <trkpt lat="47.542982" lon="7.946547">
        <ele>303.444607</ele>
        <time>2021-11-16T01:56:17.637Z</time>
      </trkpt>
      <trkpt lat="47.542974" lon="7.946495">
        <ele>303.512358</ele>
        <time>2021-11-16T01:56:18.850Z</time>
      </trkpt>
      <trkpt lat="47.542960" lon="7.946400">
        <ele>303.635882</ele>
        <time>2021-11-16T01:56:20.687Z</time>
      </trkpt>
      <trkpt lat="47.542916" lon="7.945730">
        <ele>304.491024</ele>
        <time>2021-11-16T01:56:31.263Z</time>
      </trkpt>
      <trkpt lat="47.542913" lon="7.945267">
        <ele>305.079216</ele>
        <time>2021-11-16T01:56:38.749Z</time>
      </trkpt>
      <trkpt lat="47.543007" lon="7.943867">
        <ele>306.080679</ele>
        <time>2021-11-16T01:56:59.489Z</time>
      </trkpt>
      <trkpt lat="47.543161" lon="7.942213">
        <ele>306.865614</ele>
        <time>2021-11-16T01:57:17.895Z</time>
      </trkpt>
      <trkpt lat="47.543435" lon="7.940670">
        <ele>305.645078</ele>
        <time>2021-11-16T01:57:30.843Z</time>
      </trkpt>
      <trkpt lat="47.543826" lon="7.939433">
        <ele>304.412775</ele>
        <time>2021-11-16T01:57:41.244Z</time>
      </trkpt>
      <trkpt lat="47.544472" lon="7.937932">
        <ele>302.248540</ele>
        <time>2021-11-16T01:57:54.568Z</time>
      </trkpt>
      <trkpt lat="47.544705" lon="7.937395">
        <ele>301.497112</ele>
        <time>2021-11-16T01:57:59.408Z</time>
      </trkpt>
      <trkpt lat="47.544903" lon="7.936917">
        <ele>300.896856</ele>
        <time>2021-11-16T01:58:03.668Z</time>
      </trkpt>
      <trkpt lat="47.545074" lon="7.936484">
        <ele>300.359926</ele>
        <time>2021-11-16T01:58:07.499Z</time>
      </trkpt>
      <trkpt lat="47.545457" lon="7.935110">
        <ele>298.818808</ele>
        <time>2021-11-16T01:58:18.868Z</time>
      </trkpt>
      <trkpt lat="47.545674" lon="7.933625">
        <ele>298.595383</ele>
        <time>2021-11-16T01:58:31.948Z</time>
      </trkpt>
      <trkpt lat="47.545702" lon="7.933290">
        <ele>298.545745</ele>
        <time>2021-11-16T01:58:35.528Z</time>
      </trkpt>
      <trkpt lat="47.545724" lon="7.932758">
        <ele>298.467369</ele>
        <time>2021-11-16T01:58:41.794Z</time>
      </trkpt>
      <trkpt lat="47.545721" lon="7.931992">
        <ele>299.118262</ele>
        <time>2021-11-16T01:58:51.834Z</time>
      </trkpt>
      <trkpt lat="47.545696" lon="7.931497">
        <ele>299.740181</ele>
        <time>2021-11-16T01:58:59.039Z</time>
      </trkpt>
      <trkpt lat="47.545661" lon="7.930955">
        <ele>300.422353</ele>
        <time>2021-11-16T01:59:07.734Z</time>
      </trkpt>
      <trkpt lat="47.545563" lon="7.929641">
        <ele>301.802771</ele>
        <time>2021-11-16T01:59:30.074Z</time>
      </trkpt>
      <trkpt lat="47.545475" lon="7.928419">
        <ele>301.950610</ele>
        <time>2021-11-16T01:59:46.377Z</time>
      </trkpt>
      <trkpt lat="47.545421" lon="7.927686">
        <ele>302.039312</ele>
        <time>2021-11-16T01:59:52.480Z</time>
      </trkpt>
      <trkpt lat="47.545406" lon="7.927306">
        <ele>302.085104</ele>
        <time>2021-11-16T01:59:55.384Z</time>
      </trkpt>
      <trkpt lat="47.545407" lon="7.927001">
        <ele>301.566077</ele>
        <time>2021-11-16T01:59:57.671Z</time>
      </trkpt>
      <trkpt lat="47.545409" lon="7.926773">
        <ele>301.044749</ele>
        <time>2021-11-16T01:59:59.300Z</time>
      </trkpt>
      <trkpt lat="47.545417" lon="7.925848">
        <ele>298.929716</ele>
        <time>2021-11-16T02:00:05.635Z</time>
      </trkpt>
      <trkpt lat="47.545446" lon="7.925350">
        <ele>297.786893</ele>
        <time>2021-11-16T02:00:08.927Z</time>
      </trkpt>
      <trkpt lat="47.545466" lon="7.924880">
        <ele>296.710184</ele>
        <time>2021-11-16T02:00:11.980Z</time>
      </trkpt>
      <trkpt lat="47.545481" lon="7.924396">
        <ele>295.675256</ele>
        <time>2021-11-16T02:00:15.064Z</time>
      </trkpt>
      <trkpt lat="47.545521" lon="7.923709">
        <ele>294.386208</ele>
        <time>2021-11-16T02:00:19.589Z</time>
      </trkpt>
      <trkpt lat="47.545536" lon="7.923407">
        <ele>293.820123</ele>
        <time>2021-11-16T02:00:21.979Z</time>
      </trkpt>
      <trkpt lat="47.545553" lon="7.923142">
        <ele>293.322499</ele>
        <time>2021-11-16T02:00:23.699Z</time>
      </trkpt>
      <trkpt lat="47.545587" lon="7.922895">
        <ele>292.851254</ele>
        <time>2021-11-16T02:00:26.101Z</time>
      </trkpt>
      <trkpt lat="47.545641" lon="7.922610">
        <ele>292.297884</ele>
        <time>2021-11-16T02:00:28.099Z</time>
      </trkpt>
      <trkpt lat="47.545690" lon="7.922369">
        <ele>291.827366</ele>
        <time>2021-11-16T02:00:30.791Z</time>
      </trkpt>
      <trkpt lat="47.545699" lon="7.922325">
        <ele>291.741419</ele>
        <time>2021-11-16T02:00:31.052Z</time>
      </trkpt>
      <trkpt lat="47.545714" lon="7.922249">
        <ele>291.593396</ele>
        <time>2021-11-16T02:00:31.642Z</time>
      </trkpt>
      <trkpt lat="47.545778" lon="7.921947">
        <ele>291.016016</ele>
        <time>2021-11-16T02:00:34.797Z</time>
      </trkpt>
      <trkpt lat="47.545810" lon="7.921755">
        <ele>290.928114</ele>
        <time>2021-11-16T02:00:36.155Z</time>
      </trkpt>
      <trkpt lat="47.545881" lon="7.921096">
        <ele>290.631498</ele>
        <time>2021-11-16T02:00:41.503Z</time>
      </trkpt>
      <trkpt lat="47.545913" lon="7.920765">
        <ele>290.482876</ele>
        <time>2021-11-16T02:00:44.370Z</time>
      </trkpt>
      <trkpt lat="47.545973" lon="7.920313">
        <ele>290.278125</ele>
        <time>2021-11-16T02:00:49.518Z</time>
      </trkpt>
      <trkpt lat="47.546128" lon="7.919617">
        <ele>289.952370</ele>
        <time>2021-11-16T02:00:55.981Z</time>
      </trkpt>
      <trkpt lat="47.546262" lon="7.919081">
        <ele>289.732747</ele>
        <time>2021-11-16T02:01:01.980Z</time>
      </trkpt>
      <trkpt lat="47.546821" lon="7.916867">
        <ele>288.946251</ele>
        <time>2021-11-16T02:01:22.732Z</time>
      </trkpt>
      <trkpt lat="47.547032" lon="7.916218">
        <ele>288.836086</ele>
        <time>2021-11-16T02:01:29.223Z</time>
      </trkpt>
      <trkpt lat="47.547091" lon="7.916039">
        <ele>288.805622</ele>
        <time>2021-11-16T02:01:31.041Z</time>
      </trkpt>
      <trkpt lat="47.547113" lon="7.915971">
        <ele>288.794089</ele>
        <time>2021-11-16T02:01:31.639Z</time>
      </trkpt>
      <trkpt lat="47.547423" lon="7.915080">
        <ele>288.640792</ele>
        <time>2021-11-16T02:01:41.283Z</time>
      </trkpt>
      <trkpt lat="47.547994" lon="7.913433">
        <ele>289.094448</ele>
        <time>2021-11-16T02:02:01.003Z</time>
      </trkpt>
      <trkpt lat="47.548027" lon="7.913334">
        <ele>289.145735</ele>
        <time>2021-11-16T02:02:02.362Z</time>
      </trkpt>
      <trkpt lat="47.548412" lon="7.912168">
        <ele>289.748664</ele>
        <time>2021-11-16T02:02:18.765Z</time>
      </trkpt>
      <trkpt lat="47.549012" lon="7.910340">
        <ele>291.300795</ele>
        <time>2021-11-16T02:02:45.730Z</time>
      </trkpt>
      <trkpt lat="47.549102" lon="7.910058">
        <ele>291.541965</ele>
        <time>2021-11-16T02:02:49.840Z</time>
      </trkpt>
      <trkpt lat="47.549195" lon="7.909756">
        <ele>291.798607</ele>
        <time>2021-11-16T02:02:54.159Z</time>
      </trkpt>
      <trkpt lat="47.549308" lon="7.909382">
        <ele>292.265484</ele>
        <time>2021-11-16T02:02:59.419Z</time>
      </trkpt>
      <trkpt lat="47.549520" lon="7.908678">
        <ele>293.184132</ele>
        <time>2021-11-16T02:03:09.438Z</time>
      </trkpt>
      <trkpt lat="47.549539" lon="7.908625">
        <ele>293.255646</ele>
        <time>2021-11-16T02:03:10.174Z</time>
      </trkpt>
      <trkpt lat="47.550497" lon="7.905558">
        <ele>298.594571</ele>
        <time>2021-11-16T02:04:05.062Z</time>
      </trkpt>
      <trkpt lat="47.550283" lon="7.905413">
        <ele>299.250208</ele>
        <time>2021-11-16T02:04:13.228Z</time>
      </trkpt>
      <trkpt lat="47.550067" lon="7.905245">
        <ele>299.929910</ele>
        <time>2021-11-16T02:04:21.914Z</time>
      </trkpt>
      <trkpt lat="47.549867" lon="7.905155">
        <ele>300.696613</ele>
        <time>2021-11-16T02:04:29.543Z</time>
      </trkpt>
      <trkpt lat="47.549868" lon="7.905010">
        <ele>301.072492</ele>
        <time>2021-11-16T02:04:32.948Z</time>
      </trkpt>
      <trkpt lat="47.550025" lon="7.904774">
        <ele>301.931439</ele>
        <time>2021-11-16T02:04:41.100Z</time>
      </trkpt>
      <trkpt lat="47.550302" lon="7.904164">
        <ele>303.837189</ele>
        <time>2021-11-16T02:04:59.399Z</time>
      </trkpt>
      <trkpt lat="47.550498" lon="7.903445">
        <ele>305.847187</ele>
        <time>2021-11-16T02:05:18.970Z</time>
      </trkpt>
      <trkpt lat="47.550688" lon="7.902451">
        <ele>308.522371</ele>
        <time>2021-11-16T02:05:41.519Z</time>
      </trkpt>
      <trkpt lat="47.550757" lon="7.901591">
        <ele>310.763463</ele>
        <time>2021-11-16T02:06:01.315Z</time>
      </trkpt>
      <trkpt lat="47.550769" lon="7.901362">
        <ele>311.357830</ele>
        <time>2021-11-16T02:06:07.223Z</time>
      </trkpt>
      <trkpt lat="47.550801" lon="7.900244">
        <ele>314.276189</ele>
        <time>2021-11-16T02:06:31.620Z</time>
      </trkpt>
      <trkpt lat="47.550819" lon="7.898109">
        <ele>320.096861</ele>
        <time>2021-11-16T02:07:18.661Z</time>
      </trkpt>
      <trkpt lat="47.550648" lon="7.896481">
        <ele>322.686771</ele>
        <time>2021-11-16T02:07:46.316Z</time>
      </trkpt>
      <trkpt lat="47.550639" lon="7.896345">
        <ele>322.856595</ele>
        <time>2021-11-16T02:07:48.691Z</time>
      </trkpt>
      <trkpt lat="47.550660" lon="7.896255">
        <ele>322.974937</ele>
        <time>2021-11-16T02:07:49.492Z</time>
      </trkpt>
      <trkpt lat="47.550838" lon="7.895509">
        <ele>323.958252</ele>
        <time>2021-11-16T02:07:59.659Z</time>
      </trkpt>
      <trkpt lat="47.550878" lon="7.895158">
        <ele>324.400629</ele>
        <time>2021-11-16T02:08:03.722Z</time>
      </trkpt>
      <trkpt lat="47.550908" lon="7.894308">
        <ele>325.460180</ele>
        <time>2021-11-16T02:08:14.194Z</time>
      </trkpt>
      <trkpt lat="47.550892" lon="7.893176">
        <ele>326.869648</ele>
        <time>2021-11-16T02:08:28.911Z</time>
      </trkpt>
      <trkpt lat="47.550904" lon="7.891725">
        <ele>330.489959</ele>
        <time>2021-11-16T02:08:58.673Z</time>
      </trkpt>
      <trkpt lat="47.550915" lon="7.890600">
        <ele>334.555729</ele>
        <time>2021-11-16T02:09:27.514Z</time>
      </trkpt>
      <trkpt lat="47.550833" lon="7.889069">
        <ele>340.530091</ele>
        <time>2021-11-16T02:10:10.147Z</time>
      </trkpt>
      <trkpt lat="47.550831" lon="7.888611">
        <ele>342.440395</ele>
        <time>2021-11-16T02:10:22.717Z</time>
      </trkpt>
      <trkpt lat="47.550789" lon="7.887816">
        <ele>345.766388</ele>
        <time>2021-11-16T02:10:43.329Z</time>
      </trkpt>
      <trkpt lat="47.550758" lon="7.887295">
        <ele>347.947847</ele>
        <time>2021-11-16T02:10:57.151Z</time>
      </trkpt>
      <trkpt lat="47.550677" lon="7.886476">
        <ele>350.967596</ele>
        <time>2021-11-16T02:11:18.639Z</time>
      </trkpt>
      <trkpt lat="47.550548" lon="7.885799">
        <ele>353.468733</ele>
        <time>2021-11-16T02:11:35.843Z</time>
      </trkpt>
      <trkpt lat="47.550391" lon="7.885109">
        <ele>356.057669</ele>
        <time>2021-11-16T02:11:53.480Z</time>
      </trkpt>
      <trkpt lat="47.550332" lon="7.884727">
        <ele>357.450972</ele>
        <time>2021-11-16T02:12:02.170Z</time>
      </trkpt>
      <trkpt lat="47.550234" lon="7.883221">
        <ele>361.441832</ele>
        <time>2021-11-16T02:12:35.002Z</time>
      </trkpt>
      <trkpt lat="47.549927" lon="7.881490">
        <ele>366.066845</ele>
        <time>2021-11-16T02:13:07.265Z</time>
      </trkpt>
      <trkpt lat="47.549726" lon="7.880786">
        <ele>368.118680</ele>
        <time>2021-11-16T02:13:23.242Z</time>
      </trkpt>
      <trkpt lat="47.549327" lon="7.879547">
        <ele>371.803650</ele>
        <time>2021-11-16T02:13:53.026Z</time>
      </trkpt>
      <trkpt lat="47.549318" lon="7.879398">
        <ele>372.162526</ele>
        <time>2021-11-16T02:13:56.214Z</time>
      </trkpt>
      <trkpt lat="47.549140" lon="7.879391">
        <ele>372.777983</ele>
        <time>2021-11-16T02:14:03.085Z</time>
      </trkpt>
      <trkpt lat="47.548718" lon="7.879258">
        <ele>374.269224</ele>
        <time>2021-11-16T02:14:16.756Z</time>
      </trkpt>
      <trkpt lat="47.548422" lon="7.878959">
        <ele>375.507492</ele>
        <time>2021-11-16T02:14:27.402Z</time>
      </trkpt>
      <trkpt lat="47.548234" lon="7.878638">
        <ele>376.498991</ele>
        <time>2021-11-16T02:14:35.834Z</time>
      </trkpt>
      <trkpt lat="47.547992" lon="7.877974">
        <ele>378.053262</ele>
        <time>2021-11-16T02:14:48.932Z</time>
      </trkpt>
      <trkpt lat="47.547574" lon="7.876801">
        <ele>377.244666</ele>
        <time>2021-11-16T02:15:02.695Z</time>
      </trkpt>
      <trkpt lat="47.547126" lon="7.875801">
        <ele>376.513006</ele>
        <time>2021-11-16T02:15:11.478Z</time>
      </trkpt>
      <trkpt lat="47.546309" lon="7.874154">
        <ele>369.815033</ele>
        <time>2021-11-16T02:15:24.666Z</time>
      </trkpt>
      <trkpt lat="47.546135" lon="7.873859">
        <ele>368.495260</ele>
        <time>2021-11-16T02:15:27.048Z</time>
      </trkpt>
      <trkpt lat="47.546077" lon="7.873763">
        <ele>368.061224</ele>
        <time>2021-11-16T02:15:27.859Z</time>
      </trkpt>
      <trkpt lat="47.545934" lon="7.873549">
        <ele>367.494694</ele>
        <time>2021-11-16T02:15:29.664Z</time>
      </trkpt>
      <trkpt lat="47.545746" lon="7.873302">
        <ele>367.494694</ele>
        <time>2021-11-16T02:15:31.952Z</time>
      </trkpt>
      <trkpt lat="47.545515" lon="7.873015">
        <ele>367.494694</ele>
        <time>2021-11-16T02:15:34.629Z</time>
      </trkpt>
      <trkpt lat="47.545478" lon="7.872968">
        <ele>367.494694</ele>
        <time>2021-11-16T02:15:35.076Z</time>
      </trkpt>
      <trkpt lat="47.545375" lon="7.872836">
        <ele>367.494694</ele>
        <time>2021-11-16T02:15:36.272Z</time>
      </trkpt>
      <trkpt lat="47.545131" lon="7.872664">
        <ele>367.494694</ele>
        <time>2021-11-16T02:15:38.744Z</time>
      </trkpt>
      <trkpt lat="47.544883" lon="7.872555">
        <ele>367.494694</ele>
        <time>2021-11-16T02:15:41.083Z</time>
      </trkpt>
      <trkpt lat="47.544390" lon="7.872423">
        <ele>367.494694</ele>
        <time>2021-11-16T02:15:45.723Z</time>
      </trkpt>
      <trkpt lat="47.544190" lon="7.872387">
        <ele>367.494694</ele>
        <time>2021-11-16T02:15:47.612Z</time>
      </trkpt>
    </trkseg>
  </trk>
</gpx>